<?xml version="1.0" encoding="UTF-8" standalone="no" ?>
<gpx xmlns="http://www.topografix.com/GPX/1/1" xmlns:xsi="http://www.w3.org/2001/XMLSchema-instance" xsi:schemaLocation="http://www.topografix.com/GPX/1/1 http://www.topografix.com/GPX/1/1/gpx.xsd" version="1.1" creator="VisuGPX - https://www.visugpx.com">
  <metadata>
    <name>Partenay valognes découpé</name>
  </metadata>
  <trk>
    <name><![CDATA[Partenay valognes découpé_3]]></name>
    <trkseg>
      <trkpt lat="48.19685" lon="-0.09212">
        <ele>241.174</ele>
        <time>2016-06-01T19:54:26Z</time>
      </trkpt>
      <trkpt lat="48.19689" lon="-0.0927">
        <ele>246.665</ele>
        <time>2016-06-01T19:54:06Z</time>
      </trkpt>
      <trkpt lat="48.19744" lon="-0.09382">
        <ele>262.779</ele>
        <time>2016-06-01T19:53:46Z</time>
      </trkpt>
      <trkpt lat="48.19761" lon="-0.09433">
        <ele>264.917</ele>
        <time>2016-06-01T19:53:26Z</time>
      </trkpt>
      <trkpt lat="48.19754" lon="-0.09429">
        <ele>265.081</ele>
        <time>2016-06-01T19:53:06Z</time>
      </trkpt>
      <trkpt lat="48.19711" lon="-0.09421">
        <ele>262.318</ele>
        <time>2016-06-01T19:52:46Z</time>
      </trkpt>
      <trkpt lat="48.19654" lon="-0.09436">
        <ele>254.843</ele>
        <time>2016-06-01T19:52:26Z</time>
      </trkpt>
      <trkpt lat="48.19515" lon="-0.09442">
        <ele>236.477</ele>
        <time>2016-06-01T19:52:06Z</time>
      </trkpt>
      <trkpt lat="48.19466" lon="-0.09418">
        <ele>227.208</ele>
        <time>2016-06-01T19:51:46Z</time>
      </trkpt>
      <trkpt lat="48.19416" lon="-0.09401">
        <ele>214.607</ele>
        <time>2016-06-01T19:51:26Z</time>
      </trkpt>
      <trkpt lat="48.1937" lon="-0.09444">
        <ele>206.943</ele>
        <time>2016-06-01T19:51:06Z</time>
      </trkpt>
      <trkpt lat="48.19292" lon="-0.09588">
        <ele>202.313</ele>
        <time>2016-06-01T19:50:46Z</time>
      </trkpt>
      <trkpt lat="48.19247" lon="-0.0976">
        <ele>202.947</ele>
        <time>2020-12-24T06:11:15Z</time>
      </trkpt>
      <trkpt lat="48.19233" lon="-0.09775">
        <ele>200.818</ele>
        <time>2020-12-24T06:10:55Z</time>
      </trkpt>
      <trkpt lat="48.19236" lon="-0.09897">
        <ele>203.522</ele>
        <time>2020-12-24T06:10:35Z</time>
      </trkpt>
      <trkpt lat="48.19256" lon="-0.09929">
        <ele>207.28</ele>
        <time>2020-12-24T06:10:15Z</time>
      </trkpt>
      <trkpt lat="48.19269" lon="-0.09977">
        <ele>207.994</ele>
        <time>2020-12-24T06:09:55Z</time>
      </trkpt>
      <trkpt lat="48.19344" lon="-0.10122">
        <ele>215.151</ele>
        <time>2020-12-24T06:09:35Z</time>
      </trkpt>
      <trkpt lat="48.1938" lon="-0.10178">
        <ele>215.826</ele>
        <time>2020-12-24T06:09:15Z</time>
      </trkpt>
      <trkpt lat="48.19392" lon="-0.10232">
        <ele>214.95</ele>
        <time>2020-12-24T06:08:55Z</time>
      </trkpt>
      <trkpt lat="48.19323" lon="-0.10225">
        <ele>222.008</ele>
        <time>2020-12-24T06:08:35Z</time>
      </trkpt>
      <trkpt lat="48.19316" lon="-0.10401">
        <ele>240.016</ele>
        <time>2016-06-01T19:46:46Z</time>
      </trkpt>
      <trkpt lat="48.19332" lon="-0.10485">
        <ele>247.888</ele>
        <time>2016-06-01T19:46:26Z</time>
      </trkpt>
      <trkpt lat="48.19337" lon="-0.10556">
        <ele>251.446</ele>
        <time>2016-06-01T19:46:06Z</time>
      </trkpt>
      <trkpt lat="48.19307" lon="-0.10629">
        <ele>253.96</ele>
        <time>2016-06-01T19:45:46Z</time>
      </trkpt>
      <trkpt lat="48.19286" lon="-0.10706">
        <ele>253.781</ele>
        <time>2016-06-01T19:45:26Z</time>
      </trkpt>
      <trkpt lat="48.1923" lon="-0.10794">
        <ele>253.345</ele>
        <time>2016-06-01T19:45:06Z</time>
      </trkpt>
      <trkpt lat="48.19264" lon="-0.108">
        <ele>250.373</ele>
        <time>2016-06-01T19:44:46Z</time>
      </trkpt>
      <trkpt lat="48.19326" lon="-0.10837">
        <ele>244.687</ele>
        <time>2016-06-01T19:44:26Z</time>
      </trkpt>
      <trkpt lat="48.19407" lon="-0.10869">
        <ele>246.734</ele>
        <time>2016-06-01T19:44:06Z</time>
      </trkpt>
      <trkpt lat="48.19468" lon="-0.10938">
        <ele>250.559</ele>
        <time>2016-06-01T19:43:46Z</time>
      </trkpt>
      <trkpt lat="48.19498" lon="-0.10955">
        <ele>252.893</ele>
        <time>2016-06-01T19:43:26Z</time>
      </trkpt>
      <trkpt lat="48.19541" lon="-0.10987">
        <ele>254.708</ele>
        <time>2016-06-01T19:43:06Z</time>
      </trkpt>
      <trkpt lat="48.19592" lon="-0.11019">
        <ele>255.82</ele>
        <time>2016-06-01T19:42:46Z</time>
      </trkpt>
      <trkpt lat="48.19645" lon="-0.11038">
        <ele>257.028</ele>
        <time>2016-06-01T19:42:26Z</time>
      </trkpt>
      <trkpt lat="48.19666" lon="-0.11051">
        <ele>257.075</ele>
        <time>2016-06-01T19:42:06Z</time>
      </trkpt>
      <trkpt lat="48.19679" lon="-0.11077">
        <ele>257.052</ele>
        <time>2016-06-01T19:41:46Z</time>
      </trkpt>
      <trkpt lat="48.19791" lon="-0.10981">
        <ele>261.653</ele>
        <time>2016-06-01T19:41:26Z</time>
      </trkpt>
      <trkpt lat="48.19864" lon="-0.11051">
        <ele>263.297</ele>
        <time>2016-06-01T19:41:06Z</time>
      </trkpt>
      <trkpt lat="48.19954" lon="-0.1112">
        <ele>264.855</ele>
        <time>2016-06-01T19:40:46Z</time>
      </trkpt>
      <trkpt lat="48.2" lon="-0.11146">
        <ele>267.099</ele>
        <time>2016-06-01T19:40:26Z</time>
      </trkpt>
      <trkpt lat="48.2003" lon="-0.11163">
        <ele>268.236</ele>
        <time>2016-06-01T19:40:06Z</time>
      </trkpt>
      <trkpt lat="48.20043" lon="-0.11217">
        <ele>270.011</ele>
        <time>2016-06-01T19:39:46Z</time>
      </trkpt>
      <trkpt lat="48.20133" lon="-0.11277">
        <ele>274.095</ele>
        <time>2016-06-01T19:39:26Z</time>
      </trkpt>
      <trkpt lat="48.20181" lon="-0.11352">
        <ele>275.708</ele>
        <time>2016-06-01T19:39:06Z</time>
      </trkpt>
      <trkpt lat="48.20218" lon="-0.1138">
        <ele>280.421</ele>
        <time>2016-06-01T19:38:46Z</time>
      </trkpt>
      <trkpt lat="48.20364" lon="-0.11515">
        <ele>263.165</ele>
        <time>2016-06-01T19:38:26Z</time>
      </trkpt>
      <trkpt lat="48.20264" lon="-0.11757">
        <ele>261.693</ele>
        <time>2016-06-01T19:38:06Z</time>
      </trkpt>
      <trkpt lat="48.20228" lon="-0.11837">
        <ele>257.619</ele>
        <time>2016-06-01T19:37:46Z</time>
      </trkpt>
      <trkpt lat="48.20178" lon="-0.1188">
        <ele>261.98</ele>
        <time>2016-06-01T19:37:26Z</time>
      </trkpt>
      <trkpt lat="48.20118" lon="-0.11946">
        <ele>265.614</ele>
        <time>2016-06-01T19:37:06Z</time>
      </trkpt>
      <trkpt lat="48.20138" lon="-0.11961">
        <ele>263.272</ele>
        <time>2016-06-01T19:36:46Z</time>
      </trkpt>
      <trkpt lat="48.20154" lon="-0.12032">
        <ele>256.876</ele>
        <time>2016-06-01T19:36:26Z</time>
      </trkpt>
      <trkpt lat="48.20193" lon="-0.12071">
        <ele>258.263</ele>
        <time>2016-06-01T19:36:06Z</time>
      </trkpt>
      <trkpt lat="48.20218" lon="-0.12154">
        <ele>255.648</ele>
        <time>2016-06-01T19:35:46Z</time>
      </trkpt>
      <trkpt lat="48.20213" lon="-0.12201">
        <ele>252.472</ele>
        <time>2016-06-01T19:35:26Z</time>
      </trkpt>
      <trkpt lat="48.2018" lon="-0.12212">
        <ele>250.608</ele>
        <time>2016-06-01T19:35:06Z</time>
      </trkpt>
      <trkpt lat="48.20148" lon="-0.1224">
        <ele>248.711</ele>
        <time>2016-06-01T19:34:46Z</time>
      </trkpt>
      <trkpt lat="48.20166" lon="-0.12646">
        <ele>249.183</ele>
        <time>2016-06-01T19:34:26Z</time>
      </trkpt>
      <trkpt lat="48.20326" lon="-0.1274">
        <ele>240.062</ele>
        <time>2016-06-01T19:34:06Z</time>
      </trkpt>
      <trkpt lat="48.20357" lon="-0.12753">
        <ele>237.39</ele>
        <time>2016-06-01T19:33:46Z</time>
      </trkpt>
      <trkpt lat="48.20337" lon="-0.12875">
        <ele>240.131</ele>
        <time>2016-06-01T19:33:26Z</time>
      </trkpt>
      <trkpt lat="48.20347" lon="-0.12918">
        <ele>238.045</ele>
        <time>2016-06-01T19:33:06Z</time>
      </trkpt>
      <trkpt lat="48.2034" lon="-0.12946">
        <ele>237.943</ele>
        <time>2016-06-01T19:32:46Z</time>
      </trkpt>
      <trkpt lat="48.20196" lon="-0.13116">
        <ele>239.667</ele>
        <time>2016-06-01T19:32:26Z</time>
      </trkpt>
      <trkpt lat="48.20163" lon="-0.13191">
        <ele>235.984</ele>
        <time>2016-06-01T19:32:06Z</time>
      </trkpt>
      <trkpt lat="48.20163" lon="-0.13201">
        <ele>235.259</ele>
        <time>2016-06-01T19:31:46Z</time>
      </trkpt>
      <trkpt lat="48.20186" lon="-0.13257">
        <ele>234.083</ele>
        <time>2016-06-01T19:31:26Z</time>
      </trkpt>
      <trkpt lat="48.20223" lon="-0.13317">
        <ele>233.008</ele>
        <time>2016-06-01T19:31:06Z</time>
      </trkpt>
      <trkpt lat="48.20296" lon="-0.13369">
        <ele>235.925</ele>
        <time>2016-06-01T19:30:46Z</time>
      </trkpt>
      <trkpt lat="48.2032" lon="-0.13371">
        <ele>239.905</ele>
        <time>2016-06-01T19:30:26Z</time>
      </trkpt>
      <trkpt lat="48.2032" lon="-0.13371">
        <ele>239.979</ele>
        <time>2016-06-01T19:30:06Z</time>
      </trkpt>
      <trkpt lat="48.2032" lon="-0.13362">
        <ele>239.635</ele>
        <time>2016-06-01T19:29:46Z</time>
      </trkpt>
      <trkpt lat="48.2037" lon="-0.13208">
        <ele>237.616</ele>
        <time>2016-06-01T19:29:26Z</time>
      </trkpt>
      <trkpt lat="48.20429" lon="-0.13137">
        <ele>237.43</ele>
        <time>2016-06-01T19:29:06Z</time>
      </trkpt>
      <trkpt lat="48.20452" lon="-0.1309">
        <ele>232.748</ele>
        <time>2016-06-01T19:28:46Z</time>
      </trkpt>
      <trkpt lat="48.20503" lon="-0.13049">
        <ele>234.072</ele>
        <time>2016-06-01T19:28:26Z</time>
      </trkpt>
      <trkpt lat="48.20536" lon="-0.13051">
        <ele>236.329</ele>
        <time>2016-06-01T19:28:06Z</time>
      </trkpt>
      <trkpt lat="48.2058" lon="-0.13051">
        <ele>237.744</ele>
        <time>2016-06-01T19:27:46Z</time>
      </trkpt>
      <trkpt lat="48.20637" lon="-0.13047">
        <ele>234.968</ele>
        <time>2016-06-01T19:27:26Z</time>
      </trkpt>
      <trkpt lat="48.2069" lon="-0.13086">
        <ele>242.108</ele>
        <time>2016-06-01T19:27:06Z</time>
      </trkpt>
      <trkpt lat="48.20715" lon="-0.13133">
        <ele>242.914</ele>
        <time>2016-06-01T19:26:46Z</time>
      </trkpt>
      <trkpt lat="48.20746" lon="-0.13152">
        <ele>244.804</ele>
        <time>2016-06-01T19:26:26Z</time>
      </trkpt>
      <trkpt lat="48.20786" lon="-0.13197">
        <ele>245.324</ele>
        <time>2016-06-01T19:26:06Z</time>
      </trkpt>
      <trkpt lat="48.20853" lon="-0.13292">
        <ele>245.685</ele>
        <time>2016-06-01T19:25:46Z</time>
      </trkpt>
      <trkpt lat="48.20896" lon="-0.13354">
        <ele>242.516</ele>
        <time>2016-06-01T19:25:26Z</time>
      </trkpt>
      <trkpt lat="48.20895" lon="-0.13382">
        <ele>242.23</ele>
        <time>2016-06-01T19:25:06Z</time>
      </trkpt>
      <trkpt lat="48.20995" lon="-0.13403">
        <ele>231.628</ele>
        <time>2016-06-01T19:24:46Z</time>
      </trkpt>
      <trkpt lat="48.21041" lon="-0.13371">
        <ele>229.042</ele>
        <time>2016-06-01T19:24:26Z</time>
      </trkpt>
      <trkpt lat="48.21115" lon="-0.1333">
        <ele>229.129</ele>
        <time>2016-06-01T19:24:06Z</time>
      </trkpt>
      <trkpt lat="48.21222" lon="-0.1327">
        <ele>234.714</ele>
        <time>2016-06-01T19:23:46Z</time>
      </trkpt>
      <trkpt lat="48.21277" lon="-0.13223">
        <ele>237.058</ele>
        <time>2016-06-01T19:23:26Z</time>
      </trkpt>
      <trkpt lat="48.2129" lon="-0.13214">
        <ele>238.608</ele>
        <time>2016-06-01T19:23:06Z</time>
      </trkpt>
      <trkpt lat="48.213" lon="-0.1312">
        <ele>236.014</ele>
        <time>2016-06-01T19:22:46Z</time>
      </trkpt>
      <trkpt lat="48.21414" lon="-0.13201">
        <ele>244.704</ele>
        <time>2016-06-01T19:22:26Z</time>
      </trkpt>
      <trkpt lat="48.21676" lon="-0.12317">
        <ele>244.324</ele>
        <time>2016-06-01T19:22:06Z</time>
      </trkpt>
      <trkpt lat="48.21601" lon="-0.12277">
        <ele>244.219</ele>
        <time>2016-06-01T19:21:46Z</time>
      </trkpt>
      <trkpt lat="48.21608" lon="-0.1227">
        <ele>244.27</ele>
        <time>2016-06-01T19:21:26Z</time>
      </trkpt>
      <trkpt lat="48.21876" lon="-0.11867">
        <ele>241.664</ele>
        <time>2016-06-01T19:21:06Z</time>
      </trkpt>
      <trkpt lat="48.21889" lon="-0.11867">
        <ele>242.082</ele>
        <time>2016-06-01T19:20:46Z</time>
      </trkpt>
      <trkpt lat="48.21903" lon="-0.11847">
        <ele>242.366</ele>
        <time>2016-06-01T19:20:26Z</time>
      </trkpt>
      <trkpt lat="48.22007" lon="-0.11774">
        <ele>245.873</ele>
        <time>2016-06-01T19:20:06Z</time>
      </trkpt>
      <trkpt lat="48.2203" lon="-0.11744">
        <ele>244.968</ele>
        <time>2016-06-01T19:19:46Z</time>
      </trkpt>
      <trkpt lat="48.22063" lon="-0.11725">
        <ele>244.022</ele>
        <time>2016-06-01T19:19:26Z</time>
      </trkpt>
      <trkpt lat="48.221" lon="-0.11669">
        <ele>242.108</ele>
        <time>2016-06-01T19:19:06Z</time>
      </trkpt>
      <trkpt lat="48.22146" lon="-0.11599">
        <ele>241.313</ele>
        <time>2016-06-01T19:18:46Z</time>
      </trkpt>
      <trkpt lat="48.22166" lon="-0.11564">
        <ele>239.321</ele>
        <time>2016-06-01T19:18:26Z</time>
      </trkpt>
      <trkpt lat="48.22172" lon="-0.11493">
        <ele>234.361</ele>
        <time>2016-06-01T19:18:06Z</time>
      </trkpt>
      <trkpt lat="48.22187" lon="-0.11472">
        <ele>231.599</ele>
        <time>2016-06-01T19:17:46Z</time>
      </trkpt>
      <trkpt lat="48.22196" lon="-0.11427">
        <ele>228.16</ele>
        <time>2016-06-01T19:17:26Z</time>
      </trkpt>
      <trkpt lat="48.22237" lon="-0.11317">
        <ele>220.474</ele>
        <time>2016-06-01T19:17:06Z</time>
      </trkpt>
      <trkpt lat="48.22205" lon="-0.11277">
        <ele>223.292</ele>
        <time>2016-06-01T19:16:46Z</time>
      </trkpt>
      <trkpt lat="48.22072" lon="-0.11159">
        <ele>222.466</ele>
        <time>2016-06-01T19:16:26Z</time>
      </trkpt>
      <trkpt lat="48.22013" lon="-0.11099">
        <ele>213.943</ele>
        <time>2016-06-01T19:16:06Z</time>
      </trkpt>
      <trkpt lat="48.21986" lon="-0.11056">
        <ele>212.568</ele>
        <time>2016-06-01T19:15:46Z</time>
      </trkpt>
      <trkpt lat="48.2193" lon="-0.1103">
        <ele>213.972</ele>
        <time>2016-06-01T19:15:26Z</time>
      </trkpt>
      <trkpt lat="48.21984" lon="-0.10948">
        <ele>213.708</ele>
        <time>2016-06-01T19:15:06Z</time>
      </trkpt>
      <trkpt lat="48.22053" lon="-0.10847">
        <ele>209.321</ele>
        <time>2016-06-01T19:14:46Z</time>
      </trkpt>
      <trkpt lat="48.22094" lon="-0.10826">
        <ele>206.929</ele>
        <time>2016-06-01T19:14:26Z</time>
      </trkpt>
      <trkpt lat="48.22116" lon="-0.10822">
        <ele>205.966</ele>
        <time>2016-06-01T19:14:06Z</time>
      </trkpt>
      <trkpt lat="48.22207" lon="-0.1082">
        <ele>201.364</ele>
        <time>2016-06-01T19:13:46Z</time>
      </trkpt>
      <trkpt lat="48.22376" lon="-0.10931">
        <ele>209.935</ele>
        <time>2016-06-01T19:13:26Z</time>
      </trkpt>
      <trkpt lat="48.22386" lon="-0.10908">
        <ele>215.819</ele>
        <time>2016-06-01T19:13:06Z</time>
      </trkpt>
      <trkpt lat="48.2245" lon="-0.10665">
        <ele>237.537</ele>
        <time>2016-06-01T19:12:46Z</time>
      </trkpt>
      <trkpt lat="48.22668" lon="-0.10807">
        <ele>230.091</ele>
        <time>2016-06-01T19:12:26Z</time>
      </trkpt>
      <trkpt lat="48.22693" lon="-0.10817">
        <ele>229.658</ele>
        <time>2016-06-01T19:12:06Z</time>
      </trkpt>
      <trkpt lat="48.22989" lon="-0.11006">
        <ele>194.473</ele>
        <time>2016-06-01T19:11:46Z</time>
      </trkpt>
      <trkpt lat="48.23034" lon="-0.10858">
        <ele>190.637</ele>
        <time>2016-06-01T19:11:26Z</time>
      </trkpt>
      <trkpt lat="48.23179" lon="-0.10865">
        <ele>171.408</ele>
        <time>2016-06-01T19:11:06Z</time>
      </trkpt>
      <trkpt lat="48.23254" lon="-0.10912">
        <ele>165.211</ele>
        <time>2016-06-01T19:10:46Z</time>
      </trkpt>
      <trkpt lat="48.23285" lon="-0.10961">
        <ele>161.065</ele>
        <time>2016-06-01T19:10:26Z</time>
      </trkpt>
      <trkpt lat="48.23321" lon="-0.11013">
        <ele>153.115</ele>
        <time>2016-06-01T19:10:06Z</time>
      </trkpt>
      <trkpt lat="48.23352" lon="-0.11034">
        <ele>149.694</ele>
        <time>2016-06-01T19:09:46Z</time>
      </trkpt>
      <trkpt lat="48.23397" lon="-0.11075">
        <ele>149.595</ele>
        <time>2016-06-01T19:09:26Z</time>
      </trkpt>
      <trkpt lat="48.23454" lon="-0.11135">
        <ele>151.239</ele>
        <time>2016-06-01T19:09:06Z</time>
      </trkpt>
      <trkpt lat="48.2343" lon="-0.11195">
        <ele>153.047</ele>
        <time>2016-06-01T19:08:46Z</time>
      </trkpt>
      <trkpt lat="48.23468" lon="-0.11195">
        <ele>153.011</ele>
        <time>2016-06-01T19:08:26Z</time>
      </trkpt>
      <trkpt lat="48.23517" lon="-0.11232">
        <ele>156.338</ele>
        <time>2016-06-01T19:08:06Z</time>
      </trkpt>
      <trkpt lat="48.23547" lon="-0.11223">
        <ele>158.473</ele>
        <time>2016-06-01T19:07:46Z</time>
      </trkpt>
      <trkpt lat="48.23564" lon="-0.11206">
        <ele>158.977</ele>
        <time>2016-06-01T19:07:26Z</time>
      </trkpt>
      <trkpt lat="48.23593" lon="-0.11253">
        <ele>162.208</ele>
        <time>2016-06-01T19:07:06Z</time>
      </trkpt>
      <trkpt lat="48.23644" lon="-0.11315">
        <ele>168.203</ele>
        <time>2016-06-01T19:06:46Z</time>
      </trkpt>
      <trkpt lat="48.23654" lon="-0.11345">
        <ele>168.821</ele>
        <time>2016-06-01T19:06:26Z</time>
      </trkpt>
      <trkpt lat="48.23717" lon="-0.11438">
        <ele>177.911</ele>
        <time>2016-06-01T19:06:06Z</time>
      </trkpt>
      <trkpt lat="48.23765" lon="-0.11472">
        <ele>182.134</ele>
        <time>2016-06-01T19:05:46Z</time>
      </trkpt>
      <trkpt lat="48.23815" lon="-0.11493">
        <ele>186.885</ele>
        <time>2016-06-01T19:05:26Z</time>
      </trkpt>
      <trkpt lat="48.23853" lon="-0.11528">
        <ele>187.739</ele>
        <time>2016-06-01T19:05:06Z</time>
      </trkpt>
      <trkpt lat="48.2391" lon="-0.11586">
        <ele>194.477</ele>
        <time>2016-06-01T19:04:46Z</time>
      </trkpt>
      <trkpt lat="48.2397" lon="-0.11622">
        <ele>201.641</ele>
        <time>2016-06-01T19:04:26Z</time>
      </trkpt>
      <trkpt lat="48.23993" lon="-0.11592">
        <ele>204.538</ele>
        <time>2016-06-01T19:04:06Z</time>
      </trkpt>
      <trkpt lat="48.24041" lon="-0.11549">
        <ele>213.433</ele>
        <time>2016-06-01T19:03:46Z</time>
      </trkpt>
      <trkpt lat="48.24086" lon="-0.11476">
        <ele>218.427</ele>
        <time>2016-06-01T19:03:26Z</time>
      </trkpt>
      <trkpt lat="48.24124" lon="-0.11354">
        <ele>223.708</ele>
        <time>2016-06-01T19:03:06Z</time>
      </trkpt>
      <trkpt lat="48.24144" lon="-0.11292">
        <ele>221.203</ele>
        <time>2016-06-01T19:02:46Z</time>
      </trkpt>
      <trkpt lat="48.24178" lon="-0.11197">
        <ele>218.521</ele>
        <time>2016-06-01T19:02:26Z</time>
      </trkpt>
      <trkpt lat="48.24207" lon="-0.11105">
        <ele>218.811</ele>
        <time>2016-06-01T19:02:06Z</time>
      </trkpt>
      <trkpt lat="48.24224" lon="-0.11066">
        <ele>217.588</ele>
        <time>2016-06-01T19:01:46Z</time>
      </trkpt>
      <trkpt lat="48.24257" lon="-0.11032">
        <ele>217.429</ele>
        <time>2016-06-01T19:01:26Z</time>
      </trkpt>
      <trkpt lat="48.2426" lon="-0.11019">
        <ele>217.033</ele>
        <time>2016-06-01T19:01:06Z</time>
      </trkpt>
      <trkpt lat="48.2426" lon="-0.10955">
        <ele>214.821</ele>
        <time>2016-06-01T19:00:46Z</time>
      </trkpt>
      <trkpt lat="48.24268" lon="-0.10905">
        <ele>215.275</ele>
        <time>2016-06-01T19:00:26Z</time>
      </trkpt>
      <trkpt lat="48.24286" lon="-0.10867">
        <ele>214.262</ele>
        <time>2016-06-01T19:00:06Z</time>
      </trkpt>
      <trkpt lat="48.24317" lon="-0.10817">
        <ele>212.797</ele>
        <time>2016-06-01T18:59:46Z</time>
      </trkpt>
      <trkpt lat="48.2434" lon="-0.10772">
        <ele>212.061</ele>
        <time>2016-06-01T18:59:26Z</time>
      </trkpt>
      <trkpt lat="48.24359" lon="-0.10762">
        <ele>211.808</ele>
        <time>2016-06-01T18:59:06Z</time>
      </trkpt>
      <trkpt lat="48.24389" lon="-0.10802">
        <ele>212.92</ele>
        <time>2016-06-01T18:58:46Z</time>
      </trkpt>
      <trkpt lat="48.24411" lon="-0.10805">
        <ele>212.2</ele>
        <time>2016-06-01T18:58:26Z</time>
      </trkpt>
      <trkpt lat="48.24427" lon="-0.10828">
        <ele>211.257</ele>
        <time>2016-06-01T18:58:06Z</time>
      </trkpt>
      <trkpt lat="48.24444" lon="-0.10861">
        <ele>208.928</ele>
        <time>2020-12-24T05:19:15Z</time>
      </trkpt>
      <trkpt lat="48.24474" lon="-0.10898">
        <ele>206.139</ele>
        <time>2020-12-24T05:18:55Z</time>
      </trkpt>
      <trkpt lat="48.24515" lon="-0.10756">
        <ele>201.593</ele>
        <time>2020-12-24T05:18:35Z</time>
      </trkpt>
      <trkpt lat="48.24532" lon="-0.10746">
        <ele>200.781</ele>
        <time>2020-12-24T05:18:15Z</time>
      </trkpt>
      <trkpt lat="48.24557" lon="-0.10639">
        <ele>196.625</ele>
        <time>2020-12-24T05:17:55Z</time>
      </trkpt>
      <trkpt lat="48.24642" lon="-0.10671">
        <ele>197.452</ele>
        <time>2020-12-24T05:17:35Z</time>
      </trkpt>
      <trkpt lat="48.2467" lon="-0.10713">
        <ele>197.927</ele>
        <time>2020-12-24T05:17:15Z</time>
      </trkpt>
      <trkpt lat="48.24665" lon="-0.10802">
        <ele>200.351</ele>
        <time>2020-12-24T05:16:55Z</time>
      </trkpt>
      <trkpt lat="48.24641" lon="-0.10832">
        <ele>201.308</ele>
        <time>2020-12-24T05:16:35Z</time>
      </trkpt>
      <trkpt lat="48.24613" lon="-0.10935">
        <ele>202.617</ele>
        <time>2020-12-24T05:16:15Z</time>
      </trkpt>
      <trkpt lat="48.24558" lon="-0.11167">
        <ele>201.607</ele>
        <time>2020-12-24T05:15:55Z</time>
      </trkpt>
      <trkpt lat="48.24575" lon="-0.11307">
        <ele>195.655</ele>
        <time>2020-12-24T05:15:35Z</time>
      </trkpt>
      <trkpt lat="48.24752" lon="-0.11312">
        <ele>189.32</ele>
        <time>2020-12-24T05:15:15Z</time>
      </trkpt>
      <trkpt lat="48.24883" lon="-0.11305">
        <ele>190.071</ele>
        <time>2020-12-24T05:14:55Z</time>
      </trkpt>
      <trkpt lat="48.25036" lon="-0.1128">
        <ele>186.365</ele>
        <time>2020-12-24T05:14:35Z</time>
      </trkpt>
      <trkpt lat="48.25065" lon="-0.11221">
        <ele>184.013</ele>
        <time>2016-06-01T23:10:35Z</time>
      </trkpt>
      <trkpt lat="48.25132" lon="-0.11277">
        <ele>183.017</ele>
        <time>2016-06-01T23:10:15Z</time>
      </trkpt>
      <trkpt lat="48.25198" lon="-0.11386">
        <ele>178.734</ele>
        <time>2016-06-01T23:09:55Z</time>
      </trkpt>
      <trkpt lat="48.25233" lon="-0.11384">
        <ele>176.149</ele>
        <time>2016-06-01T23:09:35Z</time>
      </trkpt>
      <trkpt lat="48.25259" lon="-0.11399">
        <ele>174.153</ele>
        <time>2016-06-01T23:09:15Z</time>
      </trkpt>
      <trkpt lat="48.25358" lon="-0.1147">
        <ele>166.008</ele>
        <time>2016-06-01T23:08:55Z</time>
      </trkpt>
      <trkpt lat="48.254" lon="-0.11464">
        <ele>164.619</ele>
        <time>2016-06-01T23:08:35Z</time>
      </trkpt>
      <trkpt lat="48.2543" lon="-0.11472">
        <ele>163.09</ele>
        <time>2016-06-01T23:08:15Z</time>
      </trkpt>
      <trkpt lat="48.25476" lon="-0.11483">
        <ele>162.876</ele>
        <time>2016-06-01T23:07:55Z</time>
      </trkpt>
      <trkpt lat="48.25509" lon="-0.11498">
        <ele>162.185</ele>
        <time>2016-06-01T23:07:35Z</time>
      </trkpt>
      <trkpt lat="48.2561" lon="-0.11588">
        <ele>157.796</ele>
        <time>2016-06-01T23:07:15Z</time>
      </trkpt>
      <trkpt lat="48.25775" lon="-0.11783">
        <ele>141.77</ele>
        <time>2016-06-01T23:06:55Z</time>
      </trkpt>
      <trkpt lat="48.25819" lon="-0.11807">
        <ele>133.098</ele>
        <time>2016-06-01T23:06:35Z</time>
      </trkpt>
      <trkpt lat="48.25848" lon="-0.11775">
        <ele>127.842</ele>
        <time>2016-06-01T23:06:15Z</time>
      </trkpt>
      <trkpt lat="48.25852" lon="-0.11736">
        <ele>126.389</ele>
        <time>2016-06-01T23:05:55Z</time>
      </trkpt>
      <trkpt lat="48.25902" lon="-0.11652">
        <ele>118.414</ele>
        <time>2016-06-01T23:05:35Z</time>
      </trkpt>
      <trkpt lat="48.25925" lon="-0.11646">
        <ele>112.758</ele>
        <time>2016-06-01T23:05:15Z</time>
      </trkpt>
      <trkpt lat="48.2594" lon="-0.11687">
        <ele>110.408</ele>
        <time>2016-06-01T23:04:55Z</time>
      </trkpt>
      <trkpt lat="48.25985" lon="-0.11708">
        <ele>112.808</ele>
        <time>2016-06-01T23:04:35Z</time>
      </trkpt>
      <trkpt lat="48.25978" lon="-0.11755">
        <ele>112.362</ele>
        <time>2016-06-01T23:04:15Z</time>
      </trkpt>
      <trkpt lat="48.25992" lon="-0.11841">
        <ele>117.622</ele>
        <time>2016-06-01T23:03:55Z</time>
      </trkpt>
      <trkpt lat="48.26005" lon="-0.11931">
        <ele>119.881</ele>
        <time>2016-06-01T23:03:35Z</time>
      </trkpt>
      <trkpt lat="48.25996" lon="-0.12004">
        <ele>121.022</ele>
        <time>2016-06-01T23:03:15Z</time>
      </trkpt>
      <trkpt lat="48.26" lon="-0.12116">
        <ele>119.166</ele>
        <time>2016-06-01T23:02:55Z</time>
      </trkpt>
      <trkpt lat="48.26015" lon="-0.1215">
        <ele>120.884</ele>
        <time>2016-06-01T23:02:35Z</time>
      </trkpt>
      <trkpt lat="48.26055" lon="-0.1217">
        <ele>123.998</ele>
        <time>2016-06-01T23:02:15Z</time>
      </trkpt>
      <trkpt lat="48.26108" lon="-0.1221">
        <ele>128.185</ele>
        <time>2016-06-01T23:01:55Z</time>
      </trkpt>
      <trkpt lat="48.26183" lon="-0.1227">
        <ele>139.18</ele>
        <time>2016-06-01T23:01:35Z</time>
      </trkpt>
      <trkpt lat="48.26216" lon="-0.12281">
        <ele>141.674</ele>
        <time>2016-06-01T23:01:15Z</time>
      </trkpt>
      <trkpt lat="48.26259" lon="-0.12266">
        <ele>145.008</ele>
        <time>2016-06-01T23:00:55Z</time>
      </trkpt>
      <trkpt lat="48.26336" lon="-0.12277">
        <ele>150.226</ele>
        <time>2016-06-01T23:00:35Z</time>
      </trkpt>
      <trkpt lat="48.26389" lon="-0.12322">
        <ele>150.842</ele>
        <time>2016-06-01T23:00:15Z</time>
      </trkpt>
      <trkpt lat="48.26436" lon="-0.12339">
        <ele>147.887</ele>
        <time>2016-06-01T22:59:55Z</time>
      </trkpt>
      <trkpt lat="48.26533" lon="-0.12279">
        <ele>148.77</ele>
        <time>2016-06-01T22:59:35Z</time>
      </trkpt>
      <trkpt lat="48.26553" lon="-0.12247">
        <ele>150.741</ele>
        <time>2016-06-01T22:59:15Z</time>
      </trkpt>
      <trkpt lat="48.26673" lon="-0.12009">
        <ele>155.565</ele>
        <time>2016-06-01T22:58:55Z</time>
      </trkpt>
      <trkpt lat="48.26887" lon="-0.11395">
        <ele>147.923</ele>
        <time>2016-06-01T22:58:35Z</time>
      </trkpt>
      <trkpt lat="48.26892" lon="-0.11403">
        <ele>148.177</ele>
        <time>2016-06-01T22:58:15Z</time>
      </trkpt>
      <trkpt lat="48.26903" lon="-0.11592">
        <ele>149.524</ele>
        <time>2016-06-01T22:57:55Z</time>
      </trkpt>
      <trkpt lat="48.2693" lon="-0.11631">
        <ele>153.879</ele>
        <time>2016-06-01T22:57:35Z</time>
      </trkpt>
      <trkpt lat="48.26955" lon="-0.11648">
        <ele>154.873</ele>
        <time>2016-06-01T22:57:15Z</time>
      </trkpt>
      <trkpt lat="48.27015" lon="-0.11633">
        <ele>158.008</ele>
        <time>2016-06-01T22:56:55Z</time>
      </trkpt>
      <trkpt lat="48.27235" lon="-0.11577">
        <ele>176.413</ele>
        <time>2016-06-01T22:56:35Z</time>
      </trkpt>
      <trkpt lat="48.2725" lon="-0.11556">
        <ele>177.085</ele>
        <time>2016-06-01T22:56:15Z</time>
      </trkpt>
      <trkpt lat="48.2726" lon="-0.11474">
        <ele>177.473</ele>
        <time>2016-06-01T22:55:55Z</time>
      </trkpt>
      <trkpt lat="48.27289" lon="-0.1135">
        <ele>175.042</ele>
        <time>2016-06-01T22:55:35Z</time>
      </trkpt>
      <trkpt lat="48.27309" lon="-0.11341">
        <ele>175.063</ele>
        <time>2016-06-01T22:55:15Z</time>
      </trkpt>
      <trkpt lat="48.27373" lon="-0.1135">
        <ele>176.277</ele>
        <time>2016-06-01T22:54:55Z</time>
      </trkpt>
      <trkpt lat="48.27404" lon="-0.11346">
        <ele>174.685</ele>
        <time>2016-06-01T22:54:35Z</time>
      </trkpt>
      <trkpt lat="48.27552" lon="-0.11266">
        <ele>170.749</ele>
        <time>2016-06-01T22:54:15Z</time>
      </trkpt>
      <trkpt lat="48.27576" lon="-0.1126">
        <ele>169.986</ele>
        <time>2016-06-01T22:53:55Z</time>
      </trkpt>
      <trkpt lat="48.27684" lon="-0.11208">
        <ele>168.081</ele>
        <time>2016-06-01T22:53:35Z</time>
      </trkpt>
      <trkpt lat="48.27694" lon="-0.11182">
        <ele>168.495</ele>
        <time>2016-06-01T22:53:15Z</time>
      </trkpt>
      <trkpt lat="48.27703" lon="-0.11131">
        <ele>169.208</ele>
        <time>2016-06-01T22:52:55Z</time>
      </trkpt>
      <trkpt lat="48.2769" lon="-0.11122">
        <ele>169.726</ele>
        <time>2016-06-01T22:52:35Z</time>
      </trkpt>
      <trkpt lat="48.27724" lon="-0.10979">
        <ele>169.815</ele>
        <time>2016-06-01T22:52:15Z</time>
      </trkpt>
      <trkpt lat="48.27827" lon="-0.1068">
        <ele>168.698</ele>
        <time>2016-06-01T22:51:55Z</time>
      </trkpt>
      <trkpt lat="48.2785" lon="-0.10648">
        <ele>167.671</ele>
        <time>2016-06-01T22:51:35Z</time>
      </trkpt>
      <trkpt lat="48.27864" lon="-0.10652">
        <ele>167.332</ele>
        <time>2016-06-01T22:51:15Z</time>
      </trkpt>
      <trkpt lat="48.27904" lon="-0.10745">
        <ele>167.136</ele>
        <time>2016-06-01T22:50:55Z</time>
      </trkpt>
      <trkpt lat="48.27919" lon="-0.10762">
        <ele>167.354</ele>
        <time>2016-06-01T22:50:35Z</time>
      </trkpt>
      <trkpt lat="48.2796" lon="-0.10803">
        <ele>165.838</ele>
        <time>2016-06-01T22:50:15Z</time>
      </trkpt>
      <trkpt lat="48.28086" lon="-0.10916">
        <ele>164.095</ele>
        <time>2016-06-01T22:49:55Z</time>
      </trkpt>
      <trkpt lat="48.28137" lon="-0.11">
        <ele>163.11</ele>
        <time>2016-06-01T22:49:35Z</time>
      </trkpt>
      <trkpt lat="48.28228" lon="-0.11341">
        <ele>141.894</ele>
        <time>2016-06-01T22:49:15Z</time>
      </trkpt>
      <trkpt lat="48.28268" lon="-0.11341">
        <ele>138.608</ele>
        <time>2016-06-01T22:48:55Z</time>
      </trkpt>
      <trkpt lat="48.28364" lon="-0.11339">
        <ele>137.017</ele>
        <time>2016-06-01T22:48:35Z</time>
      </trkpt>
      <trkpt lat="48.28513" lon="-0.11419">
        <ele>136.007</ele>
        <time>2016-06-01T22:48:15Z</time>
      </trkpt>
      <trkpt lat="48.28735" lon="-0.11386">
        <ele>130.184</ele>
        <time>2016-06-01T22:47:55Z</time>
      </trkpt>
      <trkpt lat="48.288" lon="-0.11399">
        <ele>122.919</ele>
        <time>2016-06-01T22:47:35Z</time>
      </trkpt>
      <trkpt lat="48.28901" lon="-0.11352">
        <ele>106.67</ele>
        <time>2016-06-01T22:47:15Z</time>
      </trkpt>
      <trkpt lat="48.28932" lon="-0.11361">
        <ele>101.844</ele>
        <time>2016-06-01T22:46:55Z</time>
      </trkpt>
      <trkpt lat="48.28955" lon="-0.11313">
        <ele>99.412</ele>
        <time>2016-06-01T22:46:35Z</time>
      </trkpt>
      <trkpt lat="48.28998" lon="-0.11268">
        <ele>99.376</ele>
        <time>2016-06-01T22:46:15Z</time>
      </trkpt>
      <trkpt lat="48.29049" lon="-0.11223">
        <ele>106.923</ele>
        <time>2016-06-01T22:45:55Z</time>
      </trkpt>
      <trkpt lat="48.29038" lon="-0.11131">
        <ele>104.258</ele>
        <time>2016-06-01T22:45:35Z</time>
      </trkpt>
      <trkpt lat="48.29032" lon="-0.11007">
        <ele>105.562</ele>
        <time>2016-06-01T22:45:15Z</time>
      </trkpt>
      <trkpt lat="48.28999" lon="-0.1091">
        <ele>104.108</ele>
        <time>2016-06-01T22:44:55Z</time>
      </trkpt>
      <trkpt lat="48.29001" lon="-0.10816">
        <ele>102.514</ele>
        <time>2016-06-01T22:44:35Z</time>
      </trkpt>
      <trkpt lat="48.29009" lon="-0.1073">
        <ele>103.468</ele>
        <time>2016-06-01T22:44:15Z</time>
      </trkpt>
      <trkpt lat="48.29047" lon="-0.10652">
        <ele>103.065</ele>
        <time>2016-06-01T22:43:55Z</time>
      </trkpt>
      <trkpt lat="48.29094" lon="-0.10595">
        <ele>106.019</ele>
        <time>2016-06-01T22:43:35Z</time>
      </trkpt>
      <trkpt lat="48.29117" lon="-0.10526">
        <ele>103.94</ele>
        <time>2016-06-01T22:43:15Z</time>
      </trkpt>
      <trkpt lat="48.29145" lon="-0.10483">
        <ele>104.844</ele>
        <time>2016-06-01T22:42:55Z</time>
      </trkpt>
      <trkpt lat="48.29162" lon="-0.1041">
        <ele>104.142</ele>
        <time>2016-06-01T22:42:35Z</time>
      </trkpt>
      <trkpt lat="48.29209" lon="-0.10328">
        <ele>105.096</ele>
        <time>2016-06-01T22:42:15Z</time>
      </trkpt>
      <trkpt lat="48.29226" lon="-0.10296">
        <ele>107.833</ele>
        <time>2016-06-01T22:41:55Z</time>
      </trkpt>
      <trkpt lat="48.29236" lon="-0.10204">
        <ele>107.188</ele>
        <time>2016-06-01T22:41:35Z</time>
      </trkpt>
      <trkpt lat="48.29236" lon="-0.10114">
        <ele>102.342</ele>
        <time>2016-06-01T22:41:15Z</time>
      </trkpt>
      <trkpt lat="48.29276" lon="-0.10047">
        <ele>102.908</ele>
        <time>2016-06-01T22:40:55Z</time>
      </trkpt>
      <trkpt lat="48.29321" lon="-0.09985">
        <ele>104.111</ele>
        <time>2016-06-01T22:40:35Z</time>
      </trkpt>
      <trkpt lat="48.29348" lon="-0.09972">
        <ele>105.683</ele>
        <time>2016-06-01T22:40:15Z</time>
      </trkpt>
      <trkpt lat="48.29448" lon="-0.09749">
        <ele>104.762</ele>
        <time>2016-06-01T22:39:55Z</time>
      </trkpt>
      <trkpt lat="48.29478" lon="-0.09771">
        <ele>115.044</ele>
        <time>2016-06-01T22:39:35Z</time>
      </trkpt>
      <trkpt lat="48.29495" lon="-0.09777">
        <ele>119.015</ele>
        <time>2016-06-01T22:39:15Z</time>
      </trkpt>
      <trkpt lat="48.29509" lon="-0.09771">
        <ele>120.169</ele>
        <time>2016-06-01T22:38:55Z</time>
      </trkpt>
      <trkpt lat="48.29749" lon="-0.09985">
        <ele>138.467</ele>
        <time>2016-06-01T22:38:35Z</time>
      </trkpt>
      <trkpt lat="48.29753" lon="-0.1005">
        <ele>141.031</ele>
        <time>2016-06-01T22:38:15Z</time>
      </trkpt>
      <trkpt lat="48.2975" lon="-0.10101">
        <ele>143.778</ele>
        <time>2016-06-01T22:37:55Z</time>
      </trkpt>
      <trkpt lat="48.29762" lon="-0.10114">
        <ele>144.563</ele>
        <time>2016-06-01T22:37:35Z</time>
      </trkpt>
      <trkpt lat="48.29792" lon="-0.10283">
        <ele>148.677</ele>
        <time>2016-06-01T22:37:15Z</time>
      </trkpt>
      <trkpt lat="48.29809" lon="-0.10453">
        <ele>152.508</ele>
        <time>2016-06-01T22:36:55Z</time>
      </trkpt>
      <trkpt lat="48.29738" lon="-0.1059">
        <ele>149.311</ele>
        <time>2016-06-01T22:36:35Z</time>
      </trkpt>
      <trkpt lat="48.29716" lon="-0.10601">
        <ele>147.865</ele>
        <time>2016-06-01T22:36:15Z</time>
      </trkpt>
      <trkpt lat="48.29678" lon="-0.10648">
        <ele>145.415</ele>
        <time>2016-06-01T22:35:55Z</time>
      </trkpt>
      <trkpt lat="48.29832" lon="-0.1106">
        <ele>142.958</ele>
        <time>2016-06-01T22:35:35Z</time>
      </trkpt>
      <trkpt lat="48.29839" lon="-0.11131">
        <ele>144.289</ele>
        <time>2016-06-01T22:35:15Z</time>
      </trkpt>
      <trkpt lat="48.29863" lon="-0.11384">
        <ele>147.263</ele>
        <time>2016-06-01T22:34:55Z</time>
      </trkpt>
      <trkpt lat="48.29853" lon="-0.1147">
        <ele>147.371</ele>
        <time>2016-06-01T22:34:35Z</time>
      </trkpt>
      <trkpt lat="48.29937" lon="-0.11504">
        <ele>146.625</ele>
        <time>2016-06-01T22:34:15Z</time>
      </trkpt>
      <trkpt lat="48.30034" lon="-0.11586">
        <ele>138.662</ele>
        <time>2016-06-01T22:33:55Z</time>
      </trkpt>
      <trkpt lat="48.30063" lon="-0.11655">
        <ele>136.987</ele>
        <time>2016-06-01T22:33:35Z</time>
      </trkpt>
      <trkpt lat="48.3012" lon="-0.11558">
        <ele>138.161</ele>
        <time>2016-06-01T22:33:15Z</time>
      </trkpt>
      <trkpt lat="48.30122" lon="-0.11567">
        <ele>138.208</ele>
        <time>2016-06-01T22:32:55Z</time>
      </trkpt>
      <trkpt lat="48.30179" lon="-0.1165">
        <ele>139.408</ele>
        <time>2016-06-01T22:32:35Z</time>
      </trkpt>
      <trkpt lat="48.30233" lon="-0.11567">
        <ele>140.453</ele>
        <time>2016-06-01T22:32:15Z</time>
      </trkpt>
      <trkpt lat="48.30266" lon="-0.11464">
        <ele>141.752</ele>
        <time>2016-06-01T22:31:55Z</time>
      </trkpt>
      <trkpt lat="48.30287" lon="-0.11414">
        <ele>143.095</ele>
        <time>2016-06-01T22:31:35Z</time>
      </trkpt>
      <trkpt lat="48.30326" lon="-0.1138">
        <ele>141.556</ele>
        <time>2016-06-01T22:31:15Z</time>
      </trkpt>
      <trkpt lat="48.30343" lon="-0.11421">
        <ele>142.03</ele>
        <time>2016-06-01T22:30:55Z</time>
      </trkpt>
      <trkpt lat="48.30387" lon="-0.11348">
        <ele>140.548</ele>
        <time>2016-06-01T22:30:35Z</time>
      </trkpt>
      <trkpt lat="48.30378" lon="-0.11258">
        <ele>139.442</ele>
        <time>2016-06-01T22:30:15Z</time>
      </trkpt>
      <trkpt lat="48.30386" lon="-0.11238">
        <ele>138.779</ele>
        <time>2016-06-01T22:29:55Z</time>
      </trkpt>
      <trkpt lat="48.30871" lon="-0.11337">
        <ele>123.114</ele>
        <time>2016-06-01T22:29:35Z</time>
      </trkpt>
      <trkpt lat="48.30878" lon="-0.11258">
        <ele>123.318</ele>
        <time>2016-06-01T22:29:15Z</time>
      </trkpt>
      <trkpt lat="48.30909" lon="-0.11167">
        <ele>121.508</ele>
        <time>2016-06-01T22:28:55Z</time>
      </trkpt>
      <trkpt lat="48.30929" lon="-0.11152">
        <ele>121.105</ele>
        <time>2016-06-01T22:28:35Z</time>
      </trkpt>
      <trkpt lat="48.30945" lon="-0.11097">
        <ele>121.041</ele>
        <time>2016-06-01T22:28:15Z</time>
      </trkpt>
      <trkpt lat="48.30952" lon="-0.1109">
        <ele>120.421</ele>
        <time>2016-06-01T22:27:55Z</time>
      </trkpt>
      <trkpt lat="48.31074" lon="-0.11223">
        <ele>121.687</ele>
        <time>2016-06-01T22:27:35Z</time>
      </trkpt>
      <trkpt lat="48.31146" lon="-0.11206">
        <ele>121.328</ele>
        <time>2016-06-01T22:27:15Z</time>
      </trkpt>
      <trkpt lat="48.31135" lon="-0.11152">
        <ele>120.382</ele>
        <time>2016-06-01T22:26:55Z</time>
      </trkpt>
      <trkpt lat="48.31166" lon="-0.11142">
        <ele>121.03</ele>
        <time>2016-06-01T22:26:35Z</time>
      </trkpt>
      <trkpt lat="48.31245" lon="-0.11084">
        <ele>118.214</ele>
        <time>2016-06-01T22:26:15Z</time>
      </trkpt>
      <trkpt lat="48.31298" lon="-0.11071">
        <ele>117.031</ele>
        <time>2016-06-01T22:25:55Z</time>
      </trkpt>
      <trkpt lat="48.31319" lon="-0.11026">
        <ele>117.036</ele>
        <time>2016-06-01T22:25:35Z</time>
      </trkpt>
      <trkpt lat="48.3139" lon="-0.10974">
        <ele>112.01</ele>
        <time>2016-06-01T22:25:15Z</time>
      </trkpt>
      <trkpt lat="48.3141" lon="-0.10927">
        <ele>111.108</ele>
        <time>2016-06-01T22:24:55Z</time>
      </trkpt>
      <trkpt lat="48.31443" lon="-0.10891">
        <ele>111.022</ele>
        <time>2016-06-01T22:24:35Z</time>
      </trkpt>
      <trkpt lat="48.31456" lon="-0.10861">
        <ele>111.602</ele>
        <time>2016-06-01T22:24:15Z</time>
      </trkpt>
      <trkpt lat="48.31496" lon="-0.10867">
        <ele>110.549</ele>
        <time>2016-06-01T22:23:55Z</time>
      </trkpt>
      <trkpt lat="48.31776" lon="-0.10809">
        <ele>109.126</ele>
        <time>2016-06-01T22:23:35Z</time>
      </trkpt>
      <trkpt lat="48.31818" lon="-0.10762">
        <ele>106.047</ele>
        <time>2016-06-01T22:23:15Z</time>
      </trkpt>
      <trkpt lat="48.31867" lon="-0.10723">
        <ele>101.061</ele>
        <time>2016-06-01T22:22:55Z</time>
      </trkpt>
      <trkpt lat="48.31968" lon="-0.10713">
        <ele>100.129</ele>
        <time>2016-06-01T22:22:35Z</time>
      </trkpt>
      <trkpt lat="48.31991" lon="-0.10736">
        <ele>99.773</ele>
        <time>2016-06-01T22:22:15Z</time>
      </trkpt>
      <trkpt lat="48.3202" lon="-0.1071">
        <ele>103.77</ele>
        <time>2016-06-01T22:21:55Z</time>
      </trkpt>
      <trkpt lat="48.32071" lon="-0.10749">
        <ele>110.445</ele>
        <time>2016-06-01T22:21:35Z</time>
      </trkpt>
      <trkpt lat="48.32101" lon="-0.10743">
        <ele>114.759</ele>
        <time>2016-06-01T22:21:15Z</time>
      </trkpt>
      <trkpt lat="48.32088" lon="-0.10691">
        <ele>112.208</ele>
        <time>2016-06-01T22:20:55Z</time>
      </trkpt>
      <trkpt lat="48.32172" lon="-0.10706">
        <ele>116.421</ele>
        <time>2016-06-01T22:20:35Z</time>
      </trkpt>
      <trkpt lat="48.32174" lon="-0.1062">
        <ele>111.201</ele>
        <time>2016-06-01T22:20:15Z</time>
      </trkpt>
      <trkpt lat="48.32188" lon="-0.10571">
        <ele>110.739</ele>
        <time>2016-06-01T22:19:55Z</time>
      </trkpt>
      <trkpt lat="48.32217" lon="-0.10564">
        <ele>111.396</ele>
        <time>2016-06-01T22:19:35Z</time>
      </trkpt>
      <trkpt lat="48.32288" lon="-0.10526">
        <ele>117.767</ele>
        <time>2016-06-01T22:19:15Z</time>
      </trkpt>
      <trkpt lat="48.32388" lon="-0.10522">
        <ele>125.231</ele>
        <time>2016-06-01T22:18:55Z</time>
      </trkpt>
      <trkpt lat="48.32471" lon="-0.10532">
        <ele>130.969</ele>
        <time>2016-06-01T22:18:35Z</time>
      </trkpt>
      <trkpt lat="48.32538" lon="-0.1053">
        <ele>135.833</ele>
        <time>2016-06-01T22:18:15Z</time>
      </trkpt>
      <trkpt lat="48.32536" lon="-0.10537">
        <ele>135.81</ele>
        <time>2016-06-01T22:17:55Z</time>
      </trkpt>
      <trkpt lat="48.32525" lon="-0.10655">
        <ele>131.915</ele>
        <time>2016-06-01T22:17:35Z</time>
      </trkpt>
      <trkpt lat="48.32486" lon="-0.10773">
        <ele>125.659</ele>
        <time>2016-06-01T22:17:15Z</time>
      </trkpt>
      <trkpt lat="48.32538" lon="-0.10792">
        <ele>127.908</ele>
        <time>2016-06-01T22:16:55Z</time>
      </trkpt>
      <trkpt lat="48.32573" lon="-0.10788">
        <ele>131.421</ele>
        <time>2016-06-01T22:16:35Z</time>
      </trkpt>
      <trkpt lat="48.32655" lon="-0.1077">
        <ele>137.701</ele>
        <time>2016-06-01T22:16:15Z</time>
      </trkpt>
      <trkpt lat="48.32764" lon="-0.10723">
        <ele>142.039</ele>
        <time>2016-06-01T22:15:55Z</time>
      </trkpt>
      <trkpt lat="48.32814" lon="-0.10667">
        <ele>145.731</ele>
        <time>2016-06-01T22:15:35Z</time>
      </trkpt>
      <trkpt lat="48.32844" lon="-0.10661">
        <ele>145.752</ele>
        <time>2016-06-01T22:15:15Z</time>
      </trkpt>
      <trkpt lat="48.32904" lon="-0.10633">
        <ele>151.326</ele>
        <time>2016-06-01T22:14:55Z</time>
      </trkpt>
      <trkpt lat="48.32936" lon="-0.10633">
        <ele>153.444</ele>
        <time>2016-06-01T22:14:35Z</time>
      </trkpt>
      <trkpt lat="48.32997" lon="-0.10648">
        <ele>158.028</ele>
        <time>2016-06-01T22:14:15Z</time>
      </trkpt>
      <trkpt lat="48.3309" lon="-0.10663">
        <ele>171.645</ele>
        <time>2016-06-01T22:13:55Z</time>
      </trkpt>
      <trkpt lat="48.33128" lon="-0.10687">
        <ele>176.07</ele>
        <time>2016-06-01T22:13:35Z</time>
      </trkpt>
      <trkpt lat="48.33144" lon="-0.10706">
        <ele>177.654</ele>
        <time>2016-06-01T22:13:15Z</time>
      </trkpt>
      <trkpt lat="48.33281" lon="-0.10655">
        <ele>188.508</ele>
        <time>2016-06-01T22:12:55Z</time>
      </trkpt>
      <trkpt lat="48.33366" lon="-0.10691">
        <ele>188.217</ele>
        <time>2016-06-01T22:12:35Z</time>
      </trkpt>
      <trkpt lat="48.33392" lon="-0.10736">
        <ele>191.207</ele>
        <time>2016-06-01T22:12:15Z</time>
      </trkpt>
      <trkpt lat="48.33432" lon="-0.10858">
        <ele>195.284</ele>
        <time>2016-06-01T22:11:55Z</time>
      </trkpt>
      <trkpt lat="48.33465" lon="-0.11019">
        <ele>201.092</ele>
        <time>2016-06-01T22:11:35Z</time>
      </trkpt>
      <trkpt lat="48.33488" lon="-0.11028">
        <ele>199.393</ele>
        <time>2016-06-01T22:11:15Z</time>
      </trkpt>
      <trkpt lat="48.33523" lon="-0.11071">
        <ele>201.277</ele>
        <time>2016-06-01T22:10:55Z</time>
      </trkpt>
      <trkpt lat="48.33546" lon="-0.11086">
        <ele>201.535</ele>
        <time>2016-06-01T22:10:35Z</time>
      </trkpt>
      <trkpt lat="48.33576" lon="-0.11077">
        <ele>201.539</ele>
        <time>2016-06-01T22:10:15Z</time>
      </trkpt>
      <trkpt lat="48.33612" lon="-0.1106">
        <ele>203.236</ele>
        <time>2016-06-01T22:09:55Z</time>
      </trkpt>
      <trkpt lat="48.33603" lon="-0.11007">
        <ele>202.551</ele>
        <time>2016-06-01T22:09:35Z</time>
      </trkpt>
      <trkpt lat="48.33585" lon="-0.10665">
        <ele>195.045</ele>
        <time>2016-06-01T22:09:15Z</time>
      </trkpt>
      <trkpt lat="48.33679" lon="-0.10667">
        <ele>198.908</ele>
        <time>2016-06-01T22:08:55Z</time>
      </trkpt>
      <trkpt lat="48.33722" lon="-0.107">
        <ele>202.126</ele>
        <time>2016-06-01T22:08:35Z</time>
      </trkpt>
      <trkpt lat="48.33789" lon="-0.1074">
        <ele>209.415</ele>
        <time>2016-06-01T22:08:15Z</time>
      </trkpt>
      <trkpt lat="48.33881" lon="-0.10764">
        <ele>217.698</ele>
        <time>2016-06-01T22:07:55Z</time>
      </trkpt>
      <trkpt lat="48.33973" lon="-0.10775">
        <ele>221.258</ele>
        <time>2016-06-01T22:07:35Z</time>
      </trkpt>
      <trkpt lat="48.34082" lon="-0.10762">
        <ele>227.139</ele>
        <time>2016-06-01T22:07:15Z</time>
      </trkpt>
      <trkpt lat="48.34152" lon="-0.10775">
        <ele>225.113</ele>
        <time>2016-06-01T22:06:55Z</time>
      </trkpt>
      <trkpt lat="48.34162" lon="-0.10755">
        <ele>225.151</ele>
        <time>2016-06-01T22:06:35Z</time>
      </trkpt>
      <trkpt lat="48.34199" lon="-0.1067">
        <ele>225.255</ele>
        <time>2016-06-01T22:06:15Z</time>
      </trkpt>
      <trkpt lat="48.34256" lon="-0.10601">
        <ele>227.932</ele>
        <time>2016-06-01T22:05:55Z</time>
      </trkpt>
      <trkpt lat="48.34311" lon="-0.10573">
        <ele>227.557</ele>
        <time>2016-06-01T22:05:35Z</time>
      </trkpt>
      <trkpt lat="48.34381" lon="-0.10543">
        <ele>225.191</ele>
        <time>2016-06-01T22:05:15Z</time>
      </trkpt>
      <trkpt lat="48.345" lon="-0.10504">
        <ele>220.008</ele>
        <time>2016-06-01T22:04:55Z</time>
      </trkpt>
      <trkpt lat="48.34381" lon="-0.10245">
        <ele>213.817</ele>
        <time>2016-06-01T22:04:35Z</time>
      </trkpt>
      <trkpt lat="48.34606" lon="-0.10067">
        <ele>209.152</ele>
        <time>2016-06-01T22:04:15Z</time>
      </trkpt>
      <trkpt lat="48.34647" lon="-0.09994">
        <ele>205.558</ele>
        <time>2016-06-01T22:03:55Z</time>
      </trkpt>
      <trkpt lat="48.34697" lon="-0.09944">
        <ele>199.914</ele>
        <time>2016-06-01T22:03:35Z</time>
      </trkpt>
      <trkpt lat="48.34743" lon="-0.09927">
        <ele>193.795</ele>
        <time>2016-06-01T22:03:15Z</time>
      </trkpt>
      <trkpt lat="48.34794" lon="-0.09936">
        <ele>188.389</ele>
        <time>2016-06-01T22:02:55Z</time>
      </trkpt>
      <trkpt lat="48.34843" lon="-0.09929">
        <ele>180.397</ele>
        <time>2016-06-01T22:02:35Z</time>
      </trkpt>
      <trkpt lat="48.34884" lon="-0.09947">
        <ele>174.221</ele>
        <time>2016-06-01T22:02:15Z</time>
      </trkpt>
      <trkpt lat="48.3492" lon="-0.09927">
        <ele>166.478</ele>
        <time>2016-06-01T22:01:55Z</time>
      </trkpt>
      <trkpt lat="48.34961" lon="-0.09912">
        <ele>163.023</ele>
        <time>2016-06-01T22:01:35Z</time>
      </trkpt>
      <trkpt lat="48.34994" lon="-0.09921">
        <ele>163.347</ele>
        <time>2016-06-01T22:01:15Z</time>
      </trkpt>
      <trkpt lat="48.35019" lon="-0.09908">
        <ele>166.408</ele>
        <time>2016-06-01T22:00:55Z</time>
      </trkpt>
      <trkpt lat="48.35032" lon="-0.09886">
        <ele>169.317</ele>
        <time>2016-06-01T22:00:35Z</time>
      </trkpt>
      <trkpt lat="48.35054" lon="-0.09897">
        <ele>175.498</ele>
        <time>2016-06-01T22:00:15Z</time>
      </trkpt>
      <trkpt lat="48.35098" lon="-0.1">
        <ele>187.618</ele>
        <time>2016-06-01T21:59:55Z</time>
      </trkpt>
      <trkpt lat="48.35129" lon="-0.10133">
        <ele>196.714</ele>
        <time>2016-06-01T21:59:35Z</time>
      </trkpt>
      <trkpt lat="48.35145" lon="-0.10163">
        <ele>202.545</ele>
        <time>2016-06-01T21:59:15Z</time>
      </trkpt>
      <trkpt lat="48.35198" lon="-0.10204">
        <ele>208.889</ele>
        <time>2016-06-01T21:58:55Z</time>
      </trkpt>
      <trkpt lat="48.35242" lon="-0.1003">
        <ele>209.927</ele>
        <time>2016-06-01T21:58:35Z</time>
      </trkpt>
      <trkpt lat="48.35282" lon="-0.09904">
        <ele>207.881</ele>
        <time>2016-06-01T21:58:15Z</time>
      </trkpt>
      <trkpt lat="48.35298" lon="-0.09841">
        <ele>206.758</ele>
        <time>2016-06-01T21:57:55Z</time>
      </trkpt>
      <trkpt lat="48.35289" lon="-0.09764">
        <ele>212.313</ele>
        <time>2016-06-01T21:57:35Z</time>
      </trkpt>
      <trkpt lat="48.35266" lon="-0.09599">
        <ele>203.997</ele>
        <time>2016-06-01T21:57:15Z</time>
      </trkpt>
      <trkpt lat="48.3527" lon="-0.09517">
        <ele>202.708</ele>
        <time>2016-06-01T21:56:55Z</time>
      </trkpt>
      <trkpt lat="48.35288" lon="-0.09359">
        <ele>196.517</ele>
        <time>2016-06-01T21:56:35Z</time>
      </trkpt>
      <trkpt lat="48.35258" lon="-0.09307">
        <ele>192.498</ele>
        <time>2016-06-01T21:56:15Z</time>
      </trkpt>
      <trkpt lat="48.35243" lon="-0.09243">
        <ele>187.118</ele>
        <time>2016-06-01T21:55:55Z</time>
      </trkpt>
      <trkpt lat="48.35165" lon="-0.09191">
        <ele>179.556</ele>
        <time>2016-06-01T21:55:35Z</time>
      </trkpt>
      <trkpt lat="48.35158" lon="-0.09135">
        <ele>178.577</ele>
        <time>2016-06-01T21:55:15Z</time>
      </trkpt>
      <trkpt lat="48.35159" lon="-0.09043">
        <ele>181.031</ele>
        <time>2016-06-01T21:54:55Z</time>
      </trkpt>
      <trkpt lat="48.35114" lon="-0.08814">
        <ele>172.659</ele>
        <time>2016-06-01T21:54:35Z</time>
      </trkpt>
      <trkpt lat="48.35085" lon="-0.08721">
        <ele>178.343</ele>
        <time>2016-06-01T21:54:15Z</time>
      </trkpt>
      <trkpt lat="48.35042" lon="-0.08689">
        <ele>179.63</ele>
        <time>2016-06-01T21:53:55Z</time>
      </trkpt>
      <trkpt lat="48.34998" lon="-0.08648">
        <ele>183.195</ele>
        <time>2016-06-01T21:53:35Z</time>
      </trkpt>
      <trkpt lat="48.3488" lon="-0.0858">
        <ele>184.439</ele>
        <time>2016-06-01T21:53:15Z</time>
      </trkpt>
      <trkpt lat="48.34844" lon="-0.08547">
        <ele>185.408</ele>
        <time>2016-06-01T21:52:55Z</time>
      </trkpt>
      <trkpt lat="48.34797" lon="-0.08528">
        <ele>182.414</ele>
        <time>2016-06-01T21:52:35Z</time>
      </trkpt>
      <trkpt lat="48.34787" lon="-0.08515">
        <ele>181.686</ele>
        <time>2016-06-01T21:52:15Z</time>
      </trkpt>
      <trkpt lat="48.34764" lon="-0.085">
        <ele>177.035</ele>
        <time>2016-06-01T21:51:55Z</time>
      </trkpt>
      <trkpt lat="48.34746" lon="-0.08451">
        <ele>172.449</ele>
        <time>2016-06-01T21:51:35Z</time>
      </trkpt>
      <trkpt lat="48.34763" lon="-0.08329">
        <ele>172.95</ele>
        <time>2016-06-01T21:51:15Z</time>
      </trkpt>
      <trkpt lat="48.3478" lon="-0.08307">
        <ele>177.654</ele>
        <time>2016-06-01T21:50:55Z</time>
      </trkpt>
      <trkpt lat="48.34787" lon="-0.08266">
        <ele>176.892</ele>
        <time>2016-06-01T21:50:35Z</time>
      </trkpt>
      <trkpt lat="48.34797" lon="-0.08243">
        <ele>175.836</ele>
        <time>2016-06-01T21:50:15Z</time>
      </trkpt>
      <trkpt lat="48.34821" lon="-0.08236">
        <ele>178.883</ele>
        <time>2016-06-01T21:49:55Z</time>
      </trkpt>
      <trkpt lat="48.34851" lon="-0.08266">
        <ele>188.038</ele>
        <time>2016-06-01T21:49:35Z</time>
      </trkpt>
      <trkpt lat="48.34894" lon="-0.08279">
        <ele>189.972</ele>
        <time>2016-06-01T21:49:15Z</time>
      </trkpt>
      <trkpt lat="48.34942" lon="-0.08264">
        <ele>187.008</ele>
        <time>2016-06-01T21:48:55Z</time>
      </trkpt>
      <trkpt lat="48.34971" lon="-0.08299">
        <ele>192.211</ele>
        <time>2016-06-01T21:48:35Z</time>
      </trkpt>
      <trkpt lat="48.34971" lon="-0.08356">
        <ele>195.883</ele>
        <time>2016-06-01T21:48:15Z</time>
      </trkpt>
      <trkpt lat="48.35024" lon="-0.08402">
        <ele>194.162</ele>
        <time>2016-06-01T21:47:55Z</time>
      </trkpt>
      <trkpt lat="48.35058" lon="-0.08399">
        <ele>192.538</ele>
        <time>2016-06-01T21:47:35Z</time>
      </trkpt>
      <trkpt lat="48.35084" lon="-0.08427">
        <ele>190.089</ele>
        <time>2016-06-01T21:47:15Z</time>
      </trkpt>
      <trkpt lat="48.35101" lon="-0.08378">
        <ele>189.133</ele>
        <time>2016-06-01T21:46:55Z</time>
      </trkpt>
      <trkpt lat="48.35119" lon="-0.08374">
        <ele>186.811</ele>
        <time>2016-06-01T21:46:35Z</time>
      </trkpt>
      <trkpt lat="48.35142" lon="-0.0829">
        <ele>185.745</ele>
        <time>2016-06-01T21:46:15Z</time>
      </trkpt>
      <trkpt lat="48.35163" lon="-0.08249">
        <ele>184.822</ele>
        <time>2016-06-01T21:45:55Z</time>
      </trkpt>
      <trkpt lat="48.35189" lon="-0.08211">
        <ele>183.057</ele>
        <time>2016-06-01T21:45:35Z</time>
      </trkpt>
      <trkpt lat="48.35191" lon="-0.08163">
        <ele>177.461</ele>
        <time>2016-06-01T21:45:15Z</time>
      </trkpt>
      <trkpt lat="48.35181" lon="-0.08118">
        <ele>169.108</ele>
        <time>2016-06-01T21:44:55Z</time>
      </trkpt>
      <trkpt lat="48.35142" lon="-0.08093">
        <ele>159.311</ele>
        <time>2016-06-01T21:44:35Z</time>
      </trkpt>
      <trkpt lat="48.35203" lon="-0.08078">
        <ele>157.901</ele>
        <time>2016-06-01T21:44:15Z</time>
      </trkpt>
      <trkpt lat="48.35216" lon="-0.08054">
        <ele>151.451</ele>
        <time>2016-06-01T21:43:55Z</time>
      </trkpt>
      <trkpt lat="48.35248" lon="-0.0805">
        <ele>150.034</ele>
        <time>2016-06-01T21:43:35Z</time>
      </trkpt>
      <trkpt lat="48.35223" lon="-0.07998">
        <ele>137.815</ele>
        <time>2016-06-01T21:43:15Z</time>
      </trkpt>
      <trkpt lat="48.35199" lon="-0.0797">
        <ele>133.759</ele>
        <time>2016-06-01T21:42:55Z</time>
      </trkpt>
      <trkpt lat="48.35192" lon="-0.0794">
        <ele>128.967</ele>
        <time>2016-06-01T21:42:35Z</time>
      </trkpt>
      <trkpt lat="48.35181" lon="-0.07814">
        <ele>115.141</ele>
        <time>2016-06-01T21:42:15Z</time>
      </trkpt>
      <trkpt lat="48.35165" lon="-0.07754">
        <ele>110.998</ele>
        <time>2016-06-01T21:41:55Z</time>
      </trkpt>
      <trkpt lat="48.35221" lon="-0.07698">
        <ele>110.193</ele>
        <time>2016-06-01T21:41:35Z</time>
      </trkpt>
      <trkpt lat="48.3545" lon="-0.07754">
        <ele>104.717</ele>
        <time>2016-06-01T21:41:15Z</time>
      </trkpt>
      <trkpt lat="48.35467" lon="-0.07769">
        <ele>106.808</ele>
        <time>2016-06-01T21:40:55Z</time>
      </trkpt>
      <trkpt lat="48.35499" lon="-0.07854">
        <ele>110.909</ele>
        <time>2016-06-01T21:40:35Z</time>
      </trkpt>
      <trkpt lat="48.35551" lon="-0.07882">
        <ele>121.654</ele>
        <time>2016-06-01T21:40:15Z</time>
      </trkpt>
      <trkpt lat="48.3559" lon="-0.0791">
        <ele>127.114</ele>
        <time>2016-06-01T21:39:55Z</time>
      </trkpt>
      <trkpt lat="48.3564" lon="-0.07951">
        <ele>131.527</ele>
        <time>2016-06-01T21:39:35Z</time>
      </trkpt>
      <trkpt lat="48.35638" lon="-0.07906">
        <ele>136.928</ele>
        <time>2016-06-01T21:39:15Z</time>
      </trkpt>
      <trkpt lat="48.35663" lon="-0.0788">
        <ele>146.432</ele>
        <time>2016-06-01T21:38:55Z</time>
      </trkpt>
      <trkpt lat="48.35702" lon="-0.07863">
        <ele>155.71</ele>
        <time>2016-06-01T21:38:35Z</time>
      </trkpt>
      <trkpt lat="48.35805" lon="-0.07865">
        <ele>153.384</ele>
        <time>2016-06-01T21:38:15Z</time>
      </trkpt>
      <trkpt lat="48.35815" lon="-0.07927">
        <ele>141.851</ele>
        <time>2016-06-01T21:37:55Z</time>
      </trkpt>
      <trkpt lat="48.35993" lon="-0.07773">
        <ele>131.696</ele>
        <time>2016-06-01T21:37:35Z</time>
      </trkpt>
      <trkpt lat="48.36008" lon="-0.07781">
        <ele>131.69</ele>
        <time>2016-06-01T21:37:15Z</time>
      </trkpt>
      <trkpt lat="48.36013" lon="-0.07839">
        <ele>128.808</ele>
        <time>2016-06-01T21:36:55Z</time>
      </trkpt>
      <trkpt lat="48.36025" lon="-0.07846">
        <ele>128.615</ele>
        <time>2016-06-01T21:36:35Z</time>
      </trkpt>
      <trkpt lat="48.36063" lon="-0.07779">
        <ele>129.205</ele>
        <time>2016-06-01T21:36:15Z</time>
      </trkpt>
      <trkpt lat="48.361" lon="-0.0767">
        <ele>131.244</ele>
        <time>2016-06-01T21:35:55Z</time>
      </trkpt>
      <trkpt lat="48.36152" lon="-0.0758">
        <ele>129.819</ele>
        <time>2020-12-24T03:39:15Z</time>
      </trkpt>
      <trkpt lat="48.36217" lon="-0.07552">
        <ele>121.43</ele>
        <time>2016-06-01T21:34:55Z</time>
      </trkpt>
      <trkpt lat="48.36281" lon="-0.07546">
        <ele>119.934</ele>
        <time>2020-12-24T03:38:35Z</time>
      </trkpt>
      <trkpt lat="48.36432" lon="-0.07674">
        <ele>112.512</ele>
        <time>2020-12-24T03:38:15Z</time>
      </trkpt>
      <trkpt lat="48.36568" lon="-0.07741">
        <ele>117.076</ele>
        <time>2020-12-24T03:37:55Z</time>
      </trkpt>
      <trkpt lat="48.36661" lon="-0.07763">
        <ele>119.063</ele>
        <time>2020-12-24T03:37:35Z</time>
      </trkpt>
      <trkpt lat="48.36665" lon="-0.07657">
        <ele>115.638</ele>
        <time>2016-06-01T21:32:35Z</time>
      </trkpt>
      <trkpt lat="48.36709" lon="-0.07672">
        <ele>115.782</ele>
        <time>2016-06-01T21:32:15Z</time>
      </trkpt>
      <trkpt lat="48.36733" lon="-0.0767">
        <ele>115.808</ele>
        <time>2016-06-01T21:31:55Z</time>
      </trkpt>
      <trkpt lat="48.36752" lon="-0.07704">
        <ele>113.418</ele>
        <time>2016-06-01T21:31:35Z</time>
      </trkpt>
      <trkpt lat="48.36765" lon="-0.07711">
        <ele>114.244</ele>
        <time>2016-06-01T21:31:15Z</time>
      </trkpt>
      <trkpt lat="48.36785" lon="-0.07749">
        <ele>113.563</ele>
        <time>2016-06-01T21:30:55Z</time>
      </trkpt>
      <trkpt lat="48.3693" lon="-0.07747">
        <ele>116.576</ele>
        <time>2016-06-01T21:30:35Z</time>
      </trkpt>
      <trkpt lat="48.36937" lon="-0.07728">
        <ele>118.727</ele>
        <time>2016-06-01T21:30:15Z</time>
      </trkpt>
      <trkpt lat="48.36961" lon="-0.07685">
        <ele>121.681</ele>
        <time>2016-06-01T21:29:55Z</time>
      </trkpt>
      <trkpt lat="48.3699" lon="-0.0764">
        <ele>120.549</ele>
        <time>2016-06-01T21:29:35Z</time>
      </trkpt>
      <trkpt lat="48.36973" lon="-0.07554">
        <ele>134.293</ele>
        <time>2016-06-01T21:29:15Z</time>
      </trkpt>
      <trkpt lat="48.36996" lon="-0.07494">
        <ele>143.79</ele>
        <time>2016-06-01T21:28:55Z</time>
      </trkpt>
      <trkpt lat="48.3706" lon="-0.07445">
        <ele>152.675</ele>
        <time>2016-06-01T21:28:35Z</time>
      </trkpt>
      <trkpt lat="48.37115" lon="-0.07393">
        <ele>154.229</ele>
        <time>2016-06-01T21:28:15Z</time>
      </trkpt>
      <trkpt lat="48.37127" lon="-0.07352">
        <ele>156.708</ele>
        <time>2016-06-01T21:27:55Z</time>
      </trkpt>
      <trkpt lat="48.37124" lon="-0.07322">
        <ele>158.407</ele>
        <time>2016-06-01T21:27:35Z</time>
      </trkpt>
      <trkpt lat="48.37087" lon="-0.07251">
        <ele>165.661</ele>
        <time>2016-06-01T21:27:15Z</time>
      </trkpt>
      <trkpt lat="48.37092" lon="-0.07215">
        <ele>164.931</ele>
        <time>2016-06-01T21:26:55Z</time>
      </trkpt>
      <trkpt lat="48.37118" lon="-0.07189">
        <ele>161.515</ele>
        <time>2016-06-01T21:26:35Z</time>
      </trkpt>
      <trkpt lat="48.37152" lon="-0.07198">
        <ele>159.876</ele>
        <time>2016-06-01T21:26:15Z</time>
      </trkpt>
      <trkpt lat="48.37178" lon="-0.07228">
        <ele>155.54</ele>
        <time>2016-06-01T21:25:55Z</time>
      </trkpt>
      <trkpt lat="48.37254" lon="-0.07209">
        <ele>154.378</ele>
        <time>2016-06-01T21:25:35Z</time>
      </trkpt>
      <trkpt lat="48.37285" lon="-0.07181">
        <ele>158.022</ele>
        <time>2016-06-01T21:25:15Z</time>
      </trkpt>
      <trkpt lat="48.37316" lon="-0.07112">
        <ele>167.789</ele>
        <time>2016-06-01T21:24:55Z</time>
      </trkpt>
      <trkpt lat="48.37375" lon="-0.07056">
        <ele>168.514</ele>
        <time>2016-06-01T21:24:35Z</time>
      </trkpt>
      <trkpt lat="48.37392" lon="-0.07018">
        <ele>169.838</ele>
        <time>2016-06-01T21:24:15Z</time>
      </trkpt>
      <trkpt lat="48.37435" lon="-0.06977">
        <ele>170.808</ele>
        <time>2016-06-01T21:23:55Z</time>
      </trkpt>
      <trkpt lat="48.37453" lon="-0.06942">
        <ele>174.005</ele>
        <time>2016-06-01T21:23:35Z</time>
      </trkpt>
      <trkpt lat="48.37497" lon="-0.06736">
        <ele>182.241</ele>
        <time>2016-06-01T21:23:15Z</time>
      </trkpt>
      <trkpt lat="48.37536" lon="-0.06736">
        <ele>176.521</ele>
        <time>2016-06-01T21:22:55Z</time>
      </trkpt>
      <trkpt lat="48.37571" lon="-0.06724">
        <ele>172.064</ele>
        <time>2016-06-01T21:22:35Z</time>
      </trkpt>
      <trkpt lat="48.37523" lon="-0.06629">
        <ele>178.985</ele>
        <time>2016-06-01T21:22:15Z</time>
      </trkpt>
      <trkpt lat="48.37512" lon="-0.06595">
        <ele>179.959</ele>
        <time>2016-06-01T21:21:55Z</time>
      </trkpt>
      <trkpt lat="48.37483" lon="-0.06548">
        <ele>185.047</ele>
        <time>2016-06-01T21:21:35Z</time>
      </trkpt>
      <trkpt lat="48.37469" lon="-0.06518">
        <ele>187.381</ele>
        <time>2016-06-01T21:21:15Z</time>
      </trkpt>
      <trkpt lat="48.37456" lon="-0.06425">
        <ele>188.968</ele>
        <time>2016-06-01T21:20:55Z</time>
      </trkpt>
      <trkpt lat="48.37453" lon="-0.06391">
        <ele>191.043</ele>
        <time>2016-06-01T21:20:35Z</time>
      </trkpt>
      <trkpt lat="48.37453" lon="-0.06339">
        <ele>193.537</ele>
        <time>2016-06-01T21:20:15Z</time>
      </trkpt>
      <trkpt lat="48.37449" lon="-0.0626">
        <ele>200.408</ele>
        <time>2016-06-01T21:19:55Z</time>
      </trkpt>
      <trkpt lat="48.3745" lon="-0.06217">
        <ele>201.209</ele>
        <time>2016-06-01T21:19:35Z</time>
      </trkpt>
      <trkpt lat="48.37483" lon="-0.06138">
        <ele>194.754</ele>
        <time>2016-06-01T21:19:15Z</time>
      </trkpt>
      <trkpt lat="48.3749" lon="-0.06065">
        <ele>193.814</ele>
        <time>2016-06-01T21:18:55Z</time>
      </trkpt>
      <trkpt lat="48.37517" lon="-0.06046">
        <ele>189.759</ele>
        <time>2016-06-01T21:18:35Z</time>
      </trkpt>
      <trkpt lat="48.37531" lon="-0.0597">
        <ele>189.22</ele>
        <time>2016-06-01T21:18:15Z</time>
      </trkpt>
      <trkpt lat="48.37586" lon="-0.0591">
        <ele>183.954</ele>
        <time>2016-06-01T21:17:55Z</time>
      </trkpt>
      <trkpt lat="48.37594" lon="-0.05872">
        <ele>182.532</ele>
        <time>2016-06-01T21:17:35Z</time>
      </trkpt>
      <trkpt lat="48.3763" lon="-0.05833">
        <ele>173.086</ele>
        <time>2016-06-01T21:17:15Z</time>
      </trkpt>
      <trkpt lat="48.37704" lon="-0.05805">
        <ele>167.723</ele>
        <time>2016-06-01T21:16:55Z</time>
      </trkpt>
      <trkpt lat="48.3774" lon="-0.05743">
        <ele>160.748</ele>
        <time>2016-06-01T21:16:35Z</time>
      </trkpt>
      <trkpt lat="48.37752" lon="-0.05664">
        <ele>157.562</ele>
        <time>2016-06-01T21:16:15Z</time>
      </trkpt>
      <trkpt lat="48.37703" lon="-0.05634">
        <ele>163.708</ele>
        <time>2016-06-01T21:15:55Z</time>
      </trkpt>
      <trkpt lat="48.37688" lon="-0.05631">
        <ele>166.126</ele>
        <time>2016-06-01T21:15:35Z</time>
      </trkpt>
      <trkpt lat="48.3766" lon="-0.0564">
        <ele>170.842</ele>
        <time>2016-06-01T21:15:15Z</time>
      </trkpt>
      <trkpt lat="48.37516" lon="-0.05661">
        <ele>183.268</ele>
        <time>2016-06-01T21:14:55Z</time>
      </trkpt>
      <trkpt lat="48.37446" lon="-0.05704">
        <ele>192.322</ele>
        <time>2016-06-01T21:14:35Z</time>
      </trkpt>
      <trkpt lat="48.37399" lon="-0.05719">
        <ele>197.763</ele>
        <time>2016-06-01T21:14:15Z</time>
      </trkpt>
      <trkpt lat="48.37376" lon="-0.05704">
        <ele>197.767</ele>
        <time>2016-06-01T21:13:55Z</time>
      </trkpt>
      <trkpt lat="48.37363" lon="-0.05668">
        <ele>195.125</ele>
        <time>2016-06-01T21:13:35Z</time>
      </trkpt>
      <trkpt lat="48.37312" lon="-0.05676">
        <ele>197.289</ele>
        <time>2016-06-01T21:13:15Z</time>
      </trkpt>
      <trkpt lat="48.37235" lon="-0.05651">
        <ele>198.056</ele>
        <time>2016-06-01T21:12:55Z</time>
      </trkpt>
      <trkpt lat="48.37256" lon="-0.05314">
        <ele>196.571</ele>
        <time>2016-06-01T21:12:35Z</time>
      </trkpt>
      <trkpt lat="48.37358" lon="-0.05207">
        <ele>193.195</ele>
        <time>2016-06-01T21:12:15Z</time>
      </trkpt>
      <trkpt lat="48.3739" lon="-0.05121">
        <ele>187.708</ele>
        <time>2016-06-01T21:11:55Z</time>
      </trkpt>
      <trkpt lat="48.37403" lon="-0.05039">
        <ele>186.223</ele>
        <time>2016-06-01T21:11:35Z</time>
      </trkpt>
      <trkpt lat="48.37416" lon="-0.04962">
        <ele>180.949</ele>
        <time>2016-06-01T21:11:15Z</time>
      </trkpt>
      <trkpt lat="48.3747" lon="-0.04902">
        <ele>166.195</ele>
        <time>2016-06-01T21:10:55Z</time>
      </trkpt>
      <trkpt lat="48.37516" lon="-0.04857">
        <ele>158.118</ele>
        <time>2016-06-01T21:10:35Z</time>
      </trkpt>
      <trkpt lat="48.3757" lon="-0.04867">
        <ele>134.169</ele>
        <time>2016-06-01T21:10:15Z</time>
      </trkpt>
      <trkpt lat="48.37631" lon="-0.04921">
        <ele>122.063</ele>
        <time>2016-06-01T21:09:55Z</time>
      </trkpt>
      <trkpt lat="48.37851" lon="-0.05095">
        <ele>121.551</ele>
        <time>2016-06-01T21:09:35Z</time>
      </trkpt>
      <trkpt lat="48.37889" lon="-0.05119">
        <ele>121.045</ele>
        <time>2016-06-01T21:09:15Z</time>
      </trkpt>
      <trkpt lat="48.37906" lon="-0.05211">
        <ele>127.832</ele>
        <time>2016-06-01T21:08:55Z</time>
      </trkpt>
      <trkpt lat="48.37933" lon="-0.05252">
        <ele>131.637</ele>
        <time>2016-06-01T21:08:35Z</time>
      </trkpt>
      <trkpt lat="48.37936" lon="-0.05275">
        <ele>131.761</ele>
        <time>2016-06-01T21:08:15Z</time>
      </trkpt>
      <trkpt lat="48.37945" lon="-0.05286">
        <ele>131.108</ele>
        <time>2016-06-01T21:07:55Z</time>
      </trkpt>
      <trkpt lat="48.38066" lon="-0.05258">
        <ele>133.911</ele>
        <time>2016-06-01T21:07:35Z</time>
      </trkpt>
      <trkpt lat="48.3809" lon="-0.05241">
        <ele>136.501</ele>
        <time>2016-06-01T21:07:15Z</time>
      </trkpt>
      <trkpt lat="48.38126" lon="-0.05189">
        <ele>145.351</ele>
        <time>2016-06-01T21:06:55Z</time>
      </trkpt>
      <trkpt lat="48.3816" lon="-0.05157">
        <ele>149.014</ele>
        <time>2016-06-01T21:06:35Z</time>
      </trkpt>
      <trkpt lat="48.38164" lon="-0.05131">
        <ele>150.435</ele>
        <time>2016-06-01T21:06:15Z</time>
      </trkpt>
      <trkpt lat="48.38294" lon="-0.05099">
        <ele>162.699</ele>
        <time>2016-06-01T21:05:55Z</time>
      </trkpt>
      <trkpt lat="48.38318" lon="-0.05082">
        <ele>163.987</ele>
        <time>2016-06-01T21:05:35Z</time>
      </trkpt>
      <trkpt lat="48.38391" lon="-0.05041">
        <ele>168.761</ele>
        <time>2016-06-01T21:05:15Z</time>
      </trkpt>
      <trkpt lat="48.38448" lon="-0.05041">
        <ele>173.528</ele>
        <time>2016-06-01T21:04:55Z</time>
      </trkpt>
      <trkpt lat="48.38486" lon="-0.05033">
        <ele>173.273</ele>
        <time>2016-06-01T21:04:35Z</time>
      </trkpt>
      <trkpt lat="48.38563" lon="-0.04964">
        <ele>174.657</ele>
        <time>2016-06-01T21:04:15Z</time>
      </trkpt>
      <trkpt lat="48.38616" lon="-0.04934">
        <ele>179.808</ele>
        <time>2016-06-01T21:03:55Z</time>
      </trkpt>
      <trkpt lat="48.38682" lon="-0.04915">
        <ele>185.503</ele>
        <time>2016-06-01T21:03:35Z</time>
      </trkpt>
      <trkpt lat="48.38841" lon="-0.04932">
        <ele>187.721</ele>
        <time>2016-06-01T21:03:15Z</time>
      </trkpt>
      <trkpt lat="48.38997" lon="-0.04805">
        <ele>182.111</ele>
        <time>2016-06-01T21:02:55Z</time>
      </trkpt>
      <trkpt lat="48.39049" lon="-0.0497">
        <ele>176.398</ele>
        <time>2016-06-01T21:02:35Z</time>
      </trkpt>
      <trkpt lat="48.39059" lon="-0.0496">
        <ele>176.429</ele>
        <time>2016-06-01T21:02:15Z</time>
      </trkpt>
      <trkpt lat="48.3914" lon="-0.04981">
        <ele>176.473</ele>
        <time>2016-06-01T21:01:55Z</time>
      </trkpt>
      <trkpt lat="48.39182" lon="-0.05056">
        <ele>170.951</ele>
        <time>2016-06-01T21:01:35Z</time>
      </trkpt>
      <trkpt lat="48.39216" lon="-0.05084">
        <ele>170.575</ele>
        <time>2016-06-01T21:01:15Z</time>
      </trkpt>
      <trkpt lat="48.39239" lon="-0.05088">
        <ele>170.252</ele>
        <time>2016-06-01T21:00:55Z</time>
      </trkpt>
      <trkpt lat="48.3942" lon="-0.05114">
        <ele>158.027</ele>
        <time>2016-06-01T21:00:35Z</time>
      </trkpt>
      <trkpt lat="48.3949" lon="-0.05127">
        <ele>157.651</ele>
        <time>2016-06-01T21:00:15Z</time>
      </trkpt>
      <trkpt lat="48.39528" lon="-0.05123">
        <ele>157.608</ele>
        <time>2016-06-01T20:59:55Z</time>
      </trkpt>
      <trkpt lat="48.39636" lon="-0.05153">
        <ele>163.417</ele>
        <time>2016-06-01T20:59:35Z</time>
      </trkpt>
      <trkpt lat="48.39672" lon="-0.05146">
        <ele>167.707</ele>
        <time>2016-06-01T20:59:15Z</time>
      </trkpt>
      <trkpt lat="48.39716" lon="-0.05121">
        <ele>173.355</ele>
        <time>2016-06-01T20:58:55Z</time>
      </trkpt>
      <trkpt lat="48.39745" lon="-0.05123">
        <ele>175.967</ele>
        <time>2016-06-01T20:58:35Z</time>
      </trkpt>
      <trkpt lat="48.39752" lon="-0.05148">
        <ele>177.538</ele>
        <time>2016-06-01T20:58:15Z</time>
      </trkpt>
      <trkpt lat="48.39752" lon="-0.05148">
        <ele>177.532</ele>
        <time>2016-06-01T20:57:55Z</time>
      </trkpt>
      <trkpt lat="48.39753" lon="-0.05143">
        <ele>177.53</ele>
        <time>2016-06-01T20:57:35Z</time>
      </trkpt>
      <trkpt lat="48.39756" lon="-0.05203">
        <ele>178.444</ele>
        <time>2016-06-01T20:57:15Z</time>
      </trkpt>
      <trkpt lat="48.39861" lon="-0.05182">
        <ele>183.011</ele>
        <time>2016-06-01T20:56:55Z</time>
      </trkpt>
      <trkpt lat="48.40199" lon="-0.05308">
        <ele>171.236</ele>
        <time>2016-06-01T20:56:35Z</time>
      </trkpt>
      <trkpt lat="48.4043" lon="-0.05433">
        <ele>163.67</ele>
        <time>2016-06-01T20:56:15Z</time>
      </trkpt>
      <trkpt lat="48.40435" lon="-0.05435">
        <ele>163.208</ele>
        <time>2016-06-01T20:55:55Z</time>
      </trkpt>
      <trkpt lat="48.40463" lon="-0.05439">
        <ele>161.909</ele>
        <time>2016-06-01T20:55:35Z</time>
      </trkpt>
      <trkpt lat="48.40645" lon="-0.05353">
        <ele>170.181</ele>
        <time>2016-06-01T20:55:15Z</time>
      </trkpt>
      <trkpt lat="48.40696" lon="-0.05319">
        <ele>171.141</ele>
        <time>2016-06-01T20:54:55Z</time>
      </trkpt>
      <trkpt lat="48.40726" lon="-0.05317">
        <ele>171.647</ele>
        <time>2016-06-01T20:54:35Z</time>
      </trkpt>
      <trkpt lat="48.40783" lon="-0.05369">
        <ele>169.048</ele>
        <time>2016-06-01T20:54:15Z</time>
      </trkpt>
      <trkpt lat="48.40883" lon="-0.0539">
        <ele>166.232</ele>
        <time>2016-06-01T20:53:55Z</time>
      </trkpt>
      <trkpt lat="48.40945" lon="-0.0539">
        <ele>166.06</ele>
        <time>2016-06-01T20:53:35Z</time>
      </trkpt>
      <trkpt lat="48.41089" lon="-0.05403">
        <ele>163.614</ele>
        <time>2016-06-01T20:53:15Z</time>
      </trkpt>
      <trkpt lat="48.41076" lon="-0.0575">
        <ele>172.081</ele>
        <time>2016-06-01T20:52:55Z</time>
      </trkpt>
      <trkpt lat="48.41101" lon="-0.05738">
        <ele>172.086</ele>
        <time>2016-06-01T20:52:35Z</time>
      </trkpt>
      <trkpt lat="48.41169" lon="-0.05624">
        <ele>169.45</ele>
        <time>2016-06-01T20:52:15Z</time>
      </trkpt>
      <trkpt lat="48.41219" lon="-0.0563">
        <ele>169.608</ele>
        <time>2016-06-01T20:51:55Z</time>
      </trkpt>
      <trkpt lat="48.41246" lon="-0.05652">
        <ele>170.317</ele>
        <time>2016-06-01T20:51:35Z</time>
      </trkpt>
      <trkpt lat="48.4127" lon="-0.05695">
        <ele>171.761</ele>
        <time>2016-06-01T20:51:15Z</time>
      </trkpt>
      <trkpt lat="48.41274" lon="-0.05723">
        <ele>172.848</ele>
        <time>2016-06-01T20:50:55Z</time>
      </trkpt>
      <trkpt lat="48.4131" lon="-0.05748">
        <ele>175.18</ele>
        <time>2016-06-01T20:50:35Z</time>
      </trkpt>
      <trkpt lat="48.41397" lon="-0.05815">
        <ele>179.791</ele>
        <time>2016-06-01T20:50:15Z</time>
      </trkpt>
      <trkpt lat="48.41507" lon="-0.05914">
        <ele>182.315</ele>
        <time>2016-06-01T20:49:55Z</time>
      </trkpt>
      <trkpt lat="48.41673" lon="-0.06087">
        <ele>181.393</ele>
        <time>2016-06-01T20:49:35Z</time>
      </trkpt>
      <trkpt lat="48.41705" lon="-0.06102">
        <ele>181.067</ele>
        <time>2016-06-01T20:49:15Z</time>
      </trkpt>
      <trkpt lat="48.41743" lon="-0.06087">
        <ele>178.374</ele>
        <time>2016-06-01T20:48:55Z</time>
      </trkpt>
      <trkpt lat="48.41867" lon="-0.0601">
        <ele>177.339</ele>
        <time>2016-06-01T20:48:35Z</time>
      </trkpt>
      <trkpt lat="48.41905" lon="-0.05997">
        <ele>176.013</ele>
        <time>2016-06-01T20:48:15Z</time>
      </trkpt>
      <trkpt lat="48.41914" lon="-0.0604">
        <ele>178.508</ele>
        <time>2016-06-01T20:47:55Z</time>
      </trkpt>
      <trkpt lat="48.41954" lon="-0.06308">
        <ele>187.719</ele>
        <time>2016-06-01T20:47:35Z</time>
      </trkpt>
      <trkpt lat="48.41961" lon="-0.06364">
        <ele>189.09</ele>
        <time>2016-06-01T20:47:15Z</time>
      </trkpt>
      <trkpt lat="48.41982" lon="-0.06371">
        <ele>189.076</ele>
        <time>2016-06-01T20:46:55Z</time>
      </trkpt>
      <trkpt lat="48.42028" lon="-0.06353">
        <ele>189.01</ele>
        <time>2016-06-01T20:46:35Z</time>
      </trkpt>
      <trkpt lat="48.42072" lon="-0.06377">
        <ele>189.861</ele>
        <time>2016-06-01T20:46:15Z</time>
      </trkpt>
      <trkpt lat="48.42115" lon="-0.06398">
        <ele>189.325</ele>
        <time>2016-06-01T20:45:55Z</time>
      </trkpt>
      <trkpt lat="48.42159" lon="-0.0642">
        <ele>191.043</ele>
        <time>2016-06-01T20:45:35Z</time>
      </trkpt>
      <trkpt lat="48.42183" lon="-0.06469">
        <ele>190.617</ele>
        <time>2016-06-01T20:45:15Z</time>
      </trkpt>
      <trkpt lat="48.42196" lon="-0.06512">
        <ele>191.194</ele>
        <time>2016-06-01T20:44:55Z</time>
      </trkpt>
      <trkpt lat="48.42217" lon="-0.06555">
        <ele>192.649</ele>
        <time>2016-06-01T20:44:35Z</time>
      </trkpt>
      <trkpt lat="48.42274" lon="-0.066">
        <ele>196.523</ele>
        <time>2016-06-01T20:44:15Z</time>
      </trkpt>
      <trkpt lat="48.42276" lon="-0.06654">
        <ele>197.008</ele>
        <time>2016-06-01T20:43:55Z</time>
      </trkpt>
      <trkpt lat="48.42268" lon="-0.06722">
        <ele>197.027</ele>
        <time>2016-06-01T20:43:35Z</time>
      </trkpt>
      <trkpt lat="48.42236" lon="-0.06772">
        <ele>196.661</ele>
        <time>2016-06-01T20:43:15Z</time>
      </trkpt>
      <trkpt lat="48.42231" lon="-0.0681">
        <ele>196.377</ele>
        <time>2016-06-01T20:42:55Z</time>
      </trkpt>
      <trkpt lat="48.42243" lon="-0.06928">
        <ele>198.841</ele>
        <time>2016-06-01T20:42:35Z</time>
      </trkpt>
      <trkpt lat="48.42293" lon="-0.06935">
        <ele>198.552</ele>
        <time>2016-06-01T20:42:15Z</time>
      </trkpt>
      <trkpt lat="48.42358" lon="-0.06946">
        <ele>199.086</ele>
        <time>2016-06-01T20:41:55Z</time>
      </trkpt>
      <trkpt lat="48.42358" lon="-0.06946">
        <ele>199.024</ele>
        <time>2016-06-01T20:41:35Z</time>
      </trkpt>
      <trkpt lat="48.42384" lon="-0.06939">
        <ele>199.858</ele>
        <time>2016-06-01T20:41:15Z</time>
      </trkpt>
      <trkpt lat="48.42493" lon="-0.06858">
        <ele>199.855</ele>
        <time>2016-06-01T20:40:55Z</time>
      </trkpt>
      <trkpt lat="48.42624" lon="-0.06707">
        <ele>199.88</ele>
        <time>2016-06-01T20:40:35Z</time>
      </trkpt>
      <trkpt lat="48.42671" lon="-0.0666">
        <ele>201.074</ele>
        <time>2016-06-01T20:40:15Z</time>
      </trkpt>
      <trkpt lat="48.42723" lon="-0.06622">
        <ele>202.608</ele>
        <time>2016-06-01T20:39:55Z</time>
      </trkpt>
      <trkpt lat="48.4278" lon="-0.06574">
        <ele>203.126</ele>
        <time>2016-06-01T20:39:35Z</time>
      </trkpt>
      <trkpt lat="48.42896" lon="-0.0645">
        <ele>208.142</ele>
        <time>2016-06-01T20:39:15Z</time>
      </trkpt>
      <trkpt lat="48.42933" lon="-0.06358">
        <ele>206.887</ele>
        <time>2016-06-01T20:38:55Z</time>
      </trkpt>
      <trkpt lat="48.42972" lon="-0.0628">
        <ele>203.14</ele>
        <time>2016-06-01T20:38:35Z</time>
      </trkpt>
      <trkpt lat="48.43002" lon="-0.06225">
        <ele>203.121</ele>
        <time>2016-06-01T20:38:15Z</time>
      </trkpt>
      <trkpt lat="48.43053" lon="-0.06171">
        <ele>202.185</ele>
        <time>2016-06-01T20:37:55Z</time>
      </trkpt>
      <trkpt lat="48.43146" lon="-0.06124">
        <ele>199.863</ele>
        <time>2016-06-01T20:37:35Z</time>
      </trkpt>
      <trkpt lat="48.43305" lon="-0.06098">
        <ele>194.027</ele>
        <time>2016-06-01T20:37:15Z</time>
      </trkpt>
      <trkpt lat="48.43392" lon="-0.06066">
        <ele>188.024</ele>
        <time>2016-06-01T20:36:55Z</time>
      </trkpt>
      <trkpt lat="48.43453" lon="-0.0607">
        <ele>185.399</ele>
        <time>2016-06-01T20:36:35Z</time>
      </trkpt>
      <trkpt lat="48.43605" lon="-0.06126">
        <ele>189.843</ele>
        <time>2016-06-01T20:36:15Z</time>
      </trkpt>
      <trkpt lat="48.43833" lon="-0.06227">
        <ele>189.008</ele>
        <time>2016-06-01T20:35:55Z</time>
      </trkpt>
      <trkpt lat="48.43954" lon="-0.06259">
        <ele>189.115</ele>
        <time>2016-06-01T20:35:35Z</time>
      </trkpt>
      <trkpt lat="48.4402" lon="-0.06263">
        <ele>187.941</ele>
        <time>2016-06-01T20:35:15Z</time>
      </trkpt>
      <trkpt lat="48.44142" lon="-0.06238">
        <ele>184.671</ele>
        <time>2016-06-01T20:34:55Z</time>
      </trkpt>
      <trkpt lat="48.44222" lon="-0.06263">
        <ele>189.549</ele>
        <time>2016-06-01T20:34:35Z</time>
      </trkpt>
      <trkpt lat="48.44299" lon="-0.0628">
        <ele>191.01</ele>
        <time>2016-06-01T20:34:15Z</time>
      </trkpt>
      <trkpt lat="48.44367" lon="-0.06321">
        <ele>193.874</ele>
        <time>2016-06-01T20:33:55Z</time>
      </trkpt>
      <trkpt lat="48.44444" lon="-0.06375">
        <ele>198.582</ele>
        <time>2016-06-01T20:33:35Z</time>
      </trkpt>
      <trkpt lat="48.44497" lon="-0.06364">
        <ele>199.066</ele>
        <time>2016-06-01T20:33:15Z</time>
      </trkpt>
      <trkpt lat="48.44548" lon="-0.06388">
        <ele>200.053</ele>
        <time>2016-06-01T20:32:55Z</time>
      </trkpt>
      <trkpt lat="48.44595" lon="-0.06386">
        <ele>201.528</ele>
        <time>2016-06-01T20:32:35Z</time>
      </trkpt>
      <trkpt lat="48.4464" lon="-0.06409">
        <ele>202.872</ele>
        <time>2016-06-01T20:32:15Z</time>
      </trkpt>
      <trkpt lat="48.44666" lon="-0.06405">
        <ele>204.508</ele>
        <time>2016-06-01T20:31:55Z</time>
      </trkpt>
      <trkpt lat="48.44743" lon="-0.06259">
        <ele>204.218</ele>
        <time>2016-06-01T20:31:35Z</time>
      </trkpt>
      <trkpt lat="48.44777" lon="-0.06158">
        <ele>202.744</ele>
        <time>2016-06-01T20:31:15Z</time>
      </trkpt>
      <trkpt lat="48.44813" lon="-0.06107">
        <ele>203.063</ele>
        <time>2016-06-01T20:30:55Z</time>
      </trkpt>
      <trkpt lat="48.44837" lon="-0.06105">
        <ele>202.852</ele>
        <time>2016-06-01T20:30:35Z</time>
      </trkpt>
      <trkpt lat="48.44921" lon="-0.06083">
        <ele>204.093</ele>
        <time>2016-06-01T20:30:15Z</time>
      </trkpt>
      <trkpt lat="48.44975" lon="-0.06032">
        <ele>202.037</ele>
        <time>2016-06-01T20:29:55Z</time>
      </trkpt>
      <trkpt lat="48.45042" lon="-0.05991">
        <ele>198.885</ele>
        <time>2016-06-01T20:29:35Z</time>
      </trkpt>
      <trkpt lat="48.4513" lon="-0.05959">
        <ele>204.029</ele>
        <time>2016-06-01T20:29:15Z</time>
      </trkpt>
      <trkpt lat="48.45187" lon="-0.05956">
        <ele>206.976</ele>
        <time>2016-06-01T20:28:55Z</time>
      </trkpt>
      <trkpt lat="48.45487" lon="-0.05886">
        <ele>194.351</ele>
        <time>2016-06-01T20:28:35Z</time>
      </trkpt>
      <trkpt lat="48.45565" lon="-0.05768">
        <ele>189.275</ele>
        <time>2016-06-01T20:28:15Z</time>
      </trkpt>
      <trkpt lat="48.45588" lon="-0.05688">
        <ele>191.408</ele>
        <time>2016-06-01T20:27:55Z</time>
      </trkpt>
      <trkpt lat="48.45646" lon="-0.0565">
        <ele>194.019</ele>
        <time>2016-06-01T20:27:35Z</time>
      </trkpt>
      <trkpt lat="48.45701" lon="-0.05658">
        <ele>193.981</ele>
        <time>2016-06-01T20:27:15Z</time>
      </trkpt>
      <trkpt lat="48.45691" lon="-0.05635">
        <ele>193.191</ele>
        <time>2016-06-01T20:26:55Z</time>
      </trkpt>
      <trkpt lat="48.45691" lon="-0.05568">
        <ele>192.431</ele>
        <time>2016-06-01T20:26:35Z</time>
      </trkpt>
      <trkpt lat="48.45691" lon="-0.05568">
        <ele>192.431</ele>
        <time>2016-06-01T20:26:35Z</time>
      </trkpt>
      <trkpt lat="48.45691" lon="-0.05568">
        <ele>192.431</ele>
        <time>2016-06-01T20:26:35Z</time>
      </trkpt>
      <trkpt lat="48.45894" lon="-0.05624">
        <ele>195.812</ele>
        <time>2016-06-01T20:26:15Z</time>
      </trkpt>
      <trkpt lat="48.45933" lon="-0.05656">
        <ele>199.956</ele>
        <time>2016-06-01T20:25:55Z</time>
      </trkpt>
      <trkpt lat="48.46129" lon="-0.058">
        <ele>199.984</ele>
        <time>2016-06-01T20:25:35Z</time>
      </trkpt>
      <trkpt lat="48.46157" lon="-0.05838">
        <ele>198.538</ele>
        <time>2016-06-01T20:25:15Z</time>
      </trkpt>
      <trkpt lat="48.4619" lon="-0.05864">
        <ele>199.165</ele>
        <time>2016-06-01T20:24:55Z</time>
      </trkpt>
      <trkpt lat="48.46265" lon="-0.05883">
        <ele>199.51</ele>
        <time>2016-06-01T20:24:35Z</time>
      </trkpt>
      <trkpt lat="48.46349" lon="-0.05911">
        <ele>201.564</ele>
        <time>2016-06-01T20:24:15Z</time>
      </trkpt>
      <trkpt lat="48.46512" lon="-0.05944">
        <ele>199.508</ele>
        <time>2016-06-01T20:23:55Z</time>
      </trkpt>
      <trkpt lat="48.46559" lon="-0.05956">
        <ele>200.517</ele>
        <time>2016-06-01T20:23:35Z</time>
      </trkpt>
      <trkpt lat="48.46725" lon="-0.06021">
        <ele>206.061</ele>
        <time>2016-06-01T20:23:15Z</time>
      </trkpt>
      <trkpt lat="48.46805" lon="-0.06062">
        <ele>216.581</ele>
        <time>2016-06-01T20:22:55Z</time>
      </trkpt>
      <trkpt lat="48.46826" lon="-0.06094">
        <ele>224.681</ele>
        <time>2016-06-01T20:22:35Z</time>
      </trkpt>
      <trkpt lat="48.46863" lon="-0.0619">
        <ele>237.382</ele>
        <time>2016-06-01T20:22:15Z</time>
      </trkpt>
      <trkpt lat="48.46893" lon="-0.0628">
        <ele>245.946</ele>
        <time>2016-06-01T20:21:55Z</time>
      </trkpt>
      <trkpt lat="48.46899" lon="-0.06422">
        <ele>251.684</ele>
        <time>2016-06-01T20:21:35Z</time>
      </trkpt>
      <trkpt lat="48.46909" lon="-0.06482">
        <ele>256.518</ele>
        <time>2016-06-01T20:21:15Z</time>
      </trkpt>
      <trkpt lat="48.4694" lon="-0.06692">
        <ele>263.325</ele>
        <time>2016-06-01T20:20:55Z</time>
      </trkpt>
      <trkpt lat="48.46984" lon="-0.06748">
        <ele>265.06</ele>
        <time>2016-06-01T20:20:35Z</time>
      </trkpt>
      <trkpt lat="48.47025" lon="-0.06744">
        <ele>266.094</ele>
        <time>2016-06-01T20:20:15Z</time>
      </trkpt>
      <trkpt lat="48.47054" lon="-0.06716">
        <ele>268.008</ele>
        <time>2016-06-01T20:19:55Z</time>
      </trkpt>
      <trkpt lat="48.47105" lon="-0.0668">
        <ele>268.926</ele>
        <time>2016-06-01T20:19:35Z</time>
      </trkpt>
      <trkpt lat="48.47155" lon="-0.06658">
        <ele>267.624</ele>
        <time>2016-06-01T20:19:15Z</time>
      </trkpt>
      <trkpt lat="48.47206" lon="-0.06658">
        <ele>263.788</ele>
        <time>2016-06-01T20:18:55Z</time>
      </trkpt>
      <trkpt lat="48.47243" lon="-0.06639">
        <ele>261.018</ele>
        <time>2016-06-01T20:18:35Z</time>
      </trkpt>
      <trkpt lat="48.47311" lon="-0.06574">
        <ele>253.119</ele>
        <time>2016-06-01T20:18:15Z</time>
      </trkpt>
      <trkpt lat="48.47328" lon="-0.06577">
        <ele>250.373</ele>
        <time>2016-06-01T20:17:55Z</time>
      </trkpt>
      <trkpt lat="48.47355" lon="-0.06574">
        <ele>246.081</ele>
        <time>2016-06-01T20:17:35Z</time>
      </trkpt>
      <trkpt lat="48.47496" lon="-0.0669">
        <ele>229.625</ele>
        <time>2016-06-01T20:17:15Z</time>
      </trkpt>
      <trkpt lat="48.47596" lon="-0.06733">
        <ele>223.672</ele>
        <time>2016-06-01T20:16:55Z</time>
      </trkpt>
      <trkpt lat="48.47633" lon="-0.06735">
        <ele>226.327</ele>
        <time>2016-06-01T20:16:35Z</time>
      </trkpt>
      <trkpt lat="48.4766" lon="-0.06714">
        <ele>227.791</ele>
        <time>2016-06-01T20:16:15Z</time>
      </trkpt>
      <trkpt lat="48.47691" lon="-0.06645">
        <ele>226.108</ele>
        <time>2016-06-01T20:15:55Z</time>
      </trkpt>
      <trkpt lat="48.47708" lon="-0.06626">
        <ele>225.311</ele>
        <time>2016-06-01T20:15:35Z</time>
      </trkpt>
      <trkpt lat="48.47724" lon="-0.06602">
        <ele>224.701</ele>
        <time>2016-06-01T20:15:15Z</time>
      </trkpt>
      <trkpt lat="48.47737" lon="-0.06583">
        <ele>224.051</ele>
        <time>2016-06-01T20:14:55Z</time>
      </trkpt>
      <trkpt lat="48.47766" lon="-0.06684">
        <ele>233.296</ele>
        <time>2016-06-01T20:14:35Z</time>
      </trkpt>
      <trkpt lat="48.47785" lon="-0.06722">
        <ele>236.597</ele>
        <time>2016-06-01T20:14:15Z</time>
      </trkpt>
      <trkpt lat="48.47917" lon="-0.07074">
        <ele>270.071</ele>
        <time>2016-06-01T20:13:55Z</time>
      </trkpt>
      <trkpt lat="48.48008" lon="-0.0698">
        <ele>273.029</ele>
        <time>2016-06-01T20:13:35Z</time>
      </trkpt>
      <trkpt lat="48.48042" lon="-0.06918">
        <ele>266.633</ele>
        <time>2016-06-01T20:13:15Z</time>
      </trkpt>
      <trkpt lat="48.48057" lon="-0.06845">
        <ele>264.21</ele>
        <time>2016-06-01T20:12:55Z</time>
      </trkpt>
      <trkpt lat="48.48072" lon="-0.06643">
        <ele>265.895</ele>
        <time>2016-06-01T20:12:35Z</time>
      </trkpt>
      <trkpt lat="48.48158" lon="-0.06448">
        <ele>263.649</ele>
        <time>2016-06-01T20:12:15Z</time>
      </trkpt>
      <trkpt lat="48.4818" lon="-0.06414">
        <ele>266.308</ele>
        <time>2016-06-01T20:11:55Z</time>
      </trkpt>
      <trkpt lat="48.48323" lon="-0.06255">
        <ele>273.311</ele>
        <time>2016-06-01T20:11:35Z</time>
      </trkpt>
      <trkpt lat="48.48469" lon="-0.06077">
        <ele>256.092</ele>
        <time>2016-06-01T20:11:15Z</time>
      </trkpt>
      <trkpt lat="48.48579" lon="-0.05933">
        <ele>245.432</ele>
        <time>2016-06-01T20:10:55Z</time>
      </trkpt>
      <trkpt lat="48.48662" lon="-0.05849">
        <ele>230.067</ele>
        <time>2016-06-01T20:10:35Z</time>
      </trkpt>
      <trkpt lat="48.4882" lon="-0.05695">
        <ele>217.098</ele>
        <time>2016-06-01T20:10:15Z</time>
      </trkpt>
      <trkpt lat="48.48987" lon="-0.05544">
        <ele>214.042</ele>
        <time>2016-06-01T20:09:55Z</time>
      </trkpt>
      <trkpt lat="48.48984" lon="-0.05523">
        <ele>214.21</ele>
        <time>2016-06-01T20:09:35Z</time>
      </trkpt>
      <trkpt lat="48.48961" lon="-0.05416">
        <ele>216.194</ele>
        <time>2016-06-01T20:09:15Z</time>
      </trkpt>
      <trkpt lat="48.48928" lon="-0.05323">
        <ele>219.021</ele>
        <time>2016-06-01T20:08:55Z</time>
      </trkpt>
      <trkpt lat="48.48945" lon="-0.05306">
        <ele>219.076</ele>
        <time>2016-06-01T20:08:35Z</time>
      </trkpt>
      <trkpt lat="48.49086" lon="-0.0525">
        <ele>229.35</ele>
        <time>2016-06-01T20:08:15Z</time>
      </trkpt>
      <trkpt lat="48.49105" lon="-0.05253">
        <ele>231.308</ele>
        <time>2016-06-01T20:07:55Z</time>
      </trkpt>
      <trkpt lat="48.4914" lon="-0.05283">
        <ele>231.809</ele>
        <time>2016-06-01T20:07:35Z</time>
      </trkpt>
      <trkpt lat="48.49166" lon="-0.05296">
        <ele>230.481</ele>
        <time>2016-06-01T20:07:15Z</time>
      </trkpt>
      <trkpt lat="48.49172" lon="-0.05315">
        <ele>229.441</ele>
        <time>2016-06-01T20:06:55Z</time>
      </trkpt>
      <trkpt lat="48.49186" lon="-0.05315">
        <ele>228.748</ele>
        <time>2016-06-01T20:06:35Z</time>
      </trkpt>
      <trkpt lat="48.49214" lon="-0.053">
        <ele>226.929</ele>
        <time>2016-06-01T20:06:15Z</time>
      </trkpt>
      <trkpt lat="48.4923" lon="-0.05319">
        <ele>224.523</ele>
        <time>2016-06-01T20:05:55Z</time>
      </trkpt>
      <trkpt lat="48.49251" lon="-0.05283">
        <ele>224.621</ele>
        <time>2016-06-01T20:05:35Z</time>
      </trkpt>
      <trkpt lat="48.49267" lon="-0.05242">
        <ele>222.595</ele>
        <time>2016-06-01T20:05:15Z</time>
      </trkpt>
      <trkpt lat="48.4929" lon="-0.05229">
        <ele>219.162</ele>
        <time>2016-06-01T20:04:55Z</time>
      </trkpt>
      <trkpt lat="48.49311" lon="-0.05178">
        <ele>216.587</ele>
        <time>2016-06-01T20:04:35Z</time>
      </trkpt>
      <trkpt lat="48.49317" lon="-0.05137">
        <ele>216.791</ele>
        <time>2016-06-01T20:04:15Z</time>
      </trkpt>
      <trkpt lat="48.49304" lon="-0.05018">
        <ele>218.008</ele>
        <time>2020-12-24T02:08:35Z</time>
      </trkpt>
      <trkpt lat="48.49313" lon="-0.04993">
        <ele>216.011</ele>
        <time>2020-12-24T02:08:15Z</time>
      </trkpt>
      <trkpt lat="48.49253" lon="-0.04951">
        <ele>218.256</ele>
        <time>2020-12-24T02:07:55Z</time>
      </trkpt>
      <trkpt lat="48.4922" lon="-0.04951">
        <ele>218.954</ele>
        <time>2020-12-24T02:07:35Z</time>
      </trkpt>
      <trkpt lat="48.49111" lon="-0.05004">
        <ele>223.03</ele>
        <time>2020-12-24T02:07:15Z</time>
      </trkpt>
      <trkpt lat="48.49071" lon="-0.05054">
        <ele>224.341</ele>
        <time>2020-12-24T02:06:55Z</time>
      </trkpt>
      <trkpt lat="48.4903" lon="-0.05074">
        <ele>223.175</ele>
        <time>2020-12-24T02:06:35Z</time>
      </trkpt>
      <trkpt lat="48.49027" lon="-0.0503">
        <ele>218.453</ele>
        <time>2020-12-24T02:06:15Z</time>
      </trkpt>
      <trkpt lat="48.48986" lon="-0.04929">
        <ele>208.897</ele>
        <time>2020-12-24T02:05:55Z</time>
      </trkpt>
      <trkpt lat="48.48924" lon="-0.0465">
        <ele>208.314</ele>
        <time>2020-12-24T02:05:35Z</time>
      </trkpt>
      <trkpt lat="48.48794" lon="-0.04176">
        <ele>232.839</ele>
        <time>2020-12-24T02:05:15Z</time>
      </trkpt>
      <trkpt lat="48.48821" lon="-0.04153">
        <ele>232.543</ele>
        <time>2020-12-24T02:04:55Z</time>
      </trkpt>
      <trkpt lat="48.48836" lon="-0.04113">
        <ele>234.908</ele>
        <time>2020-12-24T02:04:35Z</time>
      </trkpt>
      <trkpt lat="48.48868" lon="-0.03872">
        <ele>243.026</ele>
        <time>2020-12-24T02:04:15Z</time>
      </trkpt>
      <trkpt lat="48.48876" lon="-0.03675">
        <ele>247.433</ele>
        <time>2020-12-24T02:03:55Z</time>
      </trkpt>
      <trkpt lat="48.489" lon="-0.03655">
        <ele>244.678</ele>
        <time>2020-12-24T02:03:35Z</time>
      </trkpt>
      <trkpt lat="48.49098" lon="-0.03691">
        <ele>229.154</ele>
        <time>2020-12-24T02:03:15Z</time>
      </trkpt>
      <trkpt lat="48.49122" lon="-0.03685">
        <ele>226.985</ele>
        <time>2020-12-24T02:02:55Z</time>
      </trkpt>
      <trkpt lat="48.49117" lon="-0.03649">
        <ele>228.779</ele>
        <time>2020-12-24T02:02:35Z</time>
      </trkpt>
      <trkpt lat="48.49099" lon="-0.03611">
        <ele>231.847</ele>
        <time>2020-12-24T02:02:15Z</time>
      </trkpt>
      <trkpt lat="48.49099" lon="-0.03581">
        <ele>232.691</ele>
        <time>2020-12-24T02:01:55Z</time>
      </trkpt>
      <trkpt lat="48.49138" lon="-0.03546">
        <ele>227.918</ele>
        <time>2020-12-24T02:01:35Z</time>
      </trkpt>
      <trkpt lat="48.49164" lon="-0.03446">
        <ele>228.933</ele>
        <time>2020-12-24T02:01:15Z</time>
      </trkpt>
      <trkpt lat="48.49165" lon="-0.03385">
        <ele>232.027</ele>
        <time>2020-12-24T02:00:55Z</time>
      </trkpt>
      <trkpt lat="48.4919" lon="-0.03317">
        <ele>232.508</ele>
        <time>2020-12-24T02:00:35Z</time>
      </trkpt>
      <trkpt lat="48.49239" lon="-0.0325">
        <ele>231.319</ele>
        <time>2020-12-24T02:00:15Z</time>
      </trkpt>
      <trkpt lat="48.49307" lon="-0.03199">
        <ele>231.009</ele>
        <time>2020-12-24T01:59:55Z</time>
      </trkpt>
      <trkpt lat="48.49337" lon="-0.03204">
        <ele>229.019</ele>
        <time>2020-12-24T01:59:35Z</time>
      </trkpt>
      <trkpt lat="48.49336" lon="-0.03168">
        <ele>232.052</ele>
        <time>2020-12-24T01:59:15Z</time>
      </trkpt>
      <trkpt lat="48.49348" lon="-0.0313">
        <ele>233.873</ele>
        <time>2016-06-01T19:57:35Z</time>
      </trkpt>
      <trkpt lat="48.49442" lon="-0.02997">
        <ele>244.037</ele>
        <time>2016-06-01T19:57:15Z</time>
      </trkpt>
      <trkpt lat="48.49753" lon="-0.0256">
        <ele>257.895</ele>
        <time>2016-06-01T19:56:55Z</time>
      </trkpt>
      <trkpt lat="48.50111" lon="-0.02064">
        <ele>298.769</ele>
        <time>2016-06-01T19:56:35Z</time>
      </trkpt>
      <trkpt lat="48.50261" lon="-0.02296">
        <ele>299.276</ele>
        <time>2016-06-01T19:56:15Z</time>
      </trkpt>
      <trkpt lat="48.50288" lon="-0.02354">
        <ele>297.811</ele>
        <time>2016-06-01T19:55:55Z</time>
      </trkpt>
      <trkpt lat="48.50311" lon="-0.02497">
        <ele>293.185</ele>
        <time>2016-06-01T19:55:35Z</time>
      </trkpt>
      <trkpt lat="48.50346" lon="-0.02536">
        <ele>290.908</ele>
        <time>2016-06-01T19:55:15Z</time>
      </trkpt>
      <trkpt lat="48.50566" lon="-0.02729">
        <ele>298.72</ele>
        <time>2016-06-01T19:54:55Z</time>
      </trkpt>
      <trkpt lat="48.50613" lon="-0.0274">
        <ele>299.373</ele>
        <time>2016-06-01T19:54:35Z</time>
      </trkpt>
      <trkpt lat="48.50662" lon="-0.02723">
        <ele>299.092</ele>
        <time>2016-06-01T19:54:15Z</time>
      </trkpt>
      <trkpt lat="48.50731" lon="-0.02682">
        <ele>296.45</ele>
        <time>2016-06-01T19:53:55Z</time>
      </trkpt>
      <trkpt lat="48.50788" lon="-0.02661">
        <ele>292.611</ele>
        <time>2016-06-01T19:53:35Z</time>
      </trkpt>
      <trkpt lat="48.50847" lon="-0.02656">
        <ele>290.125</ele>
        <time>2016-06-01T19:53:15Z</time>
      </trkpt>
      <trkpt lat="48.50905" lon="-0.02673">
        <ele>285.443</ele>
        <time>2016-06-01T19:52:55Z</time>
      </trkpt>
      <trkpt lat="48.50937" lon="-0.02667">
        <ele>286.227</ele>
        <time>2016-06-01T19:52:35Z</time>
      </trkpt>
      <trkpt lat="48.5095" lon="-0.02676">
        <ele>284.494</ele>
        <time>2016-06-01T19:52:15Z</time>
      </trkpt>
      <trkpt lat="48.51044" lon="-0.02633">
        <ele>285.819</ele>
        <time>2016-06-01T19:51:55Z</time>
      </trkpt>
      <trkpt lat="48.51048" lon="-0.02611">
        <ele>286.783</ele>
        <time>2016-06-01T19:51:35Z</time>
      </trkpt>
      <trkpt lat="48.51048" lon="-0.02611">
        <ele>286.708</ele>
        <time>2016-06-01T19:51:15Z</time>
      </trkpt>
      <trkpt lat="48.51058" lon="-0.02588">
        <ele>288.526</ele>
        <time>2016-06-01T19:50:55Z</time>
      </trkpt>
      <trkpt lat="48.511" lon="-0.0257">
        <ele>287.733</ele>
        <time>2016-06-01T19:50:35Z</time>
      </trkpt>
      <trkpt lat="48.51115" lon="-0.02558">
        <ele>287.878</ele>
        <time>2016-06-01T19:50:15Z</time>
      </trkpt>
      <trkpt lat="48.51142" lon="-0.025">
        <ele>295.26</ele>
        <time>2016-06-01T19:49:55Z</time>
      </trkpt>
      <trkpt lat="48.51139" lon="-0.02422">
        <ele>303.491</ele>
        <time>2016-06-01T19:49:35Z</time>
      </trkpt>
      <trkpt lat="48.51148" lon="-0.02388">
        <ele>305.765</ele>
        <time>2016-06-01T19:49:15Z</time>
      </trkpt>
      <trkpt lat="48.51175" lon="-0.02358">
        <ele>306.873</ele>
        <time>2016-06-01T19:48:55Z</time>
      </trkpt>
      <trkpt lat="48.512" lon="-0.02313">
        <ele>306.987</ele>
        <time>2016-06-01T19:48:35Z</time>
      </trkpt>
      <trkpt lat="48.51215" lon="-0.02246">
        <ele>308.114</ele>
        <time>2016-06-01T19:48:15Z</time>
      </trkpt>
      <trkpt lat="48.5122" lon="-0.02184">
        <ele>310.359</ele>
        <time>2016-06-01T19:47:55Z</time>
      </trkpt>
      <trkpt lat="48.5122" lon="-0.02111">
        <ele>313.983</ele>
        <time>2016-06-01T19:47:35Z</time>
      </trkpt>
      <trkpt lat="48.51215" lon="-0.02047">
        <ele>317.008</ele>
        <time>2016-06-01T19:47:15Z</time>
      </trkpt>
      <trkpt lat="48.51199" lon="-0.02013">
        <ele>317.225</ele>
        <time>2016-06-01T19:46:55Z</time>
      </trkpt>
      <trkpt lat="48.51188" lon="-0.0197">
        <ele>317.505</ele>
        <time>2016-06-01T19:46:35Z</time>
      </trkpt>
      <trkpt lat="48.51188" lon="-0.01933">
        <ele>317.979</ele>
        <time>2016-06-01T19:46:15Z</time>
      </trkpt>
      <trkpt lat="48.51225" lon="-0.01753">
        <ele>320.636</ele>
        <time>2016-06-01T19:45:55Z</time>
      </trkpt>
      <trkpt lat="48.51235" lon="-0.01693">
        <ele>319.957</ele>
        <time>2016-06-01T19:45:35Z</time>
      </trkpt>
      <trkpt lat="48.51223" lon="-0.01643">
        <ele>321.961</ele>
        <time>2016-06-01T19:45:15Z</time>
      </trkpt>
      <trkpt lat="48.51209" lon="-0.01616">
        <ele>325.089</ele>
        <time>2016-06-01T19:44:55Z</time>
      </trkpt>
      <trkpt lat="48.51512" lon="-0.01225">
        <ele>298.013</ele>
        <time>2016-06-01T19:44:35Z</time>
      </trkpt>
      <trkpt lat="48.51535" lon="-0.01193">
        <ele>299.75</ele>
        <time>2016-06-01T19:44:15Z</time>
      </trkpt>
      <trkpt lat="48.51557" lon="-0.01189">
        <ele>298.095</ele>
        <time>2016-06-01T19:43:55Z</time>
      </trkpt>
      <trkpt lat="48.51562" lon="-0.01178">
        <ele>297.679</ele>
        <time>2016-06-01T19:43:35Z</time>
      </trkpt>
      <trkpt lat="48.51604" lon="-0.01025">
        <ele>300.308</ele>
        <time>2016-06-01T19:43:15Z</time>
      </trkpt>
      <trkpt lat="48.51633" lon="-0.0092">
        <ele>295.307</ele>
        <time>2016-06-01T19:42:55Z</time>
      </trkpt>
      <trkpt lat="48.51667" lon="-0.00845">
        <ele>296.361</ele>
        <time>2016-06-01T19:42:35Z</time>
      </trkpt>
      <trkpt lat="48.51688" lon="-0.00747">
        <ele>297.531</ele>
        <time>2016-06-01T19:42:15Z</time>
      </trkpt>
      <trkpt lat="48.5167" lon="-0.00723">
        <ele>304.032</ele>
        <time>2016-06-01T19:41:55Z</time>
      </trkpt>
      <trkpt lat="48.5167" lon="-0.00723">
        <ele>304.023</ele>
        <time>2016-06-01T19:41:35Z</time>
      </trkpt>
      <trkpt lat="48.51357" lon="0.01758">
        <ele>410.977</ele>
        <time>2016-06-01T19:41:15Z</time>
      </trkpt>
      <trkpt lat="48.519" lon="0.01565">
        <ele>383.635</ele>
        <time>2016-06-01T19:40:55Z</time>
      </trkpt>
      <trkpt lat="48.52512" lon="0.01981">
        <ele>375.689</ele>
        <time>2016-06-01T19:40:35Z</time>
      </trkpt>
      <trkpt lat="48.52536" lon="0.02002">
        <ele>376.956</ele>
        <time>2016-06-01T19:40:15Z</time>
      </trkpt>
      <trkpt lat="48.52845" lon="0.02208">
        <ele>383.471</ele>
        <time>2016-06-01T19:39:55Z</time>
      </trkpt>
      <trkpt lat="48.53298" lon="0.02519">
        <ele>375.465</ele>
        <time>2016-06-01T19:39:35Z</time>
      </trkpt>
      <trkpt lat="48.53467" lon="0.02625">
        <ele>375.708</ele>
        <time>2016-06-01T19:39:15Z</time>
      </trkpt>
      <trkpt lat="48.53973" lon="0.02968">
        <ele>374.321</ele>
        <time>2016-06-01T19:38:55Z</time>
      </trkpt>
      <trkpt lat="48.53983" lon="0.03425">
        <ele>378.165</ele>
        <time>2016-06-01T19:38:35Z</time>
      </trkpt>
      <trkpt lat="48.54388" lon="0.0368">
        <ele>384.093</ele>
        <time>2016-06-01T19:38:15Z</time>
      </trkpt>
      <trkpt lat="48.54377" lon="0.03734">
        <ele>384.318</ele>
        <time>2016-06-01T19:37:55Z</time>
      </trkpt>
      <trkpt lat="48.54885" lon="0.04073">
        <ele>405.459</ele>
        <time>2016-06-01T19:37:35Z</time>
      </trkpt>
      <trkpt lat="48.54882" lon="0.04294">
        <ele>410.413</ele>
        <time>2016-06-01T19:37:15Z</time>
      </trkpt>
      <trkpt lat="48.5509" lon="0.03715">
        <ele>410.341</ele>
        <time>2016-06-01T19:36:55Z</time>
      </trkpt>
      <trkpt lat="48.5509" lon="0.03715">
        <ele>410.315</ele>
        <time>2016-06-01T19:36:35Z</time>
      </trkpt>
      <trkpt lat="48.55091" lon="0.03715">
        <ele>410.312</ele>
        <time>2016-06-01T19:36:15Z</time>
      </trkpt>
      <trkpt lat="48.55672" lon="0.03545">
        <ele>357.977</ele>
        <time>2016-06-01T19:35:55Z</time>
      </trkpt>
      <trkpt lat="48.55784" lon="0.03112">
        <ele>350.861</ele>
        <time>2016-06-01T19:35:35Z</time>
      </trkpt>
      <trkpt lat="48.55828" lon="0.03131">
        <ele>349.908</ele>
        <time>2016-06-01T19:35:15Z</time>
      </trkpt>
      <trkpt lat="48.55764" lon="0.01936">
        <ele>366.823</ele>
        <time>2016-06-01T19:34:55Z</time>
      </trkpt>
      <trkpt lat="48.55902" lon="0.00318">
        <ele>375.203</ele>
        <time>2016-06-01T19:34:35Z</time>
      </trkpt>
      <trkpt lat="48.55936" lon="0.00337">
        <ele>370.659</ele>
        <time>2016-06-01T19:34:15Z</time>
      </trkpt>
      <trkpt lat="48.55972" lon="0.00367">
        <ele>365.184</ele>
        <time>2016-06-01T19:33:55Z</time>
      </trkpt>
      <trkpt lat="48.56004" lon="0.00361">
        <ele>362.395</ele>
        <time>2016-06-01T19:33:35Z</time>
      </trkpt>
      <trkpt lat="48.56027" lon="0.00384">
        <ele>357.389</ele>
        <time>2016-06-01T19:33:15Z</time>
      </trkpt>
      <trkpt lat="48.56078" lon="0.00434">
        <ele>353.277</ele>
        <time>2016-06-01T19:32:55Z</time>
      </trkpt>
      <trkpt lat="48.56146" lon="0.00453">
        <ele>346.911</ele>
        <time>2016-06-01T19:32:35Z</time>
      </trkpt>
      <trkpt lat="48.5618" lon="0.0049">
        <ele>342.298</ele>
        <time>2016-06-01T19:32:15Z</time>
      </trkpt>
      <trkpt lat="48.56268" lon="0.00509">
        <ele>332.383</ele>
        <time>2016-06-01T19:31:55Z</time>
      </trkpt>
      <trkpt lat="48.56287" lon="0.00483">
        <ele>328.827</ele>
        <time>2016-06-01T19:31:35Z</time>
      </trkpt>
      <trkpt lat="48.56335" lon="0.00464">
        <ele>323.208</ele>
        <time>2016-06-01T19:31:15Z</time>
      </trkpt>
      <trkpt lat="48.56442" lon="0.00505">
        <ele>316.015</ele>
        <time>2016-06-01T19:30:55Z</time>
      </trkpt>
      <trkpt lat="48.56496" lon="0.00539">
        <ele>308.687</ele>
        <time>2016-06-01T19:30:35Z</time>
      </trkpt>
      <trkpt lat="48.56471" lon="0.00429">
        <ele>312.517</ele>
        <time>2016-06-01T19:30:15Z</time>
      </trkpt>
      <trkpt lat="48.5645" lon="0.00417">
        <ele>313.642</ele>
        <time>2016-06-01T19:29:55Z</time>
      </trkpt>
      <trkpt lat="48.56437" lon="0.00387">
        <ele>313.353</ele>
        <time>2016-06-01T19:29:35Z</time>
      </trkpt>
      <trkpt lat="48.56402" lon="0.00346">
        <ele>314.877</ele>
        <time>2016-06-01T19:29:15Z</time>
      </trkpt>
      <trkpt lat="48.56403" lon="0.00247">
        <ele>319.925</ele>
        <time>2016-06-01T19:28:55Z</time>
      </trkpt>
      <trkpt lat="48.56372" lon="0.00236">
        <ele>321.029</ele>
        <time>2016-06-01T19:28:35Z</time>
      </trkpt>
      <trkpt lat="48.56322" lon="0.00223">
        <ele>323.776</ele>
        <time>2016-06-01T19:28:15Z</time>
      </trkpt>
      <trkpt lat="48.56281" lon="0.00223">
        <ele>325.871</ele>
        <time>2016-06-01T19:27:55Z</time>
      </trkpt>
      <trkpt lat="48.56182" lon="0.00189">
        <ele>326.985</ele>
        <time>2016-06-01T19:27:35Z</time>
      </trkpt>
      <trkpt lat="48.56136" lon="0.0014">
        <ele>334.708</ele>
        <time>2016-06-01T19:27:15Z</time>
      </trkpt>
      <trkpt lat="48.56105" lon="0.00071">
        <ele>342.223</ele>
        <time>2016-06-01T19:26:55Z</time>
      </trkpt>
      <trkpt lat="48.56094" lon="-2.0E-5">
        <ele>349.649</ele>
        <time>2016-06-01T19:26:35Z</time>
      </trkpt>
      <trkpt lat="48.5605" lon="-0.00103">
        <ele>353.495</ele>
        <time>2016-06-01T19:26:15Z</time>
      </trkpt>
      <trkpt lat="48.56001" lon="-0.00148">
        <ele>354.197</ele>
        <time>2016-06-01T19:25:55Z</time>
      </trkpt>
      <trkpt lat="48.5598" lon="-0.00186">
        <ele>357.668</ele>
        <time>2016-06-01T19:25:35Z</time>
      </trkpt>
      <trkpt lat="48.55952" lon="-0.00214">
        <ele>359.922</ele>
        <time>2016-06-01T19:25:15Z</time>
      </trkpt>
      <trkpt lat="48.56109" lon="-0.02062">
        <ele>397.01</ele>
        <time>2016-06-01T19:24:55Z</time>
      </trkpt>
      <trkpt lat="48.56332" lon="-0.02352">
        <ele>388.744</ele>
        <time>2016-06-01T19:24:35Z</time>
      </trkpt>
      <trkpt lat="48.56195" lon="-0.02442">
        <ele>394.081</ele>
        <time>2016-06-01T19:24:15Z</time>
      </trkpt>
      <trkpt lat="48.55817" lon="-0.03326">
        <ele>401.336</ele>
        <time>2016-06-01T19:23:55Z</time>
      </trkpt>
      <trkpt lat="48.55834" lon="-0.03377">
        <ele>397.49</ele>
        <time>2016-06-01T19:23:35Z</time>
      </trkpt>
      <trkpt lat="48.55849" lon="-0.03407">
        <ele>396.208</ele>
        <time>2016-06-01T19:23:15Z</time>
      </trkpt>
      <trkpt lat="48.55862" lon="-0.03493">
        <ele>396.91</ele>
        <time>2016-06-01T19:22:55Z</time>
      </trkpt>
      <trkpt lat="48.55854" lon="-0.03515">
        <ele>396.564</ele>
        <time>2016-06-01T19:22:35Z</time>
      </trkpt>
      <trkpt lat="48.55855" lon="-0.03686">
        <ele>388.543</ele>
        <time>2016-06-01T19:22:15Z</time>
      </trkpt>
      <trkpt lat="48.55865" lon="-0.03721">
        <ele>386.692</ele>
        <time>2016-06-01T19:21:55Z</time>
      </trkpt>
      <trkpt lat="48.55876" lon="-0.03787">
        <ele>384.253</ele>
        <time>2016-06-01T19:21:35Z</time>
      </trkpt>
      <trkpt lat="48.55871" lon="-0.03849">
        <ele>384.157</ele>
        <time>2016-06-01T19:21:15Z</time>
      </trkpt>
      <trkpt lat="48.55857" lon="-0.03892">
        <ele>383.865</ele>
        <time>2016-06-01T19:20:55Z</time>
      </trkpt>
      <trkpt lat="48.55866" lon="-0.03939">
        <ele>381.689</ele>
        <time>2016-06-01T19:20:35Z</time>
      </trkpt>
      <trkpt lat="48.55882" lon="-0.03946">
        <ele>382.526</ele>
        <time>2016-06-01T19:20:15Z</time>
      </trkpt>
      <trkpt lat="48.55952" lon="-0.04388">
        <ele>364.571</ele>
        <time>2016-06-01T19:19:55Z</time>
      </trkpt>
      <trkpt lat="48.55946" lon="-0.04429">
        <ele>363.875</ele>
        <time>2016-06-01T19:19:35Z</time>
      </trkpt>
      <trkpt lat="48.55974" lon="-0.04635">
        <ele>362.708</ele>
        <time>2016-06-01T19:19:15Z</time>
      </trkpt>
      <trkpt lat="48.56027" lon="-0.04948">
        <ele>351.826</ele>
        <time>2016-06-01T19:18:55Z</time>
      </trkpt>
      <trkpt lat="48.56045" lon="-0.04997">
        <ele>348.415</ele>
        <time>2016-06-01T19:18:35Z</time>
      </trkpt>
      <trkpt lat="48.56065" lon="-0.04984">
        <ele>347.798</ele>
        <time>2016-06-01T19:18:15Z</time>
      </trkpt>
      <trkpt lat="48.55972" lon="-0.05662">
        <ele>359.911</ele>
        <time>2016-06-01T19:17:55Z</time>
      </trkpt>
      <trkpt lat="48.56368" lon="-0.05771">
        <ele>357.162</ele>
        <time>2020-12-24T01:18:55Z</time>
      </trkpt>
      <trkpt lat="48.56537" lon="-0.05686">
        <ele>353.816</ele>
        <time>2020-12-24T01:18:35Z</time>
      </trkpt>
      <trkpt lat="48.56673" lon="-0.05871">
        <ele>348.864</ele>
        <time>2016-06-01T19:16:55Z</time>
      </trkpt>
      <trkpt lat="48.56673" lon="-0.05871">
        <ele>348.838</ele>
        <time>2016-06-01T19:16:35Z</time>
      </trkpt>
      <trkpt lat="48.57183" lon="-0.06032">
        <ele>352.645</ele>
        <time>2016-06-01T19:16:15Z</time>
      </trkpt>
      <trkpt lat="48.57206" lon="-0.06025">
        <ele>351.91</ele>
        <time>2016-06-01T19:15:55Z</time>
      </trkpt>
      <trkpt lat="48.57237" lon="-0.06044">
        <ele>352.314</ele>
        <time>2016-06-01T19:15:35Z</time>
      </trkpt>
      <trkpt lat="48.58882" lon="-0.06557">
        <ele>371.608</ele>
        <time>2016-06-01T19:15:15Z</time>
      </trkpt>
      <trkpt lat="48.58882" lon="-0.06557">
        <ele>371.608</ele>
        <time>2016-06-01T19:15:15Z</time>
      </trkpt>
      <trkpt lat="48.59647" lon="-0.05746">
        <ele>290.726</ele>
        <time>2016-06-01T19:14:55Z</time>
      </trkpt>
      <trkpt lat="48.59681" lon="-0.0572">
        <ele>287.46</ele>
        <time>2016-06-01T19:14:35Z</time>
      </trkpt>
      <trkpt lat="48.5981" lon="-0.05804">
        <ele>279.686</ele>
        <time>2016-06-01T19:14:15Z</time>
      </trkpt>
      <trkpt lat="48.59817" lon="-0.05922">
        <ele>277.035</ele>
        <time>2016-06-01T19:13:55Z</time>
      </trkpt>
      <trkpt lat="48.59846" lon="-0.06014">
        <ele>273.956</ele>
        <time>2016-06-01T19:13:35Z</time>
      </trkpt>
      <trkpt lat="48.59874" lon="-0.06098">
        <ele>270.95</ele>
        <time>2016-06-01T19:13:15Z</time>
      </trkpt>
      <trkpt lat="48.59908" lon="-0.06141">
        <ele>274.158</ele>
        <time>2016-06-01T19:12:55Z</time>
      </trkpt>
      <trkpt lat="48.59979" lon="-0.06169">
        <ele>270.252</ele>
        <time>2016-06-01T19:12:35Z</time>
      </trkpt>
      <trkpt lat="48.60071" lon="-0.06177">
        <ele>264.259</ele>
        <time>2016-06-01T19:12:15Z</time>
      </trkpt>
      <trkpt lat="48.60151" lon="-0.06186">
        <ele>260.414</ele>
        <time>2016-06-01T19:11:55Z</time>
      </trkpt>
      <trkpt lat="48.60195" lon="-0.06233">
        <ele>264.658</ele>
        <time>2016-06-01T19:11:35Z</time>
      </trkpt>
      <trkpt lat="48.60222" lon="-0.06244">
        <ele>265.908</ele>
        <time>2016-06-01T19:11:15Z</time>
      </trkpt>
      <trkpt lat="48.60351" lon="-0.06231">
        <ele>261.311</ele>
        <time>2016-06-01T19:10:55Z</time>
      </trkpt>
      <trkpt lat="48.6042" lon="-0.06261">
        <ele>258.283</ele>
        <time>2016-06-01T19:10:35Z</time>
      </trkpt>
      <trkpt lat="48.60476" lon="-0.06302">
        <ele>255.423</ele>
        <time>2016-06-01T19:10:15Z</time>
      </trkpt>
      <trkpt lat="48.60484" lon="-0.06353">
        <ele>260.752</ele>
        <time>2016-06-01T19:09:55Z</time>
      </trkpt>
      <trkpt lat="48.6046" lon="-0.06416">
        <ele>271.743</ele>
        <time>2016-06-01T19:09:35Z</time>
      </trkpt>
      <trkpt lat="48.60459" lon="-0.06467">
        <ele>271.547</ele>
        <time>2016-06-01T19:09:15Z</time>
      </trkpt>
      <trkpt lat="48.60477" lon="-0.06553">
        <ele>267.635</ele>
        <time>2016-06-01T19:08:55Z</time>
      </trkpt>
      <trkpt lat="48.60613" lon="-0.06383">
        <ele>250.369</ele>
        <time>2016-06-01T19:08:35Z</time>
      </trkpt>
      <trkpt lat="48.60598" lon="-0.06295">
        <ele>247.336</ele>
        <time>2016-06-01T19:08:15Z</time>
      </trkpt>
      <trkpt lat="48.60611" lon="-0.06276">
        <ele>246.091</ele>
        <time>2016-06-01T19:07:55Z</time>
      </trkpt>
      <trkpt lat="48.60622" lon="-0.06186">
        <ele>247.515</ele>
        <time>2016-06-01T19:07:35Z</time>
      </trkpt>
      <trkpt lat="48.6062" lon="-0.06085">
        <ele>255.108</ele>
        <time>2016-06-01T19:07:15Z</time>
      </trkpt>
      <trkpt lat="48.60632" lon="-0.05963">
        <ele>268.319</ele>
        <time>2016-06-01T19:06:55Z</time>
      </trkpt>
      <trkpt lat="48.60613" lon="-0.05879">
        <ele>277.781</ele>
        <time>2016-06-01T19:06:35Z</time>
      </trkpt>
      <trkpt lat="48.6062" lon="-0.05853">
        <ele>279.391</ele>
        <time>2016-06-01T19:06:15Z</time>
      </trkpt>
      <trkpt lat="48.60721" lon="-0.05695">
        <ele>287.256</ele>
        <time>2016-06-01T19:05:55Z</time>
      </trkpt>
      <trkpt lat="48.60751" lon="-0.05575">
        <ele>298.157</ele>
        <time>2016-06-01T19:05:35Z</time>
      </trkpt>
      <trkpt lat="48.60784" lon="-0.0554">
        <ele>298.281</ele>
        <time>2016-06-01T19:05:15Z</time>
      </trkpt>
      <trkpt lat="48.60863" lon="-0.05502">
        <ele>293.759</ele>
        <time>2016-06-01T19:04:55Z</time>
      </trkpt>
      <trkpt lat="48.60859" lon="-0.05446">
        <ele>300.043</ele>
        <time>2016-06-01T19:04:35Z</time>
      </trkpt>
      <trkpt lat="48.60864" lon="-0.05216">
        <ele>312.86</ele>
        <time>2016-06-01T19:04:15Z</time>
      </trkpt>
      <trkpt lat="48.60843" lon="-0.05186">
        <ele>316.975</ele>
        <time>2016-06-01T19:03:55Z</time>
      </trkpt>
      <trkpt lat="48.60809" lon="-0.05085">
        <ele>322.859</ele>
        <time>2016-06-01T19:03:35Z</time>
      </trkpt>
      <trkpt lat="48.60768" lon="-0.05014">
        <ele>324.208</ele>
        <time>2016-06-01T19:03:15Z</time>
      </trkpt>
      <trkpt lat="48.60781" lon="-0.04931">
        <ele>320.615</ele>
        <time>2016-06-01T19:02:55Z</time>
      </trkpt>
      <trkpt lat="48.60791" lon="-0.04796">
        <ele>321.523</ele>
        <time>2016-06-01T19:02:35Z</time>
      </trkpt>
      <trkpt lat="48.60811" lon="-0.04643">
        <ele>323.533</ele>
        <time>2016-06-01T19:02:15Z</time>
      </trkpt>
      <trkpt lat="48.60829" lon="-0.04538">
        <ele>324.624</ele>
        <time>2016-06-01T19:01:55Z</time>
      </trkpt>
      <trkpt lat="48.60826" lon="-0.04478">
        <ele>325.745</ele>
        <time>2016-06-01T19:01:35Z</time>
      </trkpt>
      <trkpt lat="48.60777" lon="-0.04442">
        <ele>326.159</ele>
        <time>2016-06-01T19:01:15Z</time>
      </trkpt>
      <trkpt lat="48.60656" lon="-0.04392">
        <ele>330.057</ele>
        <time>2016-06-01T19:00:55Z</time>
      </trkpt>
      <trkpt lat="48.60598" lon="-0.04388">
        <ele>332.111</ele>
        <time>2016-06-01T19:00:35Z</time>
      </trkpt>
      <trkpt lat="48.60558" lon="-0.04405">
        <ele>332.538</ele>
        <time>2016-06-01T19:00:15Z</time>
      </trkpt>
      <trkpt lat="48.60477" lon="-0.04083">
        <ele>338.533</ele>
        <time>2016-06-01T18:59:55Z</time>
      </trkpt>
      <trkpt lat="48.60477" lon="-0.04051">
        <ele>338.257</ele>
        <time>2016-06-01T18:59:35Z</time>
      </trkpt>
      <trkpt lat="48.60951" lon="-0.03933">
        <ele>328.508</ele>
        <time>2016-06-01T18:59:15Z</time>
      </trkpt>
      <trkpt lat="48.60972" lon="-0.03897">
        <ele>327.015</ele>
        <time>2016-06-01T18:58:55Z</time>
      </trkpt>
      <trkpt lat="48.60998" lon="-0.03875">
        <ele>325.187</ele>
        <time>2016-06-01T18:58:35Z</time>
      </trkpt>
      <trkpt lat="48.61013" lon="-0.03851">
        <ele>324.217</ele>
        <time>2016-06-01T18:58:15Z</time>
      </trkpt>
      <trkpt lat="48.61053" lon="-0.0374">
        <ele>320.076</ele>
        <time>2016-06-01T18:57:55Z</time>
      </trkpt>
      <trkpt lat="48.61067" lon="-0.03706">
        <ele>320.017</ele>
        <time>2016-06-01T18:57:35Z</time>
      </trkpt>
      <trkpt lat="48.61089" lon="-0.03684">
        <ele>319.971</ele>
        <time>2016-06-01T18:57:15Z</time>
      </trkpt>
      <trkpt lat="48.61109" lon="-0.03654">
        <ele>320.179</ele>
        <time>2016-06-01T18:56:55Z</time>
      </trkpt>
      <trkpt lat="48.61121" lon="-0.03618">
        <ele>318.323</ele>
        <time>2016-06-01T18:56:35Z</time>
      </trkpt>
      <trkpt lat="48.6112" lon="-0.03575">
        <ele>317.24</ele>
        <time>2016-06-01T18:56:15Z</time>
      </trkpt>
      <trkpt lat="48.61131" lon="-0.03536">
        <ele>312.035</ele>
        <time>2016-06-01T18:55:55Z</time>
      </trkpt>
      <trkpt lat="48.61175" lon="-0.03515">
        <ele>300.479</ele>
        <time>2016-06-01T18:55:35Z</time>
      </trkpt>
      <trkpt lat="48.61204" lon="-0.0353">
        <ele>294.808</ele>
        <time>2016-06-01T18:55:15Z</time>
      </trkpt>
      <trkpt lat="48.61274" lon="-0.03622">
        <ele>286.711</ele>
        <time>2016-06-01T18:54:55Z</time>
      </trkpt>
      <trkpt lat="48.61317" lon="-0.03712">
        <ele>282.892</ele>
        <time>2016-06-01T18:54:35Z</time>
      </trkpt>
      <trkpt lat="48.6136" lon="-0.03746">
        <ele>277.432</ele>
        <time>2016-06-01T18:54:15Z</time>
      </trkpt>
      <trkpt lat="48.61384" lon="-0.03755">
        <ele>273.971</ele>
        <time>2016-06-01T18:53:55Z</time>
      </trkpt>
      <trkpt lat="48.61511" lon="-0.03665">
        <ele>251.652</ele>
        <time>2016-06-01T18:53:35Z</time>
      </trkpt>
      <trkpt lat="48.6188" lon="-0.03738">
        <ele>230.526</ele>
        <time>2016-06-01T18:53:15Z</time>
      </trkpt>
      <trkpt lat="48.61892" lon="-0.03427">
        <ele>230.914</ele>
        <time>2016-06-01T18:52:55Z</time>
      </trkpt>
      <trkpt lat="48.61906" lon="-0.03403">
        <ele>230.498</ele>
        <time>2016-06-01T18:52:35Z</time>
      </trkpt>
      <trkpt lat="48.61955" lon="-0.03424">
        <ele>228.695</ele>
        <time>2016-06-01T18:52:15Z</time>
      </trkpt>
      <trkpt lat="48.62016" lon="-0.03459">
        <ele>225.94</ele>
        <time>2016-06-01T18:51:55Z</time>
      </trkpt>
      <trkpt lat="48.62036" lon="-0.03463">
        <ele>225.034</ele>
        <time>2016-06-01T18:51:35Z</time>
      </trkpt>
      <trkpt lat="48.62073" lon="-0.03444">
        <ele>225.708</ele>
        <time>2016-06-01T18:51:15Z</time>
      </trkpt>
      <trkpt lat="48.62103" lon="-0.03444">
        <ele>225.317</ele>
        <time>2016-06-01T18:50:55Z</time>
      </trkpt>
      <trkpt lat="48.62157" lon="-0.03463">
        <ele>223.143</ele>
        <time>2016-06-01T18:50:35Z</time>
      </trkpt>
      <trkpt lat="48.62181" lon="-0.03452">
        <ele>223.982</ele>
        <time>2016-06-01T18:50:15Z</time>
      </trkpt>
      <trkpt lat="48.62216" lon="-0.03424">
        <ele>223.425</ele>
        <time>2016-06-01T18:49:55Z</time>
      </trkpt>
      <trkpt lat="48.62252" lon="-0.0342">
        <ele>220.126</ele>
        <time>2016-06-01T18:49:35Z</time>
      </trkpt>
      <trkpt lat="48.62284" lon="-0.03435">
        <ele>218.94</ele>
        <time>2016-06-01T18:49:15Z</time>
      </trkpt>
      <trkpt lat="48.62328" lon="-0.03446">
        <ele>219.038</ele>
        <time>2016-06-01T18:48:55Z</time>
      </trkpt>
      <trkpt lat="48.6238" lon="-0.03437">
        <ele>217.322</ele>
        <time>2016-06-01T18:48:35Z</time>
      </trkpt>
      <trkpt lat="48.62435" lon="-0.03446">
        <ele>216.359</ele>
        <time>2016-06-01T18:48:15Z</time>
      </trkpt>
      <trkpt lat="48.62473" lon="-0.03424">
        <ele>216.034</ele>
        <time>2016-06-01T18:47:55Z</time>
      </trkpt>
      <trkpt lat="48.62496" lon="-0.03397">
        <ele>215.328</ele>
        <time>2016-06-01T18:47:35Z</time>
      </trkpt>
      <trkpt lat="48.62534" lon="-0.03369">
        <ele>213.808</ele>
        <time>2016-06-01T18:47:15Z</time>
      </trkpt>
      <trkpt lat="48.62565" lon="-0.03373">
        <ele>213.005</ele>
        <time>2016-06-01T18:46:55Z</time>
      </trkpt>
      <trkpt lat="48.62612" lon="-0.03356">
        <ele>213.041</ele>
        <time>2016-06-01T18:46:35Z</time>
      </trkpt>
      <trkpt lat="48.62666" lon="-0.0327">
        <ele>210.721</ele>
        <time>2016-06-01T18:46:15Z</time>
      </trkpt>
      <trkpt lat="48.62791" lon="-0.03118">
        <ele>204.962</ele>
        <time>2016-06-01T18:45:55Z</time>
      </trkpt>
      <trkpt lat="48.62829" lon="-0.03038">
        <ele>203.223</ele>
        <time>2016-06-01T18:45:35Z</time>
      </trkpt>
      <trkpt lat="48.6285" lon="-0.03017">
        <ele>202.027</ele>
        <time>2016-06-01T18:45:15Z</time>
      </trkpt>
      <trkpt lat="48.62879" lon="-0.03017">
        <ele>201.695</ele>
        <time>2016-06-01T18:44:55Z</time>
      </trkpt>
      <trkpt lat="48.62957" lon="-0.03058">
        <ele>200.939</ele>
        <time>2016-06-01T18:44:35Z</time>
      </trkpt>
      <trkpt lat="48.62979" lon="-0.03066">
        <ele>200.586</ele>
        <time>2016-06-01T18:44:15Z</time>
      </trkpt>
      <trkpt lat="48.63035" lon="-0.0303">
        <ele>200.281</ele>
        <time>2016-06-01T18:43:55Z</time>
      </trkpt>
      <trkpt lat="48.63113" lon="-0.02946">
        <ele>206.045</ele>
        <time>2016-06-01T18:43:35Z</time>
      </trkpt>
      <trkpt lat="48.63158" lon="-0.02837">
        <ele>210.008</ele>
        <time>2016-06-01T18:43:15Z</time>
      </trkpt>
      <trkpt lat="48.63209" lon="-0.02774">
        <ele>213.625</ele>
        <time>2016-06-01T18:42:55Z</time>
      </trkpt>
      <trkpt lat="48.63266" lon="-0.02712">
        <ele>220.823</ele>
        <time>2016-06-01T18:42:35Z</time>
      </trkpt>
      <trkpt lat="48.63764" lon="-0.02319">
        <ele>264.297</ele>
        <time>2016-06-01T18:42:15Z</time>
      </trkpt>
      <trkpt lat="48.63819" lon="-0.023">
        <ele>269.161</ele>
        <time>2016-06-01T18:41:55Z</time>
      </trkpt>
      <trkpt lat="48.63835" lon="-0.02285">
        <ele>269.862</ele>
        <time>2016-06-01T18:41:35Z</time>
      </trkpt>
      <trkpt lat="48.63859" lon="-0.02281">
        <ele>270.066</ele>
        <time>2016-06-01T18:41:15Z</time>
      </trkpt>
      <trkpt lat="48.63876" lon="-0.02307">
        <ele>270.534</ele>
        <time>2016-06-01T18:40:55Z</time>
      </trkpt>
      <trkpt lat="48.63941" lon="-0.02652">
        <ele>270.158</ele>
        <time>2016-06-01T18:40:35Z</time>
      </trkpt>
      <trkpt lat="48.63954" lon="-0.02764">
        <ele>269.585</ele>
        <time>2016-06-01T18:40:15Z</time>
      </trkpt>
      <trkpt lat="48.63995" lon="-0.03025">
        <ele>265.39</ele>
        <time>2016-06-01T18:39:55Z</time>
      </trkpt>
      <trkpt lat="48.64015" lon="-0.03079">
        <ele>263.814</ele>
        <time>2016-06-01T18:39:35Z</time>
      </trkpt>
      <trkpt lat="48.64037" lon="-0.0318">
        <ele>262.908</ele>
        <time>2016-06-01T18:39:15Z</time>
      </trkpt>
      <trkpt lat="48.64066" lon="-0.03259">
        <ele>261.717</ele>
        <time>2016-06-01T18:38:55Z</time>
      </trkpt>
      <trkpt lat="48.64284" lon="-0.04036">
        <ele>259.661</ele>
        <time>2016-06-01T18:38:35Z</time>
      </trkpt>
      <trkpt lat="48.64353" lon="-0.04347">
        <ele>251.581</ele>
        <time>2016-06-01T18:38:15Z</time>
      </trkpt>
      <trkpt lat="48.64336" lon="-0.04366">
        <ele>251.059</ele>
        <time>2016-06-01T18:37:55Z</time>
      </trkpt>
      <trkpt lat="48.64406" lon="-0.04562">
        <ele>248.43</ele>
        <time>2016-06-01T18:37:35Z</time>
      </trkpt>
      <trkpt lat="48.64429" lon="-0.04628">
        <ele>247.674</ele>
        <time>2016-06-01T18:37:15Z</time>
      </trkpt>
      <trkpt lat="48.64504" lon="-0.04909">
        <ele>243.042</ele>
        <time>2016-06-01T18:36:55Z</time>
      </trkpt>
      <trkpt lat="48.64502" lon="-0.04926">
        <ele>243.096</ele>
        <time>2016-06-01T18:36:35Z</time>
      </trkpt>
      <trkpt lat="48.6457" lon="-0.05057">
        <ele>241.653</ele>
        <time>2016-06-01T18:36:15Z</time>
      </trkpt>
      <trkpt lat="48.64599" lon="-0.05178">
        <ele>244.128</ele>
        <time>2016-06-01T18:35:55Z</time>
      </trkpt>
      <trkpt lat="48.64637" lon="-0.05259">
        <ele>244.242</ele>
        <time>2016-06-01T18:35:35Z</time>
      </trkpt>
      <trkpt lat="48.64661" lon="-0.05495">
        <ele>237.008</ele>
        <time>2016-06-01T18:35:15Z</time>
      </trkpt>
      <trkpt lat="48.64664" lon="-0.05585">
        <ele>236.926</ele>
        <time>2016-06-01T18:34:55Z</time>
      </trkpt>
      <trkpt lat="48.64678" lon="-0.05701">
        <ele>237.342</ele>
        <time>2016-06-01T18:34:35Z</time>
      </trkpt>
      <trkpt lat="48.65356" lon="-0.05572">
        <ele>263.368</ele>
        <time>2016-06-01T18:34:15Z</time>
      </trkpt>
      <trkpt lat="48.65388" lon="-0.05579">
        <ele>263.099</ele>
        <time>2016-06-01T18:33:55Z</time>
      </trkpt>
      <trkpt lat="48.65437" lon="-0.05566">
        <ele>262.41</ele>
        <time>2016-06-01T18:33:35Z</time>
      </trkpt>
      <trkpt lat="48.65473" lon="-0.05592">
        <ele>260.764</ele>
        <time>2016-06-01T18:33:15Z</time>
      </trkpt>
      <trkpt lat="48.65509" lon="-0.05579">
        <ele>260.872</ele>
        <time>2016-06-01T18:32:55Z</time>
      </trkpt>
      <trkpt lat="48.65585" lon="-0.056">
        <ele>258.436</ele>
        <time>2016-06-01T18:32:35Z</time>
      </trkpt>
      <trkpt lat="48.65631" lon="-0.05566">
        <ele>259.033</ele>
        <time>2016-06-01T18:32:15Z</time>
      </trkpt>
      <trkpt lat="48.65704" lon="-0.05551">
        <ele>258.028</ele>
        <time>2016-06-01T18:31:55Z</time>
      </trkpt>
      <trkpt lat="48.65815" lon="-0.05551">
        <ele>257.042</ele>
        <time>2016-06-01T18:31:35Z</time>
      </trkpt>
      <trkpt lat="48.65815" lon="-0.05551">
        <ele>257.008</ele>
        <time>2016-06-01T18:31:15Z</time>
      </trkpt>
      <trkpt lat="48.66015" lon="-0.0554">
        <ele>252.414</ele>
        <time>2016-06-01T18:30:55Z</time>
      </trkpt>
      <trkpt lat="48.66063" lon="-0.05549">
        <ele>248.368</ele>
        <time>2016-06-01T18:30:35Z</time>
      </trkpt>
      <trkpt lat="48.66175" lon="-0.0554">
        <ele>242.265</ele>
        <time>2016-06-01T18:30:15Z</time>
      </trkpt>
      <trkpt lat="48.66467" lon="-0.05527">
        <ele>225.351</ele>
        <time>2016-06-01T18:29:55Z</time>
      </trkpt>
      <trkpt lat="48.66468" lon="-0.05514">
        <ele>224.382</ele>
        <time>2016-06-01T18:29:35Z</time>
      </trkpt>
      <trkpt lat="48.66461" lon="-0.05452">
        <ele>221.556</ele>
        <time>2016-06-01T18:29:15Z</time>
      </trkpt>
      <trkpt lat="48.66457" lon="-0.05392">
        <ele>223.074</ele>
        <time>2016-06-01T18:28:55Z</time>
      </trkpt>
      <trkpt lat="48.66526" lon="-0.05338">
        <ele>218.248</ele>
        <time>2016-06-01T18:28:35Z</time>
      </trkpt>
      <trkpt lat="48.66568" lon="-0.05321">
        <ele>215.865</ele>
        <time>2016-06-01T18:28:15Z</time>
      </trkpt>
      <trkpt lat="48.66604" lon="-0.05319">
        <ele>209.78</ele>
        <time>2016-06-01T18:27:55Z</time>
      </trkpt>
      <trkpt lat="48.66627" lon="-0.05341">
        <ele>206.284</ele>
        <time>2016-06-01T18:27:35Z</time>
      </trkpt>
      <trkpt lat="48.66674" lon="-0.05392">
        <ele>202.508</ele>
        <time>2016-06-01T18:27:15Z</time>
      </trkpt>
      <trkpt lat="48.66701" lon="-0.0548">
        <ele>201.026</ele>
        <time>2016-06-01T18:26:55Z</time>
      </trkpt>
      <trkpt lat="48.66748" lon="-0.05538">
        <ele>200.406</ele>
        <time>2016-06-01T18:26:35Z</time>
      </trkpt>
      <trkpt lat="48.66936" lon="-0.05673">
        <ele>185.689</ele>
        <time>2016-06-01T18:26:15Z</time>
      </trkpt>
      <trkpt lat="48.67047" lon="-0.05733">
        <ele>188.776</ele>
        <time>2016-06-01T18:25:55Z</time>
      </trkpt>
      <trkpt lat="48.67047" lon="-0.05781">
        <ele>188.617</ele>
        <time>2016-06-01T18:25:35Z</time>
      </trkpt>
      <trkpt lat="48.67055" lon="-0.05873">
        <ele>187.021</ele>
        <time>2016-06-01T18:25:15Z</time>
      </trkpt>
      <trkpt lat="48.67066" lon="-0.05954">
        <ele>186.499</ele>
        <time>2016-06-01T18:24:55Z</time>
      </trkpt>
      <trkpt lat="48.67081" lon="-0.05971">
        <ele>186.923</ele>
        <time>2016-06-01T18:24:35Z</time>
      </trkpt>
      <trkpt lat="48.67103" lon="-0.06012">
        <ele>187.01</ele>
        <time>2016-06-01T18:24:15Z</time>
      </trkpt>
      <trkpt lat="48.67115" lon="-0.06057">
        <ele>186.175</ele>
        <time>2016-06-01T18:23:55Z</time>
      </trkpt>
      <trkpt lat="48.67133" lon="-0.06132">
        <ele>184.839</ele>
        <time>2016-06-01T18:23:35Z</time>
      </trkpt>
      <trkpt lat="48.67159" lon="-0.06173">
        <ele>184.808</ele>
        <time>2016-06-01T18:23:15Z</time>
      </trkpt>
      <trkpt lat="48.67187" lon="-0.06246">
        <ele>181.413</ele>
        <time>2016-06-01T18:22:55Z</time>
      </trkpt>
      <trkpt lat="48.67214" lon="-0.06272">
        <ele>182.949</ele>
        <time>2016-06-01T18:22:35Z</time>
      </trkpt>
      <trkpt lat="48.67236" lon="-0.06263">
        <ele>183.237</ele>
        <time>2016-06-01T18:22:15Z</time>
      </trkpt>
      <trkpt lat="48.67272" lon="-0.06429">
        <ele>181.136</ele>
        <time>2016-06-01T18:21:55Z</time>
      </trkpt>
      <trkpt lat="48.67252" lon="-0.06478">
        <ele>181.387</ele>
        <time>2016-06-01T18:21:35Z</time>
      </trkpt>
      <trkpt lat="48.67252" lon="-0.06521">
        <ele>182.931</ele>
        <time>2016-06-01T18:21:15Z</time>
      </trkpt>
      <trkpt lat="48.67249" lon="-0.06574">
        <ele>182.679</ele>
        <time>2016-06-01T18:20:55Z</time>
      </trkpt>
      <trkpt lat="48.67244" lon="-0.06645">
        <ele>185.843</ele>
        <time>2016-06-01T18:20:35Z</time>
      </trkpt>
      <trkpt lat="48.67229" lon="-0.06733">
        <ele>187.51</ele>
        <time>2016-06-01T18:20:15Z</time>
      </trkpt>
      <trkpt lat="48.67208" lon="-0.068">
        <ele>185.675</ele>
        <time>2016-06-01T18:19:55Z</time>
      </trkpt>
      <trkpt lat="48.67201" lon="-0.06866">
        <ele>185.229</ele>
        <time>2016-06-01T18:19:35Z</time>
      </trkpt>
      <trkpt lat="48.67218" lon="-0.06911">
        <ele>185.808</ele>
        <time>2016-06-01T18:19:15Z</time>
      </trkpt>
      <trkpt lat="48.67217" lon="-0.06982">
        <ele>185.013</ele>
        <time>2016-06-01T18:18:55Z</time>
      </trkpt>
      <trkpt lat="48.67202" lon="-0.07034">
        <ele>185.249</ele>
        <time>2016-06-01T18:18:35Z</time>
      </trkpt>
      <trkpt lat="48.67225" lon="-0.07038">
        <ele>184.937</ele>
        <time>2016-06-01T18:18:15Z</time>
      </trkpt>
      <trkpt lat="48.67248" lon="-0.07092">
        <ele>184.138</ele>
        <time>2016-06-01T18:17:55Z</time>
      </trkpt>
      <trkpt lat="48.67419" lon="-0.07143">
        <ele>173.999</ele>
        <time>2016-06-01T18:17:35Z</time>
      </trkpt>
      <trkpt lat="48.67473" lon="-0.07192">
        <ele>173.923</ele>
        <time>2016-06-01T18:17:15Z</time>
      </trkpt>
      <trkpt lat="48.67517" lon="-0.07216">
        <ele>172.631</ele>
        <time>2016-06-01T18:16:55Z</time>
      </trkpt>
      <trkpt lat="48.67571" lon="-0.07227">
        <ele>169.485</ele>
        <time>2016-06-01T18:16:35Z</time>
      </trkpt>
      <trkpt lat="48.67639" lon="-0.07235">
        <ele>166.062</ele>
        <time>2016-06-01T18:16:15Z</time>
      </trkpt>
      <trkpt lat="48.67679" lon="-0.07278">
        <ele>163.697</ele>
        <time>2016-06-01T18:15:55Z</time>
      </trkpt>
      <trkpt lat="48.67755" lon="-0.07323">
        <ele>162.861</ele>
        <time>2016-06-01T18:15:35Z</time>
      </trkpt>
      <trkpt lat="48.6782" lon="-0.07366">
        <ele>159.508</ele>
        <time>2016-06-01T18:15:15Z</time>
      </trkpt>
      <trkpt lat="48.67877" lon="-0.07349">
        <ele>159.614</ele>
        <time>2016-06-01T18:14:55Z</time>
      </trkpt>
      <trkpt lat="48.67919" lon="-0.07358">
        <ele>161.004</ele>
        <time>2016-06-01T18:14:35Z</time>
      </trkpt>
      <trkpt lat="48.67977" lon="-0.07353">
        <ele>160.053</ele>
        <time>2016-06-01T18:14:15Z</time>
      </trkpt>
      <trkpt lat="48.68034" lon="-0.07371">
        <ele>159.799</ele>
        <time>2016-06-01T18:13:55Z</time>
      </trkpt>
      <trkpt lat="48.68055" lon="-0.07383">
        <ele>160.01</ele>
        <time>2016-06-01T18:13:35Z</time>
      </trkpt>
      <trkpt lat="48.68159" lon="-0.07383">
        <ele>160.274</ele>
        <time>2016-06-01T18:13:15Z</time>
      </trkpt>
      <trkpt lat="48.68329" lon="-0.07405">
        <ele>161.522</ele>
        <time>2016-06-01T18:12:55Z</time>
      </trkpt>
      <trkpt lat="48.68381" lon="-0.07418">
        <ele>160.356</ele>
        <time>2016-06-01T18:12:35Z</time>
      </trkpt>
      <trkpt lat="48.68402" lon="-0.07413">
        <ele>159.563</ele>
        <time>2016-06-01T18:12:15Z</time>
      </trkpt>
      <trkpt lat="48.68435" lon="-0.07386">
        <ele>157.938</ele>
        <time>2016-06-01T18:11:55Z</time>
      </trkpt>
      <trkpt lat="48.68463" lon="-0.07379">
        <ele>158.682</ele>
        <time>2016-06-01T18:11:35Z</time>
      </trkpt>
      <trkpt lat="48.68504" lon="-0.07411">
        <ele>159.908</ele>
        <time>2016-06-01T18:11:15Z</time>
      </trkpt>
      <trkpt lat="48.68558" lon="-0.07439">
        <ele>160.416</ele>
        <time>2016-06-01T18:10:55Z</time>
      </trkpt>
      <trkpt lat="48.68605" lon="-0.07428">
        <ele>164.306</ele>
        <time>2016-06-01T18:10:35Z</time>
      </trkpt>
      <trkpt lat="48.68683" lon="-0.07373">
        <ele>166.664</ele>
        <time>2016-06-01T18:10:15Z</time>
      </trkpt>
      <trkpt lat="48.6873" lon="-0.07347">
        <ele>166.759</ele>
        <time>2016-06-01T18:09:55Z</time>
      </trkpt>
      <trkpt lat="48.68728" lon="-0.07413">
        <ele>166.85</ele>
        <time>2016-06-01T18:09:35Z</time>
      </trkpt>
      <trkpt lat="48.68745" lon="-0.07564">
        <ele>163.814</ele>
        <time>2016-06-01T18:09:15Z</time>
      </trkpt>
      <trkpt lat="48.68774" lon="-0.07624">
        <ele>163.492</ele>
        <time>2016-06-01T18:08:55Z</time>
      </trkpt>
      <trkpt lat="48.68813" lon="-0.07647">
        <ele>162.796</ele>
        <time>2016-06-01T18:08:35Z</time>
      </trkpt>
      <trkpt lat="48.68857" lon="-0.0766">
        <ele>161.183</ele>
        <time>2016-06-01T18:08:15Z</time>
      </trkpt>
      <trkpt lat="48.68886" lon="-0.07664">
        <ele>161.118</ele>
        <time>2016-06-01T18:07:55Z</time>
      </trkpt>
      <trkpt lat="48.689" lon="-0.07662">
        <ele>161.562</ele>
        <time>2016-06-01T18:07:35Z</time>
      </trkpt>
      <trkpt lat="48.69126" lon="-0.07958">
        <ele>164.308</ele>
        <time>2016-06-01T18:07:15Z</time>
      </trkpt>
      <trkpt lat="48.69153" lon="-0.07978">
        <ele>165.413</ele>
        <time>2016-06-01T18:06:55Z</time>
      </trkpt>
      <trkpt lat="48.69183" lon="-0.07995">
        <ele>166.121</ele>
        <time>2016-06-01T18:06:35Z</time>
      </trkpt>
      <trkpt lat="48.69177" lon="-0.08034">
        <ele>164.861</ele>
        <time>2016-06-01T18:06:15Z</time>
      </trkpt>
      <trkpt lat="48.69172" lon="-0.08055">
        <ele>164.038</ele>
        <time>2016-06-01T18:05:55Z</time>
      </trkpt>
      <trkpt lat="48.69141" lon="-0.08102">
        <ele>163.149</ele>
        <time>2016-06-01T18:05:35Z</time>
      </trkpt>
      <trkpt lat="48.69118" lon="-0.08143">
        <ele>162.183</ele>
        <time>2016-06-01T18:05:15Z</time>
      </trkpt>
      <trkpt lat="48.69125" lon="-0.08164">
        <ele>161.631</ele>
        <time>2016-06-01T18:04:55Z</time>
      </trkpt>
      <trkpt lat="48.69159" lon="-0.08197">
        <ele>160.665</ele>
        <time>2016-06-01T18:04:35Z</time>
      </trkpt>
      <trkpt lat="48.69183" lon="-0.08192">
        <ele>161.132</ele>
        <time>2016-06-01T18:04:15Z</time>
      </trkpt>
      <trkpt lat="48.6922" lon="-0.08205">
        <ele>159.397</ele>
        <time>2016-06-01T18:03:55Z</time>
      </trkpt>
      <trkpt lat="48.69241" lon="-0.08201">
        <ele>159.561</ele>
        <time>2016-06-01T18:03:35Z</time>
      </trkpt>
      <trkpt lat="48.69238" lon="-0.0833">
        <ele>155.408</ele>
        <time>2016-06-01T18:03:15Z</time>
      </trkpt>
      <trkpt lat="48.69282" lon="-0.0842">
        <ele>155.008</ele>
        <time>2016-06-01T18:02:55Z</time>
      </trkpt>
      <trkpt lat="48.69292" lon="-0.08566">
        <ele>154.753</ele>
        <time>2016-06-01T18:02:35Z</time>
      </trkpt>
      <trkpt lat="48.69269" lon="-0.0874">
        <ele>153.352</ele>
        <time>2016-06-01T18:02:15Z</time>
      </trkpt>
      <trkpt lat="48.69269" lon="-0.08808">
        <ele>153.499</ele>
        <time>2016-06-01T18:01:55Z</time>
      </trkpt>
      <trkpt lat="48.69301" lon="-0.08907">
        <ele>155.39</ele>
        <time>2016-06-01T18:01:35Z</time>
      </trkpt>
      <trkpt lat="48.69309" lon="-0.08958">
        <ele>155.634</ele>
        <time>2016-06-01T18:01:15Z</time>
      </trkpt>
      <trkpt lat="48.69302" lon="-0.09089">
        <ele>158.112</ele>
        <time>2016-06-01T18:00:55Z</time>
      </trkpt>
      <trkpt lat="48.69293" lon="-0.09132">
        <ele>158.416</ele>
        <time>2016-06-01T18:00:35Z</time>
      </trkpt>
      <trkpt lat="48.69353" lon="-0.09244">
        <ele>157.123</ele>
        <time>2016-06-01T18:00:15Z</time>
      </trkpt>
      <trkpt lat="48.69381" lon="-0.09274">
        <ele>156.988</ele>
        <time>2016-06-01T17:59:55Z</time>
      </trkpt>
      <trkpt lat="48.69401" lon="-0.09332">
        <ele>156.662</ele>
        <time>2016-06-01T17:59:35Z</time>
      </trkpt>
      <trkpt lat="48.69434" lon="-0.09398">
        <ele>157.108</ele>
        <time>2016-06-01T17:59:15Z</time>
      </trkpt>
      <trkpt lat="48.69442" lon="-0.09441">
        <ele>157.916</ele>
        <time>2016-06-01T17:58:55Z</time>
      </trkpt>
      <trkpt lat="48.69482" lon="-0.09548">
        <ele>158.706</ele>
        <time>2016-06-01T17:58:35Z</time>
      </trkpt>
      <trkpt lat="48.69514" lon="-0.09694">
        <ele>161.564</ele>
        <time>2016-06-01T17:58:15Z</time>
      </trkpt>
      <trkpt lat="48.69575" lon="-0.09875">
        <ele>160.867</ele>
        <time>2016-06-01T17:57:55Z</time>
      </trkpt>
      <trkpt lat="48.6974" lon="-0.09965">
        <ele>158.328</ele>
        <time>2016-06-01T17:57:35Z</time>
      </trkpt>
      <trkpt lat="48.69864" lon="-0.10042">
        <ele>158.032</ele>
        <time>2016-06-01T17:57:15Z</time>
      </trkpt>
      <trkpt lat="48.69921" lon="-0.1007">
        <ele>156.86</ele>
        <time>2016-06-01T17:56:55Z</time>
      </trkpt>
      <trkpt lat="48.69985" lon="-0.10096">
        <ele>156.034</ele>
        <time>2016-06-01T17:56:35Z</time>
      </trkpt>
      <trkpt lat="48.70109" lon="-0.10154">
        <ele>154.681</ele>
        <time>2016-06-01T17:56:15Z</time>
      </trkpt>
      <trkpt lat="48.70145" lon="-0.10177">
        <ele>155.496</ele>
        <time>2016-06-01T17:55:55Z</time>
      </trkpt>
      <trkpt lat="48.7016" lon="-0.10162">
        <ele>154.85</ele>
        <time>2016-06-01T17:55:35Z</time>
      </trkpt>
      <trkpt lat="48.70333" lon="-0.10214">
        <ele>154.008</ele>
        <time>2016-06-01T17:55:15Z</time>
      </trkpt>
      <trkpt lat="48.70359" lon="-0.10214">
        <ele>154.611</ele>
        <time>2016-06-01T17:54:55Z</time>
      </trkpt>
      <trkpt lat="48.70383" lon="-0.1025">
        <ele>156.047</ele>
        <time>2016-06-01T17:54:35Z</time>
      </trkpt>
      <trkpt lat="48.70376" lon="-0.10269">
        <ele>156.045</ele>
        <time>2016-06-01T17:54:15Z</time>
      </trkpt>
      <trkpt lat="48.70373" lon="-0.1033">
        <ele>155.174</ele>
        <time>2016-06-01T17:53:55Z</time>
      </trkpt>
      <trkpt lat="48.70395" lon="-0.10639">
        <ele>154.845</ele>
        <time>2016-06-01T17:53:35Z</time>
      </trkpt>
      <trkpt lat="48.7039" lon="-0.10759">
        <ele>154.059</ele>
        <time>2016-06-01T17:53:15Z</time>
      </trkpt>
      <trkpt lat="48.70455" lon="-0.10898">
        <ele>154.817</ele>
        <time>2016-06-01T17:52:55Z</time>
      </trkpt>
      <trkpt lat="48.70516" lon="-0.10967">
        <ele>154.091</ele>
        <time>2016-06-01T17:52:35Z</time>
      </trkpt>
      <trkpt lat="48.70645" lon="-0.11031">
        <ele>154.868</ele>
        <time>2016-06-01T17:52:15Z</time>
      </trkpt>
      <trkpt lat="48.70829" lon="-0.11158">
        <ele>154.893</ele>
        <time>2016-06-01T17:51:55Z</time>
      </trkpt>
      <trkpt lat="48.7089" lon="-0.11254">
        <ele>157.267</ele>
        <time>2016-06-01T17:51:35Z</time>
      </trkpt>
      <trkpt lat="48.70949" lon="-0.11325">
        <ele>158.808</ele>
        <time>2016-06-01T17:51:15Z</time>
      </trkpt>
      <trkpt lat="48.71218" lon="-0.11583">
        <ele>161.019</ele>
        <time>2016-06-01T17:50:55Z</time>
      </trkpt>
      <trkpt lat="48.71364" lon="-0.11729">
        <ele>157.009</ele>
        <time>2016-06-01T17:50:35Z</time>
      </trkpt>
      <trkpt lat="48.71453" lon="-0.11797">
        <ele>155.019</ele>
        <time>2016-06-01T17:50:15Z</time>
      </trkpt>
      <trkpt lat="48.71437" lon="-0.12342">
        <ele>152.456</ele>
        <time>2016-06-01T17:49:55Z</time>
      </trkpt>
      <trkpt lat="48.71463" lon="-0.12383">
        <ele>151.987</ele>
        <time>2016-06-01T17:49:35Z</time>
      </trkpt>
      <trkpt lat="48.71561" lon="-0.12435">
        <ele>153.071</ele>
        <time>2016-06-01T17:49:15Z</time>
      </trkpt>
      <trkpt lat="48.71561" lon="-0.12435">
        <ele>153.071</ele>
        <time>2016-06-01T17:49:15Z</time>
      </trkpt>
      <trkpt lat="48.71551" lon="-0.12615">
        <ele>150.779</ele>
        <time>2016-06-01T17:48:55Z</time>
      </trkpt>
      <trkpt lat="48.71605" lon="-0.12621">
        <ele>151.543</ele>
        <time>2016-06-01T17:48:35Z</time>
      </trkpt>
      <trkpt lat="48.71668" lon="-0.12619">
        <ele>150.74</ele>
        <time>2016-06-01T17:48:15Z</time>
      </trkpt>
      <trkpt lat="48.71725" lon="-0.126">
        <ele>151.545</ele>
        <time>2016-06-01T17:47:55Z</time>
      </trkpt>
      <trkpt lat="48.71769" lon="-0.12649">
        <ele>151.649</ele>
        <time>2016-06-01T17:47:35Z</time>
      </trkpt>
      <trkpt lat="48.71875" lon="-0.12604">
        <ele>152.008</ele>
        <time>2016-06-01T17:47:15Z</time>
      </trkpt>
      <trkpt lat="48.7194" lon="-0.1269">
        <ele>151.021</ele>
        <time>2016-06-01T17:46:55Z</time>
      </trkpt>
      <trkpt lat="48.71971" lon="-0.12741">
        <ele>149.301</ele>
        <time>2016-06-01T17:46:35Z</time>
      </trkpt>
      <trkpt lat="48.72028" lon="-0.12808">
        <ele>148.139</ele>
        <time>2016-06-01T17:46:15Z</time>
      </trkpt>
      <trkpt lat="48.72072" lon="-0.12838">
        <ele>149.899</ele>
        <time>2016-06-01T17:45:55Z</time>
      </trkpt>
      <trkpt lat="48.72072" lon="-0.129">
        <ele>150.61</ele>
        <time>2016-06-01T17:45:35Z</time>
      </trkpt>
      <trkpt lat="48.72042" lon="-0.13005">
        <ele>151.124</ele>
        <time>2016-06-01T17:45:15Z</time>
      </trkpt>
      <trkpt lat="48.72029" lon="-0.13168">
        <ele>152.232</ele>
        <time>2016-06-01T17:44:55Z</time>
      </trkpt>
      <trkpt lat="48.72045" lon="-0.13218">
        <ele>153.926</ele>
        <time>2016-06-01T17:44:35Z</time>
      </trkpt>
      <trkpt lat="48.72109" lon="-0.13282">
        <ele>152.983</ele>
        <time>2016-06-01T17:44:15Z</time>
      </trkpt>
      <trkpt lat="48.72143" lon="-0.13344">
        <ele>152.958</ele>
        <time>2016-06-01T17:43:55Z</time>
      </trkpt>
      <trkpt lat="48.72158" lon="-0.13398">
        <ele>152.772</ele>
        <time>2016-06-01T17:43:35Z</time>
      </trkpt>
      <trkpt lat="48.7224" lon="-0.14014">
        <ele>161.008</ele>
        <time>2016-06-01T17:43:15Z</time>
      </trkpt>
      <trkpt lat="48.72257" lon="-0.14085">
        <ele>161.311</ele>
        <time>2016-06-01T17:42:55Z</time>
      </trkpt>
      <trkpt lat="48.72288" lon="-0.14164">
        <ele>161.883</ele>
        <time>2016-06-01T17:42:35Z</time>
      </trkpt>
      <trkpt lat="48.72341" lon="-0.14265">
        <ele>164.062</ele>
        <time>2016-06-01T17:42:15Z</time>
      </trkpt>
      <trkpt lat="48.72413" lon="-0.14351">
        <ele>164.052</ele>
        <time>2016-06-01T17:41:55Z</time>
      </trkpt>
      <trkpt lat="48.72578" lon="-0.14499">
        <ele>163.823</ele>
        <time>2016-06-01T17:41:35Z</time>
      </trkpt>
      <trkpt lat="48.72603" lon="-0.14535">
        <ele>164.627</ele>
        <time>2016-06-01T17:41:15Z</time>
      </trkpt>
      <trkpt lat="48.72638" lon="-0.14612">
        <ele>164.925</ele>
        <time>2016-06-01T17:40:55Z</time>
      </trkpt>
      <trkpt lat="48.72693" lon="-0.14679">
        <ele>162.129</ele>
        <time>2016-06-01T17:40:35Z</time>
      </trkpt>
      <trkpt lat="48.72744" lon="-0.14728">
        <ele>158.156</ele>
        <time>2016-06-01T17:40:15Z</time>
      </trkpt>
      <trkpt lat="48.72791" lon="-0.14754">
        <ele>156.471</ele>
        <time>2016-06-01T17:39:55Z</time>
      </trkpt>
      <trkpt lat="48.72809" lon="-0.14746">
        <ele>156.175</ele>
        <time>2016-06-01T17:39:35Z</time>
      </trkpt>
      <trkpt lat="48.72835" lon="-0.14681">
        <ele>157.408</ele>
        <time>2016-06-01T17:39:15Z</time>
      </trkpt>
      <trkpt lat="48.72842" lon="-0.14683">
        <ele>157.02</ele>
        <time>2016-06-01T17:38:55Z</time>
      </trkpt>
      <trkpt lat="48.72966" lon="-0.14788">
        <ele>172.173</ele>
        <time>2016-06-01T17:38:35Z</time>
      </trkpt>
      <trkpt lat="48.72995" lon="-0.14782">
        <ele>173.792</ele>
        <time>2016-06-01T17:38:15Z</time>
      </trkpt>
      <trkpt lat="48.73043" lon="-0.14677">
        <ele>174.025</ele>
        <time>2016-06-01T17:37:55Z</time>
      </trkpt>
      <trkpt lat="48.73255" lon="-0.14741">
        <ele>180.836</ele>
        <time>2016-06-01T17:37:35Z</time>
      </trkpt>
      <trkpt lat="48.73384" lon="-0.14849">
        <ele>175.75</ele>
        <time>2016-06-01T17:37:15Z</time>
      </trkpt>
      <trkpt lat="48.73381" lon="-0.14926">
        <ele>174.828</ele>
        <time>2016-06-01T17:36:55Z</time>
      </trkpt>
      <trkpt lat="48.73416" lon="-0.15029">
        <ele>181.222</ele>
        <time>2016-06-01T17:36:35Z</time>
      </trkpt>
      <trkpt lat="48.73418" lon="-0.15327">
        <ele>194.929</ele>
        <time>2016-06-01T17:36:15Z</time>
      </trkpt>
      <trkpt lat="48.73426" lon="-0.15396">
        <ele>197.644</ele>
        <time>2016-06-01T17:35:55Z</time>
      </trkpt>
      <trkpt lat="48.73448" lon="-0.15464">
        <ele>198.348</ele>
        <time>2016-06-01T17:35:35Z</time>
      </trkpt>
      <trkpt lat="48.73479" lon="-0.15647">
        <ele>198.608</ele>
        <time>2016-06-01T17:35:15Z</time>
      </trkpt>
      <trkpt lat="48.73487" lon="-0.15846">
        <ele>198.42</ele>
        <time>2016-06-01T17:34:55Z</time>
      </trkpt>
      <trkpt lat="48.73497" lon="-0.15943">
        <ele>198.1</ele>
        <time>2016-06-01T17:34:35Z</time>
      </trkpt>
      <trkpt lat="48.73513" lon="-0.15992">
        <ele>196.729</ele>
        <time>2016-06-01T17:34:15Z</time>
      </trkpt>
      <trkpt lat="48.73528" lon="-0.16022">
        <ele>194.422</ele>
        <time>2016-06-01T17:33:55Z</time>
      </trkpt>
      <trkpt lat="48.73527" lon="-0.16052">
        <ele>194.113</ele>
        <time>2016-06-01T17:33:35Z</time>
      </trkpt>
      <trkpt lat="48.73545" lon="-0.16151">
        <ele>192.887</ele>
        <time>2016-06-01T17:33:15Z</time>
      </trkpt>
      <trkpt lat="48.73586" lon="-0.16196">
        <ele>190.925</ele>
        <time>2016-06-01T17:32:55Z</time>
      </trkpt>
      <trkpt lat="48.73622" lon="-0.16202">
        <ele>189.169</ele>
        <time>2016-06-01T17:32:35Z</time>
      </trkpt>
      <trkpt lat="48.73644" lon="-0.16235">
        <ele>186.586</ele>
        <time>2016-06-01T17:32:15Z</time>
      </trkpt>
      <trkpt lat="48.73685" lon="-0.16361">
        <ele>187.761</ele>
        <time>2016-06-01T17:31:55Z</time>
      </trkpt>
      <trkpt lat="48.7374" lon="-0.16449">
        <ele>176.195</ele>
        <time>2016-06-01T17:31:35Z</time>
      </trkpt>
      <trkpt lat="48.7379" lon="-0.16546">
        <ele>174.008</ele>
        <time>2016-06-01T17:31:15Z</time>
      </trkpt>
      <trkpt lat="48.73842" lon="-0.16675">
        <ele>169.426</ele>
        <time>2016-06-01T17:30:55Z</time>
      </trkpt>
      <trkpt lat="48.73855" lon="-0.16705">
        <ele>168.415</ele>
        <time>2016-06-01T17:30:35Z</time>
      </trkpt>
      <trkpt lat="48.73895" lon="-0.17005">
        <ele>166.998</ele>
        <time>2016-06-01T17:30:15Z</time>
      </trkpt>
      <trkpt lat="48.73943" lon="-0.17054">
        <ele>163.281</ele>
        <time>2016-06-01T17:29:55Z</time>
      </trkpt>
      <trkpt lat="48.74009" lon="-0.17198">
        <ele>157.342</ele>
        <time>2016-06-01T17:29:35Z</time>
      </trkpt>
      <trkpt lat="48.74072" lon="-0.17293">
        <ele>151.686</ele>
        <time>2016-06-01T17:29:15Z</time>
      </trkpt>
      <trkpt lat="48.7412" lon="-0.17331">
        <ele>149.694</ele>
        <time>2016-06-01T17:28:55Z</time>
      </trkpt>
      <trkpt lat="48.74124" lon="-0.17402">
        <ele>149.888</ele>
        <time>2016-06-01T17:28:35Z</time>
      </trkpt>
      <trkpt lat="48.74138" lon="-0.17434">
        <ele>148.445</ele>
        <time>2016-06-01T17:28:15Z</time>
      </trkpt>
      <trkpt lat="48.74158" lon="-0.17518">
        <ele>155.97</ele>
        <time>2016-06-01T17:27:55Z</time>
      </trkpt>
      <trkpt lat="48.74159" lon="-0.17556">
        <ele>156.764</ele>
        <time>2016-06-01T17:27:35Z</time>
      </trkpt>
      <trkpt lat="48.7414" lon="-0.17621">
        <ele>155.208</ele>
        <time>2016-06-01T17:27:15Z</time>
      </trkpt>
      <trkpt lat="48.74103" lon="-0.17732">
        <ele>169.517</ele>
        <time>2016-06-01T17:26:55Z</time>
      </trkpt>
      <trkpt lat="48.74021" lon="-0.17842">
        <ele>170.189</ele>
        <time>2016-06-01T17:26:35Z</time>
      </trkpt>
      <trkpt lat="48.74008" lon="-0.17874">
        <ele>175.185</ele>
        <time>2016-06-01T17:26:15Z</time>
      </trkpt>
      <trkpt lat="48.73967" lon="-0.17906">
        <ele>172.645</ele>
        <time>2016-06-01T17:25:55Z</time>
      </trkpt>
      <trkpt lat="48.73906" lon="-0.17968">
        <ele>176.576</ele>
        <time>2016-06-01T17:25:35Z</time>
      </trkpt>
      <trkpt lat="48.73888" lon="-0.17994">
        <ele>178.36</ele>
        <time>2016-06-01T17:25:15Z</time>
      </trkpt>
      <trkpt lat="48.73886" lon="-0.18011">
        <ele>179.348</ele>
        <time>2016-06-01T17:24:55Z</time>
      </trkpt>
      <trkpt lat="48.73671" lon="-0.18142">
        <ele>189.812</ele>
        <time>2016-06-01T17:24:35Z</time>
      </trkpt>
      <trkpt lat="48.7351" lon="-0.18438">
        <ele>200.229</ele>
        <time>2016-06-01T17:24:15Z</time>
      </trkpt>
      <trkpt lat="48.73497" lon="-0.18546">
        <ele>201.324</ele>
        <time>2016-06-01T17:23:55Z</time>
      </trkpt>
      <trkpt lat="48.73474" lon="-0.18616">
        <ele>203.868</ele>
        <time>2016-06-01T17:23:35Z</time>
      </trkpt>
      <trkpt lat="48.73429" lon="-0.18773">
        <ele>206.608</ele>
        <time>2016-06-01T17:23:15Z</time>
      </trkpt>
      <trkpt lat="48.73409" lon="-0.18831">
        <ele>205.217</ele>
        <time>2016-06-01T17:22:55Z</time>
      </trkpt>
      <trkpt lat="48.73378" lon="-0.18861">
        <ele>209.289</ele>
        <time>2016-06-01T17:22:35Z</time>
      </trkpt>
      <trkpt lat="48.73358" lon="-0.18966">
        <ele>214.128</ele>
        <time>2016-06-01T17:22:15Z</time>
      </trkpt>
      <trkpt lat="48.73339" lon="-0.19033">
        <ele>217.345</ele>
        <time>2016-06-01T17:21:55Z</time>
      </trkpt>
      <trkpt lat="48.73292" lon="-0.19211">
        <ele>220.026</ele>
        <time>2016-06-01T17:21:35Z</time>
      </trkpt>
      <trkpt lat="48.7318" lon="-0.19359">
        <ele>224.25</ele>
        <time>2016-06-01T17:21:15Z</time>
      </trkpt>
      <trkpt lat="48.73142" lon="-0.19421">
        <ele>221.188</ele>
        <time>2016-06-01T17:20:55Z</time>
      </trkpt>
      <trkpt lat="48.73133" lon="-0.19473">
        <ele>222.052</ele>
        <time>2016-06-01T17:20:35Z</time>
      </trkpt>
      <trkpt lat="48.73231" lon="-0.19509">
        <ele>219.529</ele>
        <time>2016-06-01T17:20:15Z</time>
      </trkpt>
      <trkpt lat="48.73288" lon="-0.19561">
        <ele>215.594</ele>
        <time>2016-06-01T17:19:55Z</time>
      </trkpt>
      <trkpt lat="48.733" lon="-0.19661">
        <ele>222.528</ele>
        <time>2016-06-01T17:19:35Z</time>
      </trkpt>
      <trkpt lat="48.7333" lon="-0.19749">
        <ele>227.408</ele>
        <time>2016-06-01T17:19:15Z</time>
      </trkpt>
      <trkpt lat="48.73384" lon="-0.19795">
        <ele>222.317</ele>
        <time>2016-06-01T17:18:55Z</time>
      </trkpt>
      <trkpt lat="48.73439" lon="-0.19876">
        <ele>227.189</ele>
        <time>2016-06-01T17:18:35Z</time>
      </trkpt>
      <trkpt lat="48.73439" lon="-0.19876">
        <ele>227.128</ele>
        <time>2016-06-01T17:18:15Z</time>
      </trkpt>
      <trkpt lat="48.73515" lon="-0.19842">
        <ele>217.448</ele>
        <time>2016-06-01T17:17:55Z</time>
      </trkpt>
      <trkpt lat="48.73624" lon="-0.19752">
        <ele>204.679</ele>
        <time>2016-06-01T17:17:35Z</time>
      </trkpt>
      <trkpt lat="48.7365" lon="-0.19743">
        <ele>201.953</ele>
        <time>2016-06-01T17:17:15Z</time>
      </trkpt>
      <trkpt lat="48.73682" lon="-0.19769">
        <ele>202.281</ele>
        <time>2016-06-01T17:16:55Z</time>
      </trkpt>
      <trkpt lat="48.73701" lon="-0.19747">
        <ele>199.835</ele>
        <time>2016-06-01T17:16:35Z</time>
      </trkpt>
      <trkpt lat="48.73726" lon="-0.19634">
        <ele>189.612</ele>
        <time>2016-06-01T17:16:15Z</time>
      </trkpt>
      <trkpt lat="48.73767" lon="-0.19634">
        <ele>191.477</ele>
        <time>2016-06-01T17:15:55Z</time>
      </trkpt>
      <trkpt lat="48.73813" lon="-0.19668">
        <ele>190.151</ele>
        <time>2016-06-01T17:15:35Z</time>
      </trkpt>
      <trkpt lat="48.73872" lon="-0.19715">
        <ele>189.308</ele>
        <time>2016-06-01T17:15:15Z</time>
      </trkpt>
      <trkpt lat="48.73909" lon="-0.19696">
        <ele>185.514</ele>
        <time>2016-06-01T17:14:55Z</time>
      </trkpt>
      <trkpt lat="48.74018" lon="-0.19717">
        <ele>182.059</ele>
        <time>2016-06-01T17:14:35Z</time>
      </trkpt>
      <trkpt lat="48.74093" lon="-0.19754">
        <ele>178.356</ele>
        <time>2016-06-01T17:14:15Z</time>
      </trkpt>
      <trkpt lat="48.74271" lon="-0.19743">
        <ele>178.978</ele>
        <time>2016-06-01T17:13:55Z</time>
      </trkpt>
      <trkpt lat="48.74356" lon="-0.19724">
        <ele>181.539</ele>
        <time>2016-06-01T17:13:35Z</time>
      </trkpt>
      <trkpt lat="48.74458" lon="-0.19685">
        <ele>181.423</ele>
        <time>2016-06-01T17:13:15Z</time>
      </trkpt>
      <trkpt lat="48.74515" lon="-0.19601">
        <ele>179.021</ele>
        <time>2016-06-01T17:12:55Z</time>
      </trkpt>
      <trkpt lat="48.74612" lon="-0.1949">
        <ele>176.345</ele>
        <time>2016-06-01T17:12:35Z</time>
      </trkpt>
      <trkpt lat="48.74657" lon="-0.19417">
        <ele>171.082</ele>
        <time>2016-06-01T17:12:15Z</time>
      </trkpt>
      <trkpt lat="48.7473" lon="-0.19239">
        <ele>170.357</ele>
        <time>2016-06-01T17:11:55Z</time>
      </trkpt>
      <trkpt lat="48.74747" lon="-0.19127">
        <ele>165.681</ele>
        <time>2016-06-01T17:11:35Z</time>
      </trkpt>
      <trkpt lat="48.74764" lon="-0.19039">
        <ele>162.308</ele>
        <time>2016-06-01T17:11:15Z</time>
      </trkpt>
      <trkpt lat="48.74816" lon="-0.18857">
        <ele>161.714</ele>
        <time>2016-06-01T17:10:55Z</time>
      </trkpt>
      <trkpt lat="48.74833" lon="-0.18812">
        <ele>160.004</ele>
        <time>2016-06-01T17:10:35Z</time>
      </trkpt>
      <trkpt lat="48.74908" lon="-0.18692">
        <ele>154.953</ele>
        <time>2016-06-01T17:10:15Z</time>
      </trkpt>
      <trkpt lat="48.74919" lon="-0.18659">
        <ele>153.927</ele>
        <time>2016-06-01T17:09:55Z</time>
      </trkpt>
      <trkpt lat="48.74895" lon="-0.18578">
        <ele>149.838</ele>
        <time>2016-06-01T17:09:35Z</time>
      </trkpt>
      <trkpt lat="48.74874" lon="-0.18546">
        <ele>146.982</ele>
        <time>2016-06-01T17:09:15Z</time>
      </trkpt>
      <trkpt lat="48.74739" lon="-0.18466">
        <ele>143.28</ele>
        <time>2016-06-01T17:08:55Z</time>
      </trkpt>
      <trkpt lat="48.74715" lon="-0.18481">
        <ele>143.244</ele>
        <time>2016-06-01T17:08:35Z</time>
      </trkpt>
      <trkpt lat="48.74669" lon="-0.18552">
        <ele>145.031</ele>
        <time>2016-06-01T17:08:15Z</time>
      </trkpt>
      <trkpt lat="48.74653" lon="-0.18595">
        <ele>145.586</ele>
        <time>2016-06-01T17:07:55Z</time>
      </trkpt>
      <trkpt lat="48.74623" lon="-0.18657">
        <ele>153.17</ele>
        <time>2016-06-01T17:07:35Z</time>
      </trkpt>
      <trkpt lat="48.74628" lon="-0.18591">
        <ele>151.508</ele>
        <time>2016-06-01T17:07:15Z</time>
      </trkpt>
      <trkpt lat="48.74609" lon="-0.18535">
        <ele>154.817</ele>
        <time>2016-06-01T17:06:55Z</time>
      </trkpt>
      <trkpt lat="48.74606" lon="-0.18477">
        <ele>150.561</ele>
        <time>2016-06-01T17:06:35Z</time>
      </trkpt>
      <trkpt lat="48.74648" lon="-0.18335">
        <ele>159.848</ele>
        <time>2016-06-01T17:06:15Z</time>
      </trkpt>
      <trkpt lat="48.74693" lon="-0.18344">
        <ele>165.161</ele>
        <time>2016-06-01T17:05:55Z</time>
      </trkpt>
      <trkpt lat="48.7473" lon="-0.18307">
        <ele>166.982</ele>
        <time>2016-06-01T17:05:35Z</time>
      </trkpt>
      <trkpt lat="48.74829" lon="-0.18123">
        <ele>173.186</ele>
        <time>2016-06-01T17:05:15Z</time>
      </trkpt>
      <trkpt lat="48.74959" lon="-0.18044">
        <ele>172.534</ele>
        <time>2016-06-01T17:04:55Z</time>
      </trkpt>
      <trkpt lat="48.74996" lon="-0.18041">
        <ele>172.968</ele>
        <time>2016-06-01T17:04:35Z</time>
      </trkpt>
      <trkpt lat="48.7503" lon="-0.18022">
        <ele>175.145</ele>
        <time>2016-06-01T17:04:15Z</time>
      </trkpt>
      <trkpt lat="48.75059" lon="-0.17979">
        <ele>177.15</ele>
        <time>2016-06-01T17:03:55Z</time>
      </trkpt>
      <trkpt lat="48.75201" lon="-0.17842">
        <ele>187.854</ele>
        <time>2016-06-01T17:03:35Z</time>
      </trkpt>
      <trkpt lat="48.75266" lon="-0.17795">
        <ele>189.008</ele>
        <time>2016-06-01T17:03:15Z</time>
      </trkpt>
      <trkpt lat="48.75307" lon="-0.17739">
        <ele>191.426</ele>
        <time>2016-06-01T17:02:55Z</time>
      </trkpt>
      <trkpt lat="48.75312" lon="-0.17715">
        <ele>192.76</ele>
        <time>2016-06-01T17:02:35Z</time>
      </trkpt>
      <trkpt lat="48.75337" lon="-0.17711">
        <ele>193.486</ele>
        <time>2016-06-01T17:02:15Z</time>
      </trkpt>
      <trkpt lat="48.75433" lon="-0.1764">
        <ele>199.02</ele>
        <time>2016-06-01T17:01:55Z</time>
      </trkpt>
      <trkpt lat="48.75453" lon="-0.1764">
        <ele>199.051</ele>
        <time>2016-06-01T17:01:35Z</time>
      </trkpt>
      <trkpt lat="48.75576" lon="-0.1767">
        <ele>202.555</ele>
        <time>2016-06-01T17:01:15Z</time>
      </trkpt>
      <trkpt lat="48.75581" lon="-0.1772">
        <ele>200.033</ele>
        <time>2016-06-01T17:00:55Z</time>
      </trkpt>
      <trkpt lat="48.75607" lon="-0.17814">
        <ele>197.147</ele>
        <time>2016-06-01T17:00:35Z</time>
      </trkpt>
      <trkpt lat="48.75656" lon="-0.17938">
        <ele>194.434</ele>
        <time>2016-06-01T17:00:15Z</time>
      </trkpt>
      <trkpt lat="48.75638" lon="-0.17992">
        <ele>193.649</ele>
        <time>2016-06-01T16:59:55Z</time>
      </trkpt>
      <trkpt lat="48.75639" lon="-0.18035">
        <ele>192.843</ele>
        <time>2016-06-01T16:59:35Z</time>
      </trkpt>
      <trkpt lat="48.75655" lon="-0.18067">
        <ele>193.308</ele>
        <time>2016-06-01T16:59:15Z</time>
      </trkpt>
      <trkpt lat="48.75655" lon="-0.18091">
        <ele>193.615</ele>
        <time>2016-06-01T16:58:55Z</time>
      </trkpt>
      <trkpt lat="48.75665" lon="-0.18119">
        <ele>193.941</ele>
        <time>2016-06-01T16:58:35Z</time>
      </trkpt>
      <trkpt lat="48.75701" lon="-0.18114">
        <ele>196.871</ele>
        <time>2016-06-01T16:58:15Z</time>
      </trkpt>
      <trkpt lat="48.75716" lon="-0.18172">
        <ele>198.324</ele>
        <time>2016-06-01T16:57:55Z</time>
      </trkpt>
      <trkpt lat="48.75693" lon="-0.18202">
        <ele>196.895</ele>
        <time>2016-06-01T16:57:35Z</time>
      </trkpt>
      <trkpt lat="48.75687" lon="-0.18273">
        <ele>195.369</ele>
        <time>2016-06-01T16:57:15Z</time>
      </trkpt>
      <trkpt lat="48.75693" lon="-0.1828">
        <ele>195.897</ele>
        <time>2016-06-01T16:56:55Z</time>
      </trkpt>
      <trkpt lat="48.75707" lon="-0.18449">
        <ele>196.291</ele>
        <time>2016-06-01T16:56:35Z</time>
      </trkpt>
      <trkpt lat="48.75709" lon="-0.1849">
        <ele>196.468</ele>
        <time>2016-06-01T16:56:15Z</time>
      </trkpt>
      <trkpt lat="48.75675" lon="-0.18651">
        <ele>184.253</ele>
        <time>2016-06-01T16:55:55Z</time>
      </trkpt>
      <trkpt lat="48.75662" lon="-0.18728">
        <ele>177.117</ele>
        <time>2016-06-01T16:55:35Z</time>
      </trkpt>
      <trkpt lat="48.75601" lon="-0.18782">
        <ele>169.308</ele>
        <time>2016-06-01T16:55:15Z</time>
      </trkpt>
      <trkpt lat="48.75563" lon="-0.18788">
        <ele>161.615</ele>
        <time>2016-06-01T16:54:55Z</time>
      </trkpt>
      <trkpt lat="48.75536" lon="-0.18822">
        <ele>155.387</ele>
        <time>2016-06-01T16:54:35Z</time>
      </trkpt>
      <trkpt lat="48.75505" lon="-0.18857">
        <ele>149.417</ele>
        <time>2016-06-01T16:54:15Z</time>
      </trkpt>
      <trkpt lat="48.75509" lon="-0.18895">
        <ele>148.431</ele>
        <time>2016-06-01T16:53:55Z</time>
      </trkpt>
      <trkpt lat="48.75526" lon="-0.18913">
        <ele>149.072</ele>
        <time>2016-06-01T16:53:35Z</time>
      </trkpt>
      <trkpt lat="48.75561" lon="-0.18979">
        <ele>151.026</ele>
        <time>2016-06-01T16:53:15Z</time>
      </trkpt>
      <trkpt lat="48.75506" lon="-0.18986">
        <ele>149.394</ele>
        <time>2016-06-01T16:52:55Z</time>
      </trkpt>
      <trkpt lat="48.75468" lon="-0.18968">
        <ele>145.428</ele>
        <time>2016-06-01T16:52:35Z</time>
      </trkpt>
      <trkpt lat="48.75427" lon="-0.19052">
        <ele>143.475</ele>
        <time>2016-06-01T16:52:15Z</time>
      </trkpt>
      <trkpt lat="48.75383" lon="-0.19269">
        <ele>151.53</ele>
        <time>2016-06-01T16:51:55Z</time>
      </trkpt>
      <trkpt lat="48.75356" lon="-0.19376">
        <ele>155.044</ele>
        <time>2016-06-01T16:51:35Z</time>
      </trkpt>
      <trkpt lat="48.75322" lon="-0.1952">
        <ele>151.108</ele>
        <time>2016-06-01T16:51:15Z</time>
      </trkpt>
      <trkpt lat="48.75305" lon="-0.19769">
        <ele>151.626</ele>
        <time>2016-06-01T16:50:55Z</time>
      </trkpt>
      <trkpt lat="48.75192" lon="-0.20176">
        <ele>163.442</ele>
        <time>2016-06-01T16:50:35Z</time>
      </trkpt>
      <trkpt lat="48.75143" lon="-0.20243">
        <ele>167.687</ele>
        <time>2016-06-01T16:50:15Z</time>
      </trkpt>
      <trkpt lat="48.75071" lon="-0.20288">
        <ele>170.084</ele>
        <time>2016-06-01T16:49:55Z</time>
      </trkpt>
      <trkpt lat="48.74976" lon="-0.2029">
        <ele>166.375</ele>
        <time>2016-06-01T16:49:35Z</time>
      </trkpt>
      <trkpt lat="48.74895" lon="-0.20271">
        <ele>165.289</ele>
        <time>2016-06-01T16:49:15Z</time>
      </trkpt>
      <trkpt lat="48.74813" lon="-0.20271">
        <ele>170.267</ele>
        <time>2016-06-01T16:48:55Z</time>
      </trkpt>
      <trkpt lat="48.74739" lon="-0.20252">
        <ele>166.011</ele>
        <time>2016-06-01T16:48:35Z</time>
      </trkpt>
      <trkpt lat="48.74628" lon="-0.20254">
        <ele>164.678</ele>
        <time>2016-06-01T16:48:15Z</time>
      </trkpt>
      <trkpt lat="48.74541" lon="-0.20219">
        <ele>164.893</ele>
        <time>2016-06-01T16:47:55Z</time>
      </trkpt>
      <trkpt lat="48.74381" lon="-0.20136">
        <ele>159.527</ele>
        <time>2016-06-01T16:47:35Z</time>
      </trkpt>
      <trkpt lat="48.74142" lon="-0.2005">
        <ele>142.908</ele>
        <time>2016-06-01T16:47:15Z</time>
      </trkpt>
      <trkpt lat="48.74137" lon="-0.20073">
        <ele>144.119</ele>
        <time>2016-06-01T16:46:55Z</time>
      </trkpt>
      <trkpt lat="48.74111" lon="-0.20138">
        <ele>146.009</ele>
        <time>2016-06-01T16:46:35Z</time>
      </trkpt>
      <trkpt lat="48.74134" lon="-0.20226">
        <ele>155.019</ele>
        <time>2016-06-01T16:46:15Z</time>
      </trkpt>
      <trkpt lat="48.74135" lon="-0.20297">
        <ele>161.884</ele>
        <time>2016-06-01T16:45:55Z</time>
      </trkpt>
      <trkpt lat="48.74159" lon="-0.20393">
        <ele>168.275</ele>
        <time>2016-06-01T16:45:35Z</time>
      </trkpt>
      <trkpt lat="48.74148" lon="-0.205">
        <ele>166.449</ele>
        <time>2016-06-01T16:45:15Z</time>
      </trkpt>
      <trkpt lat="48.74121" lon="-0.20644">
        <ele>161.197</ele>
        <time>2016-06-01T16:44:55Z</time>
      </trkpt>
      <trkpt lat="48.74137" lon="-0.20709">
        <ele>157.721</ele>
        <time>2016-06-01T16:44:35Z</time>
      </trkpt>
      <trkpt lat="48.74205" lon="-0.20803">
        <ele>158.858</ele>
        <time>2016-06-01T16:44:15Z</time>
      </trkpt>
      <trkpt lat="48.74209" lon="-0.20835">
        <ele>152.753</ele>
        <time>2016-06-01T16:43:55Z</time>
      </trkpt>
      <trkpt lat="48.74226" lon="-0.20882">
        <ele>147.587</ele>
        <time>2016-06-01T16:43:35Z</time>
      </trkpt>
      <trkpt lat="48.74265" lon="-0.20925">
        <ele>150.308</ele>
        <time>2016-06-01T16:43:15Z</time>
      </trkpt>
      <trkpt lat="48.74301" lon="-0.20975">
        <ele>148.207</ele>
        <time>2016-06-01T16:42:55Z</time>
      </trkpt>
      <trkpt lat="48.74314" lon="-0.20966">
        <ele>150.443</ele>
        <time>2016-06-01T16:42:35Z</time>
      </trkpt>
      <trkpt lat="48.74348" lon="-0.21018">
        <ele>142.713</ele>
        <time>2016-06-01T16:42:15Z</time>
      </trkpt>
      <trkpt lat="48.74346" lon="-0.2117">
        <ele>144.851</ele>
        <time>2016-06-01T16:41:55Z</time>
      </trkpt>
      <trkpt lat="48.74247" lon="-0.21191">
        <ele>157.292</ele>
        <time>2016-06-01T16:41:35Z</time>
      </trkpt>
      <trkpt lat="48.74203" lon="-0.21191">
        <ele>159.646</ele>
        <time>2016-06-01T16:41:15Z</time>
      </trkpt>
      <trkpt lat="48.74148" lon="-0.21161">
        <ele>156.254</ele>
        <time>2016-06-01T16:40:55Z</time>
      </trkpt>
      <trkpt lat="48.74076" lon="-0.21093">
        <ele>148.798</ele>
        <time>2016-06-01T16:40:35Z</time>
      </trkpt>
      <trkpt lat="48.74048" lon="-0.21069">
        <ele>142.685</ele>
        <time>2016-06-01T16:40:15Z</time>
      </trkpt>
      <trkpt lat="48.73995" lon="-0.21063">
        <ele>144.36</ele>
        <time>2016-06-01T16:39:55Z</time>
      </trkpt>
      <trkpt lat="48.73923" lon="-0.21161">
        <ele>156.414</ele>
        <time>2016-06-01T16:39:35Z</time>
      </trkpt>
      <trkpt lat="48.73847" lon="-0.2146">
        <ele>175.208</ele>
        <time>2016-06-01T16:39:15Z</time>
      </trkpt>
      <trkpt lat="48.73817" lon="-0.21503">
        <ele>181.626</ele>
        <time>2016-06-01T16:38:55Z</time>
      </trkpt>
      <trkpt lat="48.73728" lon="-0.21612">
        <ele>187.424</ele>
        <time>2016-06-01T16:38:35Z</time>
      </trkpt>
      <trkpt lat="48.73702" lon="-0.21646">
        <ele>188.288</ele>
        <time>2016-06-01T16:38:15Z</time>
      </trkpt>
      <trkpt lat="48.73704" lon="-0.21728">
        <ele>194.246</ele>
        <time>2016-06-01T16:37:55Z</time>
      </trkpt>
      <trkpt lat="48.73782" lon="-0.2208">
        <ele>198.127</ele>
        <time>2016-06-01T16:37:35Z</time>
      </trkpt>
      <trkpt lat="48.73851" lon="-0.22198">
        <ele>199.611</ele>
        <time>2016-06-01T16:37:15Z</time>
      </trkpt>
      <trkpt lat="48.73849" lon="-0.22251">
        <ele>200.259</ele>
        <time>2016-06-01T16:36:55Z</time>
      </trkpt>
      <trkpt lat="48.7381" lon="-0.22309">
        <ele>199.073</ele>
        <time>2016-06-01T16:36:35Z</time>
      </trkpt>
      <trkpt lat="48.7351" lon="-0.22663">
        <ele>211.79</ele>
        <time>2016-06-01T16:36:15Z</time>
      </trkpt>
      <trkpt lat="48.73449" lon="-0.22713">
        <ele>214.145</ele>
        <time>2016-06-01T16:35:55Z</time>
      </trkpt>
      <trkpt lat="48.7345" lon="-0.22869">
        <ele>213.259</ele>
        <time>2016-06-01T16:35:35Z</time>
      </trkpt>
      <trkpt lat="48.73498" lon="-0.22889">
        <ele>215.908</ele>
        <time>2016-06-01T16:35:15Z</time>
      </trkpt>
      <trkpt lat="48.7375" lon="-0.23202">
        <ele>214.211</ele>
        <time>2016-06-01T16:34:55Z</time>
      </trkpt>
      <trkpt lat="48.73766" lon="-0.23314">
        <ele>218.692</ele>
        <time>2016-06-01T16:34:35Z</time>
      </trkpt>
      <trkpt lat="48.73944" lon="-0.23751">
        <ele>214.032</ele>
        <time>2016-06-01T16:34:15Z</time>
      </trkpt>
      <trkpt lat="48.7394" lon="-0.23801">
        <ele>212.935</ele>
        <time>2016-06-01T16:33:55Z</time>
      </trkpt>
      <trkpt lat="48.73923" lon="-0.23904">
        <ele>212.516</ele>
        <time>2016-06-01T16:33:35Z</time>
      </trkpt>
      <trkpt lat="48.73919" lon="-0.23987">
        <ele>208.51</ele>
        <time>2016-06-01T16:33:15Z</time>
      </trkpt>
      <trkpt lat="48.73936" lon="-0.24045">
        <ele>206.718</ele>
        <time>2016-06-01T16:32:55Z</time>
      </trkpt>
      <trkpt lat="48.73992" lon="-0.2406">
        <ele>205.172</ele>
        <time>2016-06-01T16:32:35Z</time>
      </trkpt>
      <trkpt lat="48.74046" lon="-0.24086">
        <ele>202.139</ele>
        <time>2016-06-01T16:32:15Z</time>
      </trkpt>
      <trkpt lat="48.74215" lon="-0.24075">
        <ele>187.314</ele>
        <time>2016-06-01T16:31:55Z</time>
      </trkpt>
      <trkpt lat="48.74365" lon="-0.24045">
        <ele>184.998</ele>
        <time>2016-06-01T16:31:35Z</time>
      </trkpt>
      <trkpt lat="48.74513" lon="-0.24062">
        <ele>181.108</ele>
        <time>2016-06-01T16:31:15Z</time>
      </trkpt>
      <trkpt lat="48.74605" lon="-0.24041">
        <ele>174.411</ele>
        <time>2016-06-01T16:30:55Z</time>
      </trkpt>
      <trkpt lat="48.74676" lon="-0.24011">
        <ele>167.883</ele>
        <time>2016-06-01T16:30:35Z</time>
      </trkpt>
      <trkpt lat="48.74752" lon="-0.23942">
        <ele>157.223</ele>
        <time>2016-06-01T16:30:15Z</time>
      </trkpt>
      <trkpt lat="48.74788" lon="-0.23934">
        <ele>157.616</ele>
        <time>2016-06-01T16:29:55Z</time>
      </trkpt>
      <trkpt lat="48.74871" lon="-0.23992">
        <ele>160.837</ele>
        <time>2016-06-01T16:29:35Z</time>
      </trkpt>
      <trkpt lat="48.74902" lon="-0.24045">
        <ele>160.531</ele>
        <time>2016-06-01T16:29:15Z</time>
      </trkpt>
      <trkpt lat="48.74986" lon="-0.24116">
        <ele>161.749</ele>
        <time>2016-06-01T16:28:55Z</time>
      </trkpt>
      <trkpt lat="48.75099" lon="-0.2415">
        <ele>158.233</ele>
        <time>2016-06-01T16:28:35Z</time>
      </trkpt>
      <trkpt lat="48.75119" lon="-0.24172">
        <ele>158.59</ele>
        <time>2016-06-01T16:28:15Z</time>
      </trkpt>
      <trkpt lat="48.75239" lon="-0.24103">
        <ele>159.665</ele>
        <time>2016-06-01T16:27:55Z</time>
      </trkpt>
      <trkpt lat="48.75266" lon="-0.24114">
        <ele>162.839</ele>
        <time>2016-06-01T16:27:35Z</time>
      </trkpt>
      <trkpt lat="48.75274" lon="-0.24148">
        <ele>166.508</ele>
        <time>2016-06-01T16:27:15Z</time>
      </trkpt>
      <trkpt lat="48.75271" lon="-0.24155">
        <ele>166.811</ele>
        <time>2016-06-01T16:26:55Z</time>
      </trkpt>
      <trkpt lat="48.75267" lon="-0.24183">
        <ele>168.292</ele>
        <time>2016-06-01T16:26:35Z</time>
      </trkpt>
      <trkpt lat="48.75281" lon="-0.24208">
        <ele>169.632</ele>
        <time>2016-06-01T16:26:15Z</time>
      </trkpt>
      <trkpt lat="48.7528" lon="-0.24262">
        <ele>173.294</ele>
        <time>2016-06-01T16:25:55Z</time>
      </trkpt>
      <trkpt lat="48.75305" lon="-0.24318">
        <ele>177.925</ele>
        <time>2016-06-01T16:25:35Z</time>
      </trkpt>
      <trkpt lat="48.75307" lon="-0.24339">
        <ele>178.939</ele>
        <time>2016-06-01T16:25:15Z</time>
      </trkpt>
      <trkpt lat="48.7527" lon="-0.24386">
        <ele>184.957</ele>
        <time>2016-06-01T16:24:55Z</time>
      </trkpt>
      <trkpt lat="48.75249" lon="-0.24447">
        <ele>188.251</ele>
        <time>2016-06-01T16:24:35Z</time>
      </trkpt>
      <trkpt lat="48.75178" lon="-0.24509">
        <ele>192.668</ele>
        <time>2016-06-01T16:24:15Z</time>
      </trkpt>
      <trkpt lat="48.75165" lon="-0.24552">
        <ele>193.013</ele>
        <time>2016-06-01T16:23:55Z</time>
      </trkpt>
      <trkpt lat="48.75179" lon="-0.24672">
        <ele>186.967</ele>
        <time>2016-06-01T16:23:35Z</time>
      </trkpt>
      <trkpt lat="48.75225" lon="-0.24762">
        <ele>186.208</ele>
        <time>2016-06-01T16:23:15Z</time>
      </trkpt>
      <trkpt lat="48.75225" lon="-0.24786">
        <ele>187.613</ele>
        <time>2016-06-01T16:22:55Z</time>
      </trkpt>
      <trkpt lat="48.75182" lon="-0.24916">
        <ele>194.076</ele>
        <time>2016-06-01T16:22:35Z</time>
      </trkpt>
      <trkpt lat="48.75163" lon="-0.24989">
        <ele>199.616</ele>
        <time>2016-06-01T16:22:15Z</time>
      </trkpt>
      <trkpt lat="48.75188" lon="-0.25146">
        <ele>203.091</ele>
        <time>2016-06-01T16:21:55Z</time>
      </trkpt>
      <trkpt lat="48.75247" lon="-0.2511">
        <ele>200.952</ele>
        <time>2016-06-01T16:21:35Z</time>
      </trkpt>
      <trkpt lat="48.75348" lon="-0.25049">
        <ele>198.996</ele>
        <time>2016-06-01T16:21:15Z</time>
      </trkpt>
      <trkpt lat="48.75406" lon="-0.24979">
        <ele>197.914</ele>
        <time>2016-06-01T16:20:55Z</time>
      </trkpt>
      <trkpt lat="48.75495" lon="-0.24841">
        <ele>190.838</ele>
        <time>2016-06-01T16:20:35Z</time>
      </trkpt>
      <trkpt lat="48.75542" lon="-0.24781">
        <ele>183.785</ele>
        <time>2016-06-01T16:20:15Z</time>
      </trkpt>
      <trkpt lat="48.75577" lon="-0.24764">
        <ele>180.59</ele>
        <time>2016-06-01T16:19:55Z</time>
      </trkpt>
      <trkpt lat="48.75615" lon="-0.24749">
        <ele>176.544</ele>
        <time>2016-06-01T16:19:35Z</time>
      </trkpt>
      <trkpt lat="48.75693" lon="-0.24777">
        <ele>165.208</ele>
        <time>2016-06-01T16:19:15Z</time>
      </trkpt>
      <trkpt lat="48.75723" lon="-0.24773">
        <ele>159.726</ele>
        <time>2016-06-01T16:18:55Z</time>
      </trkpt>
      <trkpt lat="48.75769" lon="-0.24747">
        <ele>148.76</ele>
        <time>2016-06-01T16:18:35Z</time>
      </trkpt>
      <trkpt lat="48.75822" lon="-0.24773">
        <ele>146.086</ele>
        <time>2016-06-01T16:18:15Z</time>
      </trkpt>
      <trkpt lat="48.7586" lon="-0.24777">
        <ele>142.27</ele>
        <time>2016-06-01T16:17:55Z</time>
      </trkpt>
      <trkpt lat="48.7599" lon="-0.24884">
        <ele>141.871</ele>
        <time>2016-06-01T16:17:35Z</time>
      </trkpt>
      <trkpt lat="48.76105" lon="-0.24934">
        <ele>139.535</ele>
        <time>2016-06-01T16:17:15Z</time>
      </trkpt>
      <trkpt lat="48.76105" lon="-0.24934">
        <ele>139.563</ele>
        <time>2016-06-01T16:17:15Z</time>
      </trkpt>
      <trkpt lat="48.76113" lon="-0.24944">
        <ele>139.087</ele>
        <time>2019-10-26T14:11:46Z</time>
      </trkpt>
      <trkpt lat="48.76039" lon="-0.25014">
        <ele>140.584</ele>
        <time>2019-10-26T14:11:26Z</time>
      </trkpt>
      <trkpt lat="48.7597" lon="-0.25072">
        <ele>146.519</ele>
        <time>2019-10-26T14:11:06Z</time>
      </trkpt>
      <trkpt lat="48.75987" lon="-0.25125">
        <ele>145.873</ele>
        <time>2019-10-26T14:10:46Z</time>
      </trkpt>
      <trkpt lat="48.76006" lon="-0.25181">
        <ele>150.008</ele>
        <time>2019-10-26T14:10:26Z</time>
      </trkpt>
      <trkpt lat="48.76036" lon="-0.25296">
        <ele>167.113</ele>
        <time>2019-10-26T14:10:06Z</time>
      </trkpt>
      <trkpt lat="48.76083" lon="-0.25322">
        <ele>164.385</ele>
        <time>2019-10-26T14:09:46Z</time>
      </trkpt>
      <trkpt lat="48.76156" lon="-0.25415">
        <ele>158.473</ele>
        <time>2019-10-26T14:09:26Z</time>
      </trkpt>
      <trkpt lat="48.76165" lon="-0.2552">
        <ele>166.992</ele>
        <time>2019-10-26T14:09:06Z</time>
      </trkpt>
      <trkpt lat="48.76195" lon="-0.2556">
        <ele>166.593</ele>
        <time>2019-10-26T14:08:46Z</time>
      </trkpt>
      <trkpt lat="48.76243" lon="-0.25608">
        <ele>166.417</ele>
        <time>2019-10-26T14:08:26Z</time>
      </trkpt>
      <trkpt lat="48.76269" lon="-0.2565">
        <ele>167.815</ele>
        <time>2019-10-26T14:08:06Z</time>
      </trkpt>
      <trkpt lat="48.76304" lon="-0.25749">
        <ele>171.329</ele>
        <time>2019-10-26T14:07:46Z</time>
      </trkpt>
      <trkpt lat="48.76345" lon="-0.25822">
        <ele>178.576</ele>
        <time>2019-10-26T14:07:26Z</time>
      </trkpt>
      <trkpt lat="48.76348" lon="-0.25904">
        <ele>181.731</ele>
        <time>2019-10-26T14:07:06Z</time>
      </trkpt>
      <trkpt lat="48.7629" lon="-0.26015">
        <ele>188.445</ele>
        <time>2019-10-26T14:06:46Z</time>
      </trkpt>
      <trkpt lat="48.76237" lon="-0.26149">
        <ele>193.008</ele>
        <time>2019-10-26T14:06:26Z</time>
      </trkpt>
      <trkpt lat="48.76234" lon="-0.26255">
        <ele>197.723</ele>
        <time>2019-10-26T14:06:06Z</time>
      </trkpt>
      <trkpt lat="48.76266" lon="-0.26372">
        <ele>199.149</ele>
        <time>2019-10-26T14:05:46Z</time>
      </trkpt>
      <trkpt lat="48.76278" lon="-0.26457">
        <ele>200.195</ele>
        <time>2019-10-26T14:05:26Z</time>
      </trkpt>
      <trkpt lat="48.76242" lon="-0.26594">
        <ele>187.022</ele>
        <time>2019-10-26T14:05:06Z</time>
      </trkpt>
      <trkpt lat="48.76263" lon="-0.26642">
        <ele>185.663</ele>
        <time>2019-10-26T14:04:46Z</time>
      </trkpt>
      <trkpt lat="48.76295" lon="-0.26649">
        <ele>186.717</ele>
        <time>2016-05-31T23:54:25Z</time>
      </trkpt>
      <trkpt lat="48.76351" lon="-0.26631">
        <ele>187.745</ele>
        <time>2016-05-31T23:54:05Z</time>
      </trkpt>
      <trkpt lat="48.76424" lon="-0.26692">
        <ele>192.789</ele>
        <time>2016-05-31T23:53:45Z</time>
      </trkpt>
      <trkpt lat="48.76482" lon="-0.26802">
        <ele>198.056</ele>
        <time>2016-05-31T23:53:25Z</time>
      </trkpt>
      <trkpt lat="48.76544" lon="-0.26816">
        <ele>197.161</ele>
        <time>2016-05-31T23:53:05Z</time>
      </trkpt>
      <trkpt lat="48.76579" lon="-0.2684">
        <ele>198.965</ele>
        <time>2016-05-31T23:52:45Z</time>
      </trkpt>
      <trkpt lat="48.76604" lon="-0.2689">
        <ele>201.508</ele>
        <time>2016-05-31T23:52:25Z</time>
      </trkpt>
      <trkpt lat="48.76585" lon="-0.26956">
        <ele>201.422</ele>
        <time>2016-05-31T23:52:05Z</time>
      </trkpt>
      <trkpt lat="48.76616" lon="-0.27053">
        <ele>200.757</ele>
        <time>2016-05-31T23:51:45Z</time>
      </trkpt>
      <trkpt lat="48.76619" lon="-0.27198">
        <ele>197.994</ele>
        <time>2016-05-31T23:51:25Z</time>
      </trkpt>
      <trkpt lat="48.7664" lon="-0.27269">
        <ele>195.997</ele>
        <time>2016-05-31T23:51:05Z</time>
      </trkpt>
      <trkpt lat="48.76649" lon="-0.27351">
        <ele>194.828</ele>
        <time>2016-05-31T23:50:45Z</time>
      </trkpt>
      <trkpt lat="48.76669" lon="-0.27385">
        <ele>193.282</ele>
        <time>2016-05-31T23:50:25Z</time>
      </trkpt>
      <trkpt lat="48.76668" lon="-0.27484">
        <ele>187.66</ele>
        <time>2016-05-31T23:50:05Z</time>
      </trkpt>
      <trkpt lat="48.76681" lon="-0.27498">
        <ele>187.154</ele>
        <time>2016-05-31T23:49:45Z</time>
      </trkpt>
      <trkpt lat="48.76731" lon="-0.27499">
        <ele>185.411</ele>
        <time>2016-05-31T23:49:25Z</time>
      </trkpt>
      <trkpt lat="48.76805" lon="-0.2749">
        <ele>180.816</ele>
        <time>2016-05-31T23:49:05Z</time>
      </trkpt>
      <trkpt lat="48.769" lon="-0.27458">
        <ele>180.84</ele>
        <time>2016-05-31T23:48:45Z</time>
      </trkpt>
      <trkpt lat="48.77009" lon="-0.27451">
        <ele>174.908</ele>
        <time>2016-05-31T23:48:25Z</time>
      </trkpt>
      <trkpt lat="48.77034" lon="-0.27488">
        <ele>172.011</ele>
        <time>2016-05-31T23:48:05Z</time>
      </trkpt>
      <trkpt lat="48.77085" lon="-0.27534">
        <ele>165.947</ele>
        <time>2016-05-31T23:47:45Z</time>
      </trkpt>
      <trkpt lat="48.77142" lon="-0.27563">
        <ele>157.445</ele>
        <time>2016-05-31T23:47:25Z</time>
      </trkpt>
      <trkpt lat="48.77196" lon="-0.27553">
        <ele>153.07</ele>
        <time>2016-05-31T23:47:05Z</time>
      </trkpt>
      <trkpt lat="48.77243" lon="-0.27596">
        <ele>160.561</ele>
        <time>2016-05-31T23:46:45Z</time>
      </trkpt>
      <trkpt lat="48.77282" lon="-0.27642">
        <ele>160.945</ele>
        <time>2016-05-31T23:46:25Z</time>
      </trkpt>
      <trkpt lat="48.773" lon="-0.27642">
        <ele>159.533</ele>
        <time>2016-05-31T23:46:05Z</time>
      </trkpt>
      <trkpt lat="48.77346" lon="-0.27619">
        <ele>155.837</ele>
        <time>2016-05-31T23:45:45Z</time>
      </trkpt>
      <trkpt lat="48.77386" lon="-0.27686">
        <ele>155.944</ele>
        <time>2016-05-31T23:45:25Z</time>
      </trkpt>
      <trkpt lat="48.77418" lon="-0.27761">
        <ele>156.899</ele>
        <time>2016-05-31T23:45:05Z</time>
      </trkpt>
      <trkpt lat="48.77419" lon="-0.27795">
        <ele>159.763</ele>
        <time>2016-05-31T23:44:45Z</time>
      </trkpt>
      <trkpt lat="48.77408" lon="-0.27957">
        <ele>178.108</ele>
        <time>2016-05-31T23:44:25Z</time>
      </trkpt>
      <trkpt lat="48.77495" lon="-0.28142">
        <ele>184.815</ele>
        <time>2016-05-31T23:44:05Z</time>
      </trkpt>
      <trkpt lat="48.77495" lon="-0.28142">
        <ele>184.841</ele>
        <time>2016-05-31T23:43:45Z</time>
      </trkpt>
      <trkpt lat="48.77495" lon="-0.28142">
        <ele>184.871</ele>
        <time>2016-05-31T23:43:25Z</time>
      </trkpt>
      <trkpt lat="48.77577" lon="-0.28375">
        <ele>182.742</ele>
        <time>2016-05-31T23:43:05Z</time>
      </trkpt>
      <trkpt lat="48.77652" lon="-0.28357">
        <ele>173.523</ele>
        <time>2016-05-31T23:42:45Z</time>
      </trkpt>
      <trkpt lat="48.77721" lon="-0.28349">
        <ele>165.667</ele>
        <time>2016-05-31T23:42:25Z</time>
      </trkpt>
      <trkpt lat="48.77799" lon="-0.28295">
        <ele>159.445</ele>
        <time>2016-05-31T23:42:05Z</time>
      </trkpt>
      <trkpt lat="48.77794" lon="-0.283">
        <ele>158</ele>
      </trkpt>
      <trkpt lat="48.77801" lon="-0.28316">
        <ele>158.2</ele>
      </trkpt>
      <trkpt lat="48.77814" lon="-0.28372">
        <ele>158.6</ele>
      </trkpt>
      <trkpt lat="48.77826" lon="-0.28415">
        <ele>159.1</ele>
      </trkpt>
      <trkpt lat="48.77828" lon="-0.28458">
        <ele>158.6</ele>
      </trkpt>
      <trkpt lat="48.77831" lon="-0.2851">
        <ele>157.8</ele>
      </trkpt>
      <trkpt lat="48.77868" lon="-0.28537">
        <ele>155</ele>
      </trkpt>
      <trkpt lat="48.77916" lon="-0.28526">
        <ele>152.4</ele>
      </trkpt>
      <trkpt lat="48.77986" lon="-0.28512">
        <ele>142.1</ele>
      </trkpt>
      <trkpt lat="48.77989" lon="-0.28536">
        <ele>141.3</ele>
      </trkpt>
      <trkpt lat="48.77992" lon="-0.28551">
        <ele>140.6</ele>
      </trkpt>
      <trkpt lat="48.77998" lon="-0.2858">
        <ele>139.4</ele>
      </trkpt>
      <trkpt lat="48.78004" lon="-0.28588">
        <ele>139</ele>
      </trkpt>
      <trkpt lat="48.7802" lon="-0.28586">
        <ele>137.4</ele>
      </trkpt>
      <trkpt lat="48.7803" lon="-0.28578">
        <ele>136.1</ele>
      </trkpt>
      <trkpt lat="48.78042" lon="-0.28568">
        <ele>134.9</ele>
      </trkpt>
      <trkpt lat="48.78052" lon="-0.28561">
        <ele>133.8</ele>
      </trkpt>
      <trkpt lat="48.78061" lon="-0.28558">
        <ele>132.8</ele>
      </trkpt>
      <trkpt lat="48.78063" lon="-0.28557">
        <ele>132.6</ele>
      </trkpt>
      <trkpt lat="48.78069" lon="-0.28559">
        <ele>132</ele>
      </trkpt>
      <trkpt lat="48.78076" lon="-0.28564">
        <ele>131.3</ele>
      </trkpt>
      <trkpt lat="48.78086" lon="-0.2857">
        <ele>130.4</ele>
      </trkpt>
      <trkpt lat="48.78095" lon="-0.28576">
        <ele>129.8</ele>
      </trkpt>
      <trkpt lat="48.78103" lon="-0.28584">
        <ele>129.2</ele>
      </trkpt>
      <trkpt lat="48.7811" lon="-0.28591">
        <ele>129.8</ele>
      </trkpt>
      <trkpt lat="48.78113" lon="-0.28596">
        <ele>130.4</ele>
      </trkpt>
      <trkpt lat="48.78114" lon="-0.28603">
        <ele>131.6</ele>
      </trkpt>
      <trkpt lat="48.78109" lon="-0.28608">
        <ele>132.9</ele>
      </trkpt>
      <trkpt lat="48.78099" lon="-0.28605">
        <ele>133.5</ele>
      </trkpt>
      <trkpt lat="48.78084" lon="-0.286">
        <ele>134.1</ele>
      </trkpt>
      <trkpt lat="48.78069" lon="-0.28602">
        <ele>135.7</ele>
      </trkpt>
      <trkpt lat="48.78056" lon="-0.28614">
        <ele>138.4</ele>
      </trkpt>
      <trkpt lat="48.78045" lon="-0.28629">
        <ele>141.2</ele>
      </trkpt>
      <trkpt lat="48.78038" lon="-0.28644">
        <ele>143.4</ele>
      </trkpt>
      <trkpt lat="48.78036" lon="-0.28653">
        <ele>144.7</ele>
      </trkpt>
      <trkpt lat="48.78039" lon="-0.28662">
        <ele>145.8</ele>
      </trkpt>
      <trkpt lat="48.78038" lon="-0.28663">
        <ele>146</ele>
      </trkpt>
      <trkpt lat="48.78027" lon="-0.28689">
        <ele>148.8</ele>
      </trkpt>
      <trkpt lat="48.78012" lon="-0.28722">
        <ele>151.7</ele>
      </trkpt>
      <trkpt lat="48.77993" lon="-0.28762">
        <ele>155.1</ele>
      </trkpt>
      <trkpt lat="48.77976" lon="-0.28794">
        <ele>157.9</ele>
      </trkpt>
      <trkpt lat="48.7796" lon="-0.28818">
        <ele>159.9</ele>
      </trkpt>
      <trkpt lat="48.77947" lon="-0.28828">
        <ele>160.9</ele>
      </trkpt>
      <trkpt lat="48.77936" lon="-0.28837">
        <ele>161.615</ele>
        <time>2020-12-23T21:55:55Z</time>
      </trkpt>
      <trkpt lat="48.77894" lon="-0.28883">
        <ele>163.398</ele>
        <time>2016-05-31T23:37:25Z</time>
      </trkpt>
      <trkpt lat="48.7783" lon="-0.28917">
        <ele>167.494</ele>
        <time>2016-05-31T23:37:05Z</time>
      </trkpt>
      <trkpt lat="48.77745" lon="-0.29031">
        <ele>175.395</ele>
        <time>2016-05-31T23:36:45Z</time>
      </trkpt>
      <trkpt lat="48.77877" lon="-0.29123">
        <ele>172.449</ele>
        <time>2016-05-31T23:36:25Z</time>
      </trkpt>
      <trkpt lat="48.77916" lon="-0.2916">
        <ele>171.847</ele>
        <time>2016-05-31T23:36:05Z</time>
      </trkpt>
      <trkpt lat="48.77949" lon="-0.2916">
        <ele>169.771</ele>
        <time>2016-05-31T23:35:45Z</time>
      </trkpt>
      <trkpt lat="48.77963" lon="-0.29188">
        <ele>170.878</ele>
        <time>2016-05-31T23:35:25Z</time>
      </trkpt>
      <trkpt lat="48.77939" lon="-0.29224">
        <ele>172.033</ele>
        <time>2016-05-31T23:35:05Z</time>
      </trkpt>
      <trkpt lat="48.78053" lon="-0.29282">
        <ele>174.387</ele>
        <time>2016-05-31T23:34:45Z</time>
      </trkpt>
      <trkpt lat="48.78063" lon="-0.29334">
        <ele>176.708</ele>
        <time>2016-05-31T23:34:25Z</time>
      </trkpt>
      <trkpt lat="48.78066" lon="-0.29469">
        <ele>180.209</ele>
        <time>2016-05-31T23:34:05Z</time>
      </trkpt>
      <trkpt lat="48.78001" lon="-0.29718">
        <ele>193.854</ele>
        <time>2016-05-31T23:33:45Z</time>
      </trkpt>
      <trkpt lat="48.77868" lon="-0.30025">
        <ele>181.414</ele>
        <time>2016-05-31T23:33:25Z</time>
      </trkpt>
      <trkpt lat="48.77861" lon="-0.30126">
        <ele>178.526</ele>
        <time>2016-05-31T23:33:05Z</time>
      </trkpt>
      <trkpt lat="48.77865" lon="-0.3025">
        <ele>178.627</ele>
        <time>2016-05-31T23:32:45Z</time>
      </trkpt>
      <trkpt lat="48.77793" lon="-0.30851">
        <ele>158.761</ele>
        <time>2016-05-31T23:32:25Z</time>
      </trkpt>
      <trkpt lat="48.77756" lon="-0.30973">
        <ele>155.569</ele>
        <time>2016-05-31T23:32:05Z</time>
      </trkpt>
      <trkpt lat="48.77737" lon="-0.3107">
        <ele>151.613</ele>
        <time>2016-05-31T23:31:45Z</time>
      </trkpt>
      <trkpt lat="48.77923" lon="-0.31158">
        <ele>151.76</ele>
        <time>2016-05-31T23:31:25Z</time>
      </trkpt>
      <trkpt lat="48.77947" lon="-0.31162">
        <ele>156.635</ele>
        <time>2016-05-31T23:31:05Z</time>
      </trkpt>
      <trkpt lat="48.78066" lon="-0.31108">
        <ele>173.129</ele>
        <time>2016-05-31T23:30:45Z</time>
      </trkpt>
      <trkpt lat="48.78076" lon="-0.31089">
        <ele>171.908</ele>
        <time>2016-05-31T23:30:25Z</time>
      </trkpt>
      <trkpt lat="48.78137" lon="-0.30988">
        <ele>168.413</ele>
        <time>2016-05-31T23:30:05Z</time>
      </trkpt>
      <trkpt lat="48.78164" lon="-0.3095">
        <ele>164.649</ele>
        <time>2016-05-31T23:29:45Z</time>
      </trkpt>
      <trkpt lat="48.7827" lon="-0.30862">
        <ele>172.237</ele>
        <time>2016-05-31T23:29:25Z</time>
      </trkpt>
      <trkpt lat="48.78315" lon="-0.30838">
        <ele>173.984</ele>
        <time>2016-05-31T23:29:05Z</time>
      </trkpt>
      <trkpt lat="48.78362" lon="-0.30834">
        <ele>175.095</ele>
        <time>2016-05-31T23:28:45Z</time>
      </trkpt>
      <trkpt lat="48.78447" lon="-0.30861">
        <ele>181.899</ele>
        <time>2016-05-31T23:28:25Z</time>
      </trkpt>
      <trkpt lat="48.78447" lon="-0.30861">
        <ele>181.887</ele>
        <time>2016-05-31T23:28:05Z</time>
      </trkpt>
      <trkpt lat="48.78485" lon="-0.30931">
        <ele>185.331</ele>
        <time>2016-05-31T23:27:45Z</time>
      </trkpt>
      <trkpt lat="48.78534" lon="-0.30976">
        <ele>188.478</ele>
        <time>2016-05-31T23:27:25Z</time>
      </trkpt>
      <trkpt lat="48.78561" lon="-0.31032">
        <ele>192.343</ele>
        <time>2016-05-31T23:27:05Z</time>
      </trkpt>
      <trkpt lat="48.78624" lon="-0.31047">
        <ele>192.567</ele>
        <time>2016-05-31T23:26:45Z</time>
      </trkpt>
      <trkpt lat="48.78648" lon="-0.31072">
        <ele>193.608</ele>
        <time>2016-05-31T23:26:25Z</time>
      </trkpt>
      <trkpt lat="48.78647" lon="-0.31116">
        <ele>194.215</ele>
        <time>2016-05-31T23:26:05Z</time>
      </trkpt>
      <trkpt lat="48.78624" lon="-0.31164">
        <ele>194.187</ele>
        <time>2016-05-31T23:25:45Z</time>
      </trkpt>
      <trkpt lat="48.78706" lon="-0.31196">
        <ele>181.617</ele>
        <time>2016-05-31T23:25:25Z</time>
      </trkpt>
      <trkpt lat="48.78835" lon="-0.31195">
        <ele>165.73</ele>
        <time>2016-05-31T23:25:05Z</time>
      </trkpt>
      <trkpt lat="48.78945" lon="-0.31153">
        <ele>168.471</ele>
        <time>2016-05-31T23:24:45Z</time>
      </trkpt>
      <trkpt lat="48.7907" lon="-0.31163">
        <ele>162.265</ele>
        <time>2016-05-31T23:24:25Z</time>
      </trkpt>
      <trkpt lat="48.79224" lon="-0.31149">
        <ele>160.033</ele>
        <time>2016-05-31T23:24:05Z</time>
      </trkpt>
      <trkpt lat="48.79265" lon="-0.31191">
        <ele>159.667</ele>
        <time>2016-05-31T23:23:45Z</time>
      </trkpt>
      <trkpt lat="48.793" lon="-0.31202">
        <ele>160.024</ele>
        <time>2016-05-31T23:23:25Z</time>
      </trkpt>
      <trkpt lat="48.79374" lon="-0.31199">
        <ele>159.969</ele>
        <time>2016-05-31T23:23:05Z</time>
      </trkpt>
      <trkpt lat="48.79505" lon="-0.31313">
        <ele>150.993</ele>
        <time>2016-05-31T23:22:45Z</time>
      </trkpt>
      <trkpt lat="48.79544" lon="-0.3133">
        <ele>144.608</ele>
        <time>2016-05-31T23:22:25Z</time>
      </trkpt>
      <trkpt lat="48.79584" lon="-0.31294">
        <ele>139.926</ele>
        <time>2016-05-31T23:22:05Z</time>
      </trkpt>
      <trkpt lat="48.79614" lon="-0.31244">
        <ele>133.633</ele>
        <time>2016-05-31T23:21:45Z</time>
      </trkpt>
      <trkpt lat="48.79633" lon="-0.31216">
        <ele>125.878</ele>
        <time>2016-05-31T23:21:25Z</time>
      </trkpt>
      <trkpt lat="48.79644" lon="-0.31235">
        <ele>123.212</ele>
        <time>2016-05-31T23:21:05Z</time>
      </trkpt>
      <trkpt lat="48.79644" lon="-0.3137">
        <ele>106.923</ele>
        <time>2016-05-31T23:20:45Z</time>
      </trkpt>
      <trkpt lat="48.79662" lon="-0.31444">
        <ele>102.257</ele>
        <time>2016-05-31T23:20:25Z</time>
      </trkpt>
      <trkpt lat="48.79651" lon="-0.3151">
        <ele>101.115</ele>
        <time>2016-05-31T23:20:05Z</time>
      </trkpt>
      <trkpt lat="48.79644" lon="-0.31556">
        <ele>99.059</ele>
        <time>2016-05-31T23:19:45Z</time>
      </trkpt>
      <trkpt lat="48.79579" lon="-0.31522">
        <ele>105.516</ele>
        <time>2016-05-31T23:19:25Z</time>
      </trkpt>
      <trkpt lat="48.79564" lon="-0.31595">
        <ele>106.291</ele>
        <time>2016-05-31T23:19:05Z</time>
      </trkpt>
      <trkpt lat="48.79489" lon="-0.31593">
        <ele>119.915</ele>
        <time>2016-05-31T23:18:45Z</time>
      </trkpt>
      <trkpt lat="48.79424" lon="-0.31634">
        <ele>136.008</ele>
        <time>2016-05-31T23:18:25Z</time>
      </trkpt>
      <trkpt lat="48.79419" lon="-0.31661">
        <ele>136.923</ele>
        <time>2016-05-31T23:18:05Z</time>
      </trkpt>
      <trkpt lat="48.79445" lon="-0.31665">
        <ele>135.849</ele>
        <time>2016-05-31T23:17:45Z</time>
      </trkpt>
      <trkpt lat="48.79481" lon="-0.31703">
        <ele>135.595</ele>
        <time>2016-05-31T23:17:25Z</time>
      </trkpt>
      <trkpt lat="48.7955" lon="-0.31845">
        <ele>138.284</ele>
        <time>2016-05-31T23:17:05Z</time>
      </trkpt>
      <trkpt lat="48.79574" lon="-0.31956">
        <ele>155.815</ele>
        <time>2016-05-31T23:16:45Z</time>
      </trkpt>
      <trkpt lat="48.79623" lon="-0.32015">
        <ele>168.189</ele>
        <time>2016-05-31T23:16:25Z</time>
      </trkpt>
      <trkpt lat="48.79696" lon="-0.32097">
        <ele>174.057</ele>
        <time>2016-05-31T23:16:05Z</time>
      </trkpt>
      <trkpt lat="48.79789" lon="-0.32174">
        <ele>183.591</ele>
        <time>2016-05-31T23:15:45Z</time>
      </trkpt>
      <trkpt lat="48.79797" lon="-0.32252">
        <ele>186.138</ele>
        <time>2016-05-31T23:15:25Z</time>
      </trkpt>
      <trkpt lat="48.79847" lon="-0.32259">
        <ele>188.893</ele>
        <time>2016-05-31T23:15:05Z</time>
      </trkpt>
      <trkpt lat="48.79878" lon="-0.32281">
        <ele>190.257</ele>
        <time>2016-05-31T23:14:45Z</time>
      </trkpt>
      <trkpt lat="48.79905" lon="-0.3233">
        <ele>193.808</ele>
        <time>2016-05-31T23:14:25Z</time>
      </trkpt>
      <trkpt lat="48.79988" lon="-0.32391">
        <ele>192.609</ele>
        <time>2016-05-31T23:14:05Z</time>
      </trkpt>
      <trkpt lat="48.80019" lon="-0.32403">
        <ele>193.554</ele>
        <time>2016-05-31T23:13:45Z</time>
      </trkpt>
      <trkpt lat="48.80116" lon="-0.32393">
        <ele>189.414</ele>
        <time>2016-05-31T23:13:25Z</time>
      </trkpt>
      <trkpt lat="48.80168" lon="-0.32344">
        <ele>190.225</ele>
        <time>2016-05-31T23:13:05Z</time>
      </trkpt>
      <trkpt lat="48.8025" lon="-0.32332">
        <ele>195.976</ele>
        <time>2016-05-31T23:12:45Z</time>
      </trkpt>
      <trkpt lat="48.80278" lon="-0.32313">
        <ele>196.32</ele>
        <time>2016-05-31T23:12:25Z</time>
      </trkpt>
      <trkpt lat="48.80357" lon="-0.32273">
        <ele>201.368</ele>
        <time>2016-05-31T23:12:05Z</time>
      </trkpt>
      <trkpt lat="48.80405" lon="-0.32241">
        <ele>191.132</ele>
        <time>2016-05-31T23:11:45Z</time>
      </trkpt>
      <trkpt lat="48.80441" lon="-0.32159">
        <ele>180.219</ele>
        <time>2016-05-31T23:11:25Z</time>
      </trkpt>
      <trkpt lat="48.80485" lon="-0.32162">
        <ele>173.894</ele>
        <time>2016-05-31T23:11:05Z</time>
      </trkpt>
      <trkpt lat="48.80523" lon="-0.32154">
        <ele>168.798</ele>
        <time>2016-05-31T23:10:45Z</time>
      </trkpt>
      <trkpt lat="48.8055" lon="-0.32184">
        <ele>165.208</ele>
        <time>2016-05-31T23:10:25Z</time>
      </trkpt>
      <trkpt lat="48.80563" lon="-0.32226">
        <ele>164.411</ele>
        <time>2016-05-31T23:10:05Z</time>
      </trkpt>
      <trkpt lat="48.80576" lon="-0.32252">
        <ele>162.483</ele>
        <time>2016-05-31T23:09:45Z</time>
      </trkpt>
      <trkpt lat="48.80641" lon="-0.32239">
        <ele>156.023</ele>
        <time>2016-05-31T23:09:25Z</time>
      </trkpt>
      <trkpt lat="48.80698" lon="-0.32203">
        <ele>158.724</ele>
        <time>2016-05-31T23:09:05Z</time>
      </trkpt>
      <trkpt lat="48.80754" lon="-0.32073">
        <ele>159.615</ele>
        <time>2016-05-31T23:08:45Z</time>
      </trkpt>
      <trkpt lat="48.8076" lon="-0.31995">
        <ele>154.539</ele>
        <time>2016-05-31T23:08:25Z</time>
      </trkpt>
      <trkpt lat="48.8075" lon="-0.31843">
        <ele>142.497</ele>
        <time>2016-05-31T23:08:05Z</time>
      </trkpt>
      <trkpt lat="48.80774" lon="-0.31799">
        <ele>139.131</ele>
        <time>2016-05-31T23:07:45Z</time>
      </trkpt>
      <trkpt lat="48.80827" lon="-0.31749">
        <ele>137.228</ele>
        <time>2016-05-31T23:07:25Z</time>
      </trkpt>
      <trkpt lat="48.80861" lon="-0.317">
        <ele>134.473</ele>
        <time>2016-05-31T23:07:05Z</time>
      </trkpt>
      <trkpt lat="48.80896" lon="-0.31587">
        <ele>130.037</ele>
        <time>2016-05-31T23:06:45Z</time>
      </trkpt>
      <trkpt lat="48.80911" lon="-0.31512">
        <ele>123.908</ele>
        <time>2016-05-31T23:06:25Z</time>
      </trkpt>
      <trkpt lat="48.80955" lon="-0.31479">
        <ele>121.807</ele>
        <time>2016-05-31T23:06:05Z</time>
      </trkpt>
      <trkpt lat="48.81003" lon="-0.31484">
        <ele>114.343</ele>
        <time>2016-05-31T23:05:45Z</time>
      </trkpt>
      <trkpt lat="48.81057" lon="-0.31511">
        <ele>101.113</ele>
        <time>2016-05-31T23:05:25Z</time>
      </trkpt>
      <trkpt lat="48.81079" lon="-0.31546">
        <ele>97.895</ele>
        <time>2016-05-31T23:05:05Z</time>
      </trkpt>
      <trkpt lat="48.81103" lon="-0.31617">
        <ele>93.936</ele>
        <time>2016-05-31T23:04:45Z</time>
      </trkpt>
      <trkpt lat="48.81139" lon="-0.3179">
        <ele>91.99</ele>
        <time>2016-05-31T23:04:25Z</time>
      </trkpt>
      <trkpt lat="48.81154" lon="-0.31919">
        <ele>88.628</ele>
        <time>2016-05-31T23:04:05Z</time>
      </trkpt>
      <trkpt lat="48.81175" lon="-0.32036">
        <ele>82.982</ele>
        <time>2016-05-31T23:03:45Z</time>
      </trkpt>
      <trkpt lat="48.81164" lon="-0.32115">
        <ele>89.249</ele>
        <time>2016-05-31T23:03:25Z</time>
      </trkpt>
      <trkpt lat="48.81166" lon="-0.32197">
        <ele>109.074</ele>
        <time>2016-05-31T23:03:05Z</time>
      </trkpt>
      <trkpt lat="48.81222" lon="-0.32352">
        <ele>117.058</ele>
        <time>2016-05-31T23:02:45Z</time>
      </trkpt>
      <trkpt lat="48.81201" lon="-0.3242">
        <ele>127.908</ele>
        <time>2016-05-31T23:02:25Z</time>
      </trkpt>
      <trkpt lat="48.81172" lon="-0.32419">
        <ele>136.611</ele>
        <time>2016-05-31T23:02:05Z</time>
      </trkpt>
      <trkpt lat="48.81119" lon="-0.32426">
        <ele>146.447</ele>
        <time>2016-05-31T23:01:45Z</time>
      </trkpt>
      <trkpt lat="48.81047" lon="-0.32482">
        <ele>151.426</ele>
        <time>2016-05-31T23:01:25Z</time>
      </trkpt>
      <trkpt lat="48.81009" lon="-0.32546">
        <ele>156.947</ele>
        <time>2016-05-31T23:01:05Z</time>
      </trkpt>
      <trkpt lat="48.81032" lon="-0.32643">
        <ele>157.868</ele>
        <time>2016-05-31T23:00:45Z</time>
      </trkpt>
      <trkpt lat="48.81004" lon="-0.32671">
        <ele>161.692</ele>
        <time>2016-05-31T23:00:25Z</time>
      </trkpt>
      <trkpt lat="48.81004" lon="-0.32671">
        <ele>161.65</ele>
        <time>2016-05-31T23:00:05Z</time>
      </trkpt>
      <trkpt lat="48.80903" lon="-0.32772">
        <ele>174.044</ele>
        <time>2016-05-31T22:59:45Z</time>
      </trkpt>
      <trkpt lat="48.80816" lon="-0.32882">
        <ele>180.931</ele>
        <time>2016-05-31T22:59:25Z</time>
      </trkpt>
      <trkpt lat="48.80792" lon="-0.32932">
        <ele>179.926</ele>
        <time>2016-05-31T22:59:05Z</time>
      </trkpt>
      <trkpt lat="48.80803" lon="-0.33029">
        <ele>185.68</ele>
        <time>2016-05-31T22:58:45Z</time>
      </trkpt>
      <trkpt lat="48.80835" lon="-0.33111">
        <ele>190.208</ele>
        <time>2016-05-31T22:58:25Z</time>
      </trkpt>
      <trkpt lat="48.8083" lon="-0.33155">
        <ele>189.616</ele>
        <time>2016-05-31T22:58:05Z</time>
      </trkpt>
      <trkpt lat="48.80806" lon="-0.33196">
        <ele>189.188</ele>
        <time>2016-05-31T22:57:45Z</time>
      </trkpt>
      <trkpt lat="48.80827" lon="-0.33269">
        <ele>191.846</ele>
        <time>2016-05-31T22:57:25Z</time>
      </trkpt>
      <trkpt lat="48.80849" lon="-0.33395">
        <ele>196.836</ele>
        <time>2016-05-31T22:57:05Z</time>
      </trkpt>
      <trkpt lat="48.80872" lon="-0.33436">
        <ele>199.167</ele>
        <time>2016-05-31T22:56:45Z</time>
      </trkpt>
      <trkpt lat="48.80898" lon="-0.33457">
        <ele>200.131</ele>
        <time>2016-05-31T22:56:25Z</time>
      </trkpt>
      <trkpt lat="48.80953" lon="-0.33471">
        <ele>202.389</ele>
        <time>2016-05-31T22:56:05Z</time>
      </trkpt>
      <trkpt lat="48.81118" lon="-0.33354">
        <ele>194.453</ele>
        <time>2016-05-31T22:55:45Z</time>
      </trkpt>
      <trkpt lat="48.81162" lon="-0.33342">
        <ele>189.35</ele>
        <time>2016-05-31T22:55:25Z</time>
      </trkpt>
      <trkpt lat="48.81202" lon="-0.33318">
        <ele>182.355</ele>
        <time>2016-05-31T22:55:05Z</time>
      </trkpt>
      <trkpt lat="48.81261" lon="-0.33358">
        <ele>168.869</ele>
        <time>2016-05-31T22:54:45Z</time>
      </trkpt>
      <trkpt lat="48.81275" lon="-0.33407">
        <ele>166.708</ele>
        <time>2016-05-31T22:54:25Z</time>
      </trkpt>
      <trkpt lat="48.8127" lon="-0.33448">
        <ele>170.91</ele>
        <time>2016-05-31T22:54:05Z</time>
      </trkpt>
      <trkpt lat="48.81321" lon="-0.33584">
        <ele>178.155</ele>
        <time>2016-05-31T22:53:45Z</time>
      </trkpt>
      <trkpt lat="48.81302" lon="-0.33682">
        <ele>189.934</ele>
        <time>2016-05-31T22:53:25Z</time>
      </trkpt>
      <trkpt lat="48.81276" lon="-0.33693">
        <ele>196.331</ele>
        <time>2016-05-31T22:53:05Z</time>
      </trkpt>
      <trkpt lat="48.81273" lon="-0.33725">
        <ele>200.512</ele>
        <time>2016-05-31T22:52:45Z</time>
      </trkpt>
      <trkpt lat="48.81255" lon="-0.33799">
        <ele>205.496</ele>
        <time>2016-05-31T22:52:25Z</time>
      </trkpt>
      <trkpt lat="48.81242" lon="-0.3391">
        <ele>212.024</ele>
        <time>2016-05-31T22:52:05Z</time>
      </trkpt>
      <trkpt lat="48.81244" lon="-0.33968">
        <ele>212.478</ele>
        <time>2016-05-31T22:51:45Z</time>
      </trkpt>
      <trkpt lat="48.8124" lon="-0.33994">
        <ele>213.565</ele>
        <time>2016-05-31T22:51:25Z</time>
      </trkpt>
      <trkpt lat="48.81229" lon="-0.34036">
        <ele>214.55</ele>
        <time>2016-05-31T22:51:05Z</time>
      </trkpt>
      <trkpt lat="48.81209" lon="-0.34078">
        <ele>214.574</ele>
        <time>2016-05-31T22:50:45Z</time>
      </trkpt>
      <trkpt lat="48.81192" lon="-0.34094">
        <ele>215.108</ele>
        <time>2016-05-31T22:50:25Z</time>
      </trkpt>
      <trkpt lat="48.81179" lon="-0.34118">
        <ele>215.817</ele>
        <time>2016-05-31T22:50:05Z</time>
      </trkpt>
      <trkpt lat="48.8117" lon="-0.34208">
        <ele>217.943</ele>
        <time>2016-05-31T22:49:45Z</time>
      </trkpt>
      <trkpt lat="48.81186" lon="-0.34198">
        <ele>217.382</ele>
        <time>2016-05-31T22:49:25Z</time>
      </trkpt>
      <trkpt lat="48.81191" lon="-0.342">
        <ele>217.165</ele>
        <time>2016-05-31T22:49:05Z</time>
      </trkpt>
      <trkpt lat="48.81195" lon="-0.34231">
        <ele>216.756</ele>
        <time>2016-05-31T22:48:45Z</time>
      </trkpt>
      <trkpt lat="48.81232" lon="-0.34232">
        <ele>214.75</ele>
        <time>2016-05-31T22:48:25Z</time>
      </trkpt>
      <trkpt lat="48.81255" lon="-0.3426">
        <ele>211.968</ele>
        <time>2016-05-31T22:48:05Z</time>
      </trkpt>
      <trkpt lat="48.81266" lon="-0.34265">
        <ele>210.252</ele>
        <time>2016-05-31T22:47:45Z</time>
      </trkpt>
      <trkpt lat="48.81307" lon="-0.34236">
        <ele>204.899</ele>
        <time>2016-05-31T22:46:05Z</time>
      </trkpt>
      <trkpt lat="48.81341" lon="-0.34225">
        <ele>199.654</ele>
        <time>2016-05-31T22:45:45Z</time>
      </trkpt>
      <trkpt lat="48.81374" lon="-0.34223">
        <ele>195.188</ele>
        <time>2016-05-31T22:45:25Z</time>
      </trkpt>
      <trkpt lat="48.81389" lon="-0.34279">
        <ele>196.108</ele>
        <time>2016-05-31T22:45:05Z</time>
      </trkpt>
      <trkpt lat="48.81406" lon="-0.34315">
        <ele>197.105</ele>
        <time>2016-05-31T22:44:45Z</time>
      </trkpt>
      <trkpt lat="48.81438" lon="-0.34348">
        <ele>194.141</ele>
        <time>2016-05-31T22:44:25Z</time>
      </trkpt>
      <trkpt lat="48.81477" lon="-0.34446">
        <ele>193.421</ele>
        <time>2016-05-31T22:44:05Z</time>
      </trkpt>
      <trkpt lat="48.815" lon="-0.3453">
        <ele>194.336</ele>
        <time>2016-05-31T22:43:45Z</time>
      </trkpt>
      <trkpt lat="48.81539" lon="-0.34606">
        <ele>193.237</ele>
        <time>2016-05-31T22:43:25Z</time>
      </trkpt>
      <trkpt lat="48.81566" lon="-0.34647">
        <ele>191.321</ele>
        <time>2016-05-31T22:43:05Z</time>
      </trkpt>
      <trkpt lat="48.81584" lon="-0.34695">
        <ele>191.989</ele>
        <time>2016-05-31T22:42:45Z</time>
      </trkpt>
      <trkpt lat="48.81619" lon="-0.34761">
        <ele>190.863</ele>
        <time>2016-05-31T22:42:25Z</time>
      </trkpt>
      <trkpt lat="48.81643" lon="-0.34833">
        <ele>196.57</ele>
        <time>2016-05-31T22:42:05Z</time>
      </trkpt>
      <trkpt lat="48.81661" lon="-0.34936">
        <ele>204.615</ele>
        <time>2016-05-31T22:41:45Z</time>
      </trkpt>
      <trkpt lat="48.81663" lon="-0.34965">
        <ele>206.119</ele>
        <time>2016-05-31T22:41:25Z</time>
      </trkpt>
      <trkpt lat="48.81611" lon="-0.35179">
        <ele>211.608</ele>
        <time>2016-05-31T22:41:05Z</time>
      </trkpt>
      <trkpt lat="48.81593" lon="-0.35208">
        <ele>209.518</ele>
        <time>2016-05-31T22:40:45Z</time>
      </trkpt>
      <trkpt lat="48.81454" lon="-0.35312">
        <ele>222.617</ele>
        <time>2016-05-31T22:40:25Z</time>
      </trkpt>
      <trkpt lat="48.81357" lon="-0.35365">
        <ele>230.036</ele>
        <time>2016-05-31T22:40:05Z</time>
      </trkpt>
      <trkpt lat="48.81369" lon="-0.35442">
        <ele>228.574</ele>
        <time>2016-05-31T22:39:45Z</time>
      </trkpt>
      <trkpt lat="48.81416" lon="-0.35668">
        <ele>226.055</ele>
        <time>2016-05-31T22:39:25Z</time>
      </trkpt>
      <trkpt lat="48.81423" lon="-0.35724">
        <ele>226.599</ele>
        <time>2016-05-31T22:39:05Z</time>
      </trkpt>
      <trkpt lat="48.8142" lon="-0.35748">
        <ele>226.967</ele>
        <time>2016-05-31T22:38:45Z</time>
      </trkpt>
      <trkpt lat="48.81435" lon="-0.35749">
        <ele>226.371</ele>
        <time>2016-05-31T22:38:25Z</time>
      </trkpt>
      <trkpt lat="48.81491" lon="-0.35805">
        <ele>220.318</ele>
        <time>2016-05-31T22:38:05Z</time>
      </trkpt>
      <trkpt lat="48.81548" lon="-0.35837">
        <ele>216.643</ele>
        <time>2016-05-31T22:37:45Z</time>
      </trkpt>
      <trkpt lat="48.81545" lon="-0.35927">
        <ele>224.477</ele>
        <time>2016-05-31T22:37:25Z</time>
      </trkpt>
      <trkpt lat="48.81473" lon="-0.35983">
        <ele>226.808</ele>
        <time>2016-05-31T22:37:05Z</time>
      </trkpt>
      <trkpt lat="48.81467" lon="-0.36001">
        <ele>227.905</ele>
        <time>2016-05-31T22:36:45Z</time>
      </trkpt>
      <trkpt lat="48.81466" lon="-0.36036">
        <ele>230.432</ele>
        <time>2016-05-31T22:36:25Z</time>
      </trkpt>
      <trkpt lat="48.81476" lon="-0.36067">
        <ele>231.412</ele>
        <time>2016-05-31T22:36:05Z</time>
      </trkpt>
      <trkpt lat="48.81474" lon="-0.36099">
        <ele>232.07</ele>
        <time>2016-05-31T22:35:45Z</time>
      </trkpt>
      <trkpt lat="48.81492" lon="-0.36154">
        <ele>232.731</ele>
        <time>2016-05-31T22:35:25Z</time>
      </trkpt>
      <trkpt lat="48.81499" lon="-0.3619">
        <ele>233.835</ele>
        <time>2016-05-31T22:35:05Z</time>
      </trkpt>
      <trkpt lat="48.81613" lon="-0.36303">
        <ele>236.923</ele>
        <time>2016-05-31T22:34:45Z</time>
      </trkpt>
      <trkpt lat="48.81657" lon="-0.36358">
        <ele>233.087</ele>
        <time>2016-05-31T22:34:25Z</time>
      </trkpt>
      <trkpt lat="48.81693" lon="-0.36388">
        <ele>234.094</ele>
        <time>2016-05-31T22:34:05Z</time>
      </trkpt>
      <trkpt lat="48.81712" lon="-0.36392">
        <ele>234.849</ele>
        <time>2016-05-31T22:33:45Z</time>
      </trkpt>
      <trkpt lat="48.81767" lon="-0.36384">
        <ele>236.553</ele>
        <time>2016-05-31T22:33:25Z</time>
      </trkpt>
      <trkpt lat="48.81789" lon="-0.36387">
        <ele>236.408</ele>
        <time>2016-05-31T22:33:05Z</time>
      </trkpt>
      <trkpt lat="48.81836" lon="-0.36429">
        <ele>236.614</ele>
        <time>2016-05-31T22:32:45Z</time>
      </trkpt>
      <trkpt lat="48.81889" lon="-0.36462">
        <ele>233.013</ele>
        <time>2016-05-31T22:32:25Z</time>
      </trkpt>
      <trkpt lat="48.81919" lon="-0.36496">
        <ele>233.972</ele>
        <time>2016-05-31T22:32:05Z</time>
      </trkpt>
      <trkpt lat="48.8199" lon="-0.36612">
        <ele>228.498</ele>
        <time>2016-05-31T22:31:45Z</time>
      </trkpt>
      <trkpt lat="48.82026" lon="-0.36644">
        <ele>225.289</ele>
        <time>2016-05-31T22:31:25Z</time>
      </trkpt>
      <trkpt lat="48.82093" lon="-0.36765">
        <ele>219.953</ele>
        <time>2016-05-31T22:31:05Z</time>
      </trkpt>
      <trkpt lat="48.82144" lon="-0.36891">
        <ele>215.381</ele>
        <time>2016-05-31T22:30:45Z</time>
      </trkpt>
      <trkpt lat="48.82156" lon="-0.36949">
        <ele>215.725</ele>
        <time>2016-05-31T22:30:25Z</time>
      </trkpt>
      <trkpt lat="48.8218" lon="-0.3696">
        <ele>215.092</ele>
        <time>2016-05-31T22:30:05Z</time>
      </trkpt>
      <trkpt lat="48.8222" lon="-0.36919">
        <ele>213.927</ele>
        <time>2016-05-31T22:29:45Z</time>
      </trkpt>
      <trkpt lat="48.82244" lon="-0.36962">
        <ele>213.581</ele>
        <time>2016-05-31T22:29:25Z</time>
      </trkpt>
      <trkpt lat="48.82241" lon="-0.36994">
        <ele>213.308</ele>
        <time>2016-05-31T22:29:05Z</time>
      </trkpt>
      <trkpt lat="48.82311" lon="-0.3718">
        <ele>205.214</ele>
        <time>2016-05-31T22:28:45Z</time>
      </trkpt>
      <trkpt lat="48.82311" lon="-0.3718">
        <ele>205.259</ele>
        <time>2016-05-31T22:28:25Z</time>
      </trkpt>
      <trkpt lat="48.82374" lon="-0.37274">
        <ele>195.556</ele>
        <time>2016-05-31T22:28:05Z</time>
      </trkpt>
      <trkpt lat="48.82433" lon="-0.37351">
        <ele>187.15</ele>
        <time>2016-05-31T22:27:45Z</time>
      </trkpt>
      <trkpt lat="48.82465" lon="-0.37374">
        <ele>182.261</ele>
        <time>2016-05-31T22:27:25Z</time>
      </trkpt>
      <trkpt lat="48.82478" lon="-0.37368">
        <ele>181.335</ele>
        <time>2016-05-31T22:27:05Z</time>
      </trkpt>
      <trkpt lat="48.82709" lon="-0.37863">
        <ele>160.213</ele>
        <time>2016-05-31T22:26:45Z</time>
      </trkpt>
      <trkpt lat="48.82777" lon="-0.37898">
        <ele>161.987</ele>
        <time>2016-05-31T22:26:25Z</time>
      </trkpt>
      <trkpt lat="48.82824" lon="-0.3787">
        <ele>159.944</ele>
        <time>2016-05-31T22:26:05Z</time>
      </trkpt>
      <trkpt lat="48.82824" lon="-0.3787">
        <ele>159.949</ele>
        <time>2016-05-31T22:25:45Z</time>
      </trkpt>
      <trkpt lat="48.82824" lon="-0.3787">
        <ele>159.943</ele>
        <time>2016-05-31T22:25:25Z</time>
      </trkpt>
      <trkpt lat="48.82824" lon="-0.3787">
        <ele>159.908</ele>
        <time>2016-05-31T22:25:05Z</time>
      </trkpt>
      <trkpt lat="48.82926" lon="-0.38172">
        <ele>155.714</ele>
        <time>2016-05-31T22:24:45Z</time>
      </trkpt>
      <trkpt lat="48.82938" lon="-0.38172">
        <ele>154.713</ele>
        <time>2016-05-31T22:24:25Z</time>
      </trkpt>
      <trkpt lat="48.82949" lon="-0.38202">
        <ele>153.672</ele>
        <time>2016-05-31T22:24:05Z</time>
      </trkpt>
      <trkpt lat="48.83011" lon="-0.38153">
        <ele>152.934</ele>
        <time>2016-05-31T22:23:45Z</time>
      </trkpt>
      <trkpt lat="48.83012" lon="-0.38127">
        <ele>154.535</ele>
        <time>2016-05-31T22:23:25Z</time>
      </trkpt>
      <trkpt lat="48.83067" lon="-0.3813">
        <ele>151.059</ele>
        <time>2016-05-31T22:23:05Z</time>
      </trkpt>
      <trkpt lat="48.83067" lon="-0.3813">
        <ele>151.027</ele>
        <time>2016-05-31T22:22:45Z</time>
      </trkpt>
      <trkpt lat="48.8314" lon="-0.38206">
        <ele>145.381</ele>
        <time>2016-05-31T22:22:25Z</time>
      </trkpt>
      <trkpt lat="48.83162" lon="-0.3826">
        <ele>148.068</ele>
        <time>2016-05-31T22:22:05Z</time>
      </trkpt>
      <trkpt lat="48.83185" lon="-0.38278">
        <ele>149.753</ele>
        <time>2016-05-31T22:21:45Z</time>
      </trkpt>
      <trkpt lat="48.83242" lon="-0.38403">
        <ele>152.277</ele>
        <time>2016-05-31T22:21:25Z</time>
      </trkpt>
      <trkpt lat="48.8329" lon="-0.38533">
        <ele>150.608</ele>
        <time>2016-05-31T22:21:05Z</time>
      </trkpt>
      <trkpt lat="48.8333" lon="-0.38603">
        <ele>149.219</ele>
        <time>2016-05-31T22:20:45Z</time>
      </trkpt>
      <trkpt lat="48.83419" lon="-0.3849">
        <ele>158.909</ele>
        <time>2016-05-31T22:20:25Z</time>
      </trkpt>
      <trkpt lat="48.83471" lon="-0.3838">
        <ele>162.019</ele>
        <time>2016-05-31T22:20:05Z</time>
      </trkpt>
      <trkpt lat="48.83511" lon="-0.38218">
        <ele>163.014</ele>
        <time>2016-05-31T22:19:45Z</time>
      </trkpt>
      <trkpt lat="48.8356" lon="-0.38177">
        <ele>161.935</ele>
        <time>2016-05-31T22:19:25Z</time>
      </trkpt>
      <trkpt lat="48.83658" lon="-0.38124">
        <ele>158.539</ele>
        <time>2016-05-31T22:19:05Z</time>
      </trkpt>
      <trkpt lat="48.83757" lon="-0.37991">
        <ele>149.167</ele>
        <time>2016-05-31T22:18:45Z</time>
      </trkpt>
      <trkpt lat="48.83796" lon="-0.37928">
        <ele>141.871</ele>
        <time>2016-05-31T22:18:25Z</time>
      </trkpt>
      <trkpt lat="48.83835" lon="-0.37865">
        <ele>138.078</ele>
        <time>2016-05-31T22:18:05Z</time>
      </trkpt>
      <trkpt lat="48.83888" lon="-0.37937">
        <ele>136.173</ele>
        <time>2016-05-31T22:17:45Z</time>
      </trkpt>
      <trkpt lat="48.83991" lon="-0.3806">
        <ele>127.677</ele>
        <time>2016-05-31T22:17:25Z</time>
      </trkpt>
      <trkpt lat="48.84023" lon="-0.38147">
        <ele>125.908</ele>
        <time>2016-05-31T22:17:05Z</time>
      </trkpt>
      <trkpt lat="48.84091" lon="-0.38283">
        <ele>108.111</ele>
        <time>2016-05-31T22:16:45Z</time>
      </trkpt>
      <trkpt lat="48.84117" lon="-0.38309">
        <ele>102.165</ele>
        <time>2016-05-31T22:16:25Z</time>
      </trkpt>
      <trkpt lat="48.8415" lon="-0.38356">
        <ele>97.015</ele>
        <time>2016-05-31T22:16:05Z</time>
      </trkpt>
      <trkpt lat="48.84165" lon="-0.38451">
        <ele>93.862</ele>
        <time>2016-05-31T22:15:45Z</time>
      </trkpt>
      <trkpt lat="48.84159" lon="-0.38528">
        <ele>93.133</ele>
        <time>2016-05-31T22:15:25Z</time>
      </trkpt>
      <trkpt lat="48.84156" lon="-0.38668">
        <ele>97.417</ele>
        <time>2016-05-31T22:15:05Z</time>
      </trkpt>
      <trkpt lat="48.84184" lon="-0.38815">
        <ele>98.395</ele>
        <time>2016-05-31T22:14:45Z</time>
      </trkpt>
      <trkpt lat="48.84163" lon="-0.38856">
        <ele>100.339</ele>
        <time>2016-05-31T22:14:25Z</time>
      </trkpt>
      <trkpt lat="48.84165" lon="-0.38892">
        <ele>99.136</ele>
        <time>2016-05-31T22:14:05Z</time>
      </trkpt>
      <trkpt lat="48.84199" lon="-0.39065">
        <ele>96.851</ele>
        <time>2016-05-31T22:13:45Z</time>
      </trkpt>
      <trkpt lat="48.84217" lon="-0.39218">
        <ele>93.295</ele>
        <time>2016-05-31T22:13:25Z</time>
      </trkpt>
      <trkpt lat="48.84212" lon="-0.39323">
        <ele>87.508</ele>
        <time>2016-05-31T22:13:05Z</time>
      </trkpt>
      <trkpt lat="48.84187" lon="-0.39413">
        <ele>78.42</ele>
        <time>2016-05-31T22:12:45Z</time>
      </trkpt>
      <trkpt lat="48.84194" lon="-0.39444">
        <ele>75.073</ele>
        <time>2016-05-31T22:12:25Z</time>
      </trkpt>
      <trkpt lat="48.84227" lon="-0.39529">
        <ele>64.092</ele>
        <time>2016-05-31T22:12:05Z</time>
      </trkpt>
      <trkpt lat="48.84264" lon="-0.3956">
        <ele>63.144</ele>
        <time>2016-05-31T22:11:45Z</time>
      </trkpt>
      <trkpt lat="48.842" lon="-0.39589">
        <ele>57.615</ele>
        <time>2016-05-31T22:11:25Z</time>
      </trkpt>
      <trkpt lat="48.84173" lon="-0.3964">
        <ele>60.729</ele>
        <time>2016-05-31T22:11:05Z</time>
      </trkpt>
      <trkpt lat="48.84191" lon="-0.39708">
        <ele>64.597</ele>
        <time>2016-05-31T22:10:45Z</time>
      </trkpt>
      <trkpt lat="48.84271" lon="-0.39832">
        <ele>67.391</ele>
        <time>2016-05-31T22:10:25Z</time>
      </trkpt>
      <trkpt lat="48.84342" lon="-0.39849">
        <ele>72.068</ele>
        <time>2016-05-31T22:10:05Z</time>
      </trkpt>
      <trkpt lat="48.84414" lon="-0.3982">
        <ele>74.423</ele>
        <time>2016-05-31T22:09:45Z</time>
      </trkpt>
      <trkpt lat="48.84503" lon="-0.39688">
        <ele>72.277</ele>
        <time>2016-05-31T22:09:25Z</time>
      </trkpt>
      <trkpt lat="48.84574" lon="-0.39445">
        <ele>66.408</ele>
        <time>2016-05-31T22:09:05Z</time>
      </trkpt>
      <trkpt lat="48.84594" lon="-0.39321">
        <ele>67.217</ele>
        <time>2016-05-31T22:08:45Z</time>
      </trkpt>
      <trkpt lat="48.84576" lon="-0.39182">
        <ele>68.698</ele>
        <time>2016-05-31T22:08:25Z</time>
      </trkpt>
      <trkpt lat="48.84521" lon="-0.3908">
        <ele>66.518</ele>
        <time>2016-05-31T22:08:05Z</time>
      </trkpt>
      <trkpt lat="48.84441" lon="-0.38964">
        <ele>64.152</ele>
        <time>2016-05-31T22:07:45Z</time>
      </trkpt>
      <trkpt lat="48.8434" lon="-0.38835">
        <ele>58.823</ele>
        <time>2016-05-31T22:07:25Z</time>
      </trkpt>
      <trkpt lat="48.84321" lon="-0.38686">
        <ele>57.537</ele>
        <time>2016-05-31T22:07:05Z</time>
      </trkpt>
      <trkpt lat="48.84334" lon="-0.3857">
        <ele>58.795</ele>
        <time>2016-05-31T22:06:45Z</time>
      </trkpt>
      <trkpt lat="48.84434" lon="-0.38227">
        <ele>61.039</ele>
        <time>2016-05-31T22:06:25Z</time>
      </trkpt>
      <trkpt lat="48.84473" lon="-0.38163">
        <ele>57.736</ele>
        <time>2016-05-31T22:06:05Z</time>
      </trkpt>
      <trkpt lat="48.84519" lon="-0.38152">
        <ele>55.681</ele>
        <time>2016-05-31T22:05:45Z</time>
      </trkpt>
      <trkpt lat="48.84501" lon="-0.38211">
        <ele>61.715</ele>
        <time>2016-05-31T22:05:25Z</time>
      </trkpt>
      <trkpt lat="48.84462" lon="-0.38296">
        <ele>70.208</ele>
        <time>2016-05-31T22:05:05Z</time>
      </trkpt>
      <trkpt lat="48.84456" lon="-0.38351">
        <ele>71.919</ele>
        <time>2016-05-31T22:04:45Z</time>
      </trkpt>
      <trkpt lat="48.84445" lon="-0.38394">
        <ele>73.481</ele>
        <time>2016-05-31T22:04:25Z</time>
      </trkpt>
      <trkpt lat="48.84449" lon="-0.38466">
        <ele>77.291</ele>
        <time>2016-05-31T22:04:05Z</time>
      </trkpt>
      <trkpt lat="48.84449" lon="-0.38583">
        <ele>82.112</ele>
        <time>2016-05-31T22:03:45Z</time>
      </trkpt>
      <trkpt lat="48.84494" lon="-0.38731">
        <ele>95.583</ele>
        <time>2016-05-31T22:03:25Z</time>
      </trkpt>
      <trkpt lat="48.84563" lon="-0.38902">
        <ele>109.187</ele>
        <time>2016-05-31T22:03:05Z</time>
      </trkpt>
      <trkpt lat="48.84624" lon="-0.39006">
        <ele>113.135</ele>
        <time>2016-05-31T22:02:45Z</time>
      </trkpt>
      <trkpt lat="48.84644" lon="-0.39064">
        <ele>109.149</ele>
        <time>2016-05-31T22:02:25Z</time>
      </trkpt>
      <trkpt lat="48.84647" lon="-0.39113">
        <ele>106.466</ele>
        <time>2016-05-31T22:02:05Z</time>
      </trkpt>
      <trkpt lat="48.84659" lon="-0.39161">
        <ele>104.081</ele>
        <time>2016-05-31T22:01:45Z</time>
      </trkpt>
      <trkpt lat="48.84675" lon="-0.39292">
        <ele>97.945</ele>
        <time>2016-05-31T22:01:25Z</time>
      </trkpt>
      <trkpt lat="48.84675" lon="-0.39368">
        <ele>98.108</ele>
        <time>2016-05-31T22:01:05Z</time>
      </trkpt>
      <trkpt lat="48.84689" lon="-0.39377">
        <ele>99.524</ele>
        <time>2016-05-31T22:00:45Z</time>
      </trkpt>
      <trkpt lat="48.84708" lon="-0.39376">
        <ele>99.031</ele>
        <time>2016-05-31T22:00:25Z</time>
      </trkpt>
      <trkpt lat="48.84835" lon="-0.39107">
        <ele>83.796</ele>
        <time>2016-05-31T22:00:05Z</time>
      </trkpt>
      <trkpt lat="48.84878" lon="-0.391">
        <ele>77.168</ele>
        <time>2016-05-31T21:59:45Z</time>
      </trkpt>
      <trkpt lat="48.84961" lon="-0.39207">
        <ele>74.869</ele>
        <time>2016-05-31T21:59:25Z</time>
      </trkpt>
      <trkpt lat="48.84991" lon="-0.39158">
        <ele>66.233</ele>
        <time>2016-05-31T21:59:05Z</time>
      </trkpt>
      <trkpt lat="48.85055" lon="-0.39225">
        <ele>70.561</ele>
        <time>2016-05-31T21:58:45Z</time>
      </trkpt>
      <trkpt lat="48.85121" lon="-0.39347">
        <ele>72.985</ele>
        <time>2016-05-31T21:58:25Z</time>
      </trkpt>
      <trkpt lat="48.85141" lon="-0.39352">
        <ele>68.842</ele>
        <time>2016-05-31T21:58:05Z</time>
      </trkpt>
      <trkpt lat="48.85154" lon="-0.39405">
        <ele>67.187</ele>
        <time>2016-05-31T21:57:45Z</time>
      </trkpt>
      <trkpt lat="48.85179" lon="-0.39374">
        <ele>59.371</ele>
        <time>2016-05-31T21:57:25Z</time>
      </trkpt>
      <trkpt lat="48.85207" lon="-0.39372">
        <ele>56.508</ele>
        <time>2016-05-31T21:57:05Z</time>
      </trkpt>
      <trkpt lat="48.85267" lon="-0.39299">
        <ele>51.714</ele>
        <time>2016-05-31T21:56:45Z</time>
      </trkpt>
      <trkpt lat="48.85329" lon="-0.39302">
        <ele>49.704</ele>
        <time>2016-05-31T21:56:25Z</time>
      </trkpt>
      <trkpt lat="48.85421" lon="-0.3939">
        <ele>50.853</ele>
        <time>2016-05-31T21:56:05Z</time>
      </trkpt>
      <trkpt lat="48.85644" lon="-0.398">
        <ele>51.024</ele>
        <time>2016-05-31T21:55:45Z</time>
      </trkpt>
      <trkpt lat="48.85675" lon="-0.39835">
        <ele>51.785</ele>
        <time>2016-05-31T21:55:25Z</time>
      </trkpt>
      <trkpt lat="48.85692" lon="-0.39882">
        <ele>51.269</ele>
        <time>2016-05-31T21:55:05Z</time>
      </trkpt>
      <trkpt lat="48.85711" lon="-0.39928">
        <ele>51.477</ele>
        <time>2016-05-31T21:54:45Z</time>
      </trkpt>
      <trkpt lat="48.85741" lon="-0.40013">
        <ele>56.791</ele>
        <time>2016-05-31T21:54:25Z</time>
      </trkpt>
      <trkpt lat="48.8574" lon="-0.40061">
        <ele>60.598</ele>
        <time>2016-05-31T21:54:05Z</time>
      </trkpt>
      <trkpt lat="48.85684" lon="-0.40145">
        <ele>68.323</ele>
        <time>2016-05-31T21:53:45Z</time>
      </trkpt>
      <trkpt lat="48.85642" lon="-0.40241">
        <ele>74.457</ele>
        <time>2016-05-31T21:53:25Z</time>
      </trkpt>
      <trkpt lat="48.85612" lon="-0.4046">
        <ele>88.108</ele>
        <time>2016-05-31T21:53:05Z</time>
      </trkpt>
      <trkpt lat="48.85419" lon="-0.40905">
        <ele>111.203</ele>
        <time>2016-05-31T21:52:45Z</time>
      </trkpt>
      <trkpt lat="48.85354" lon="-0.41093">
        <ele>122.221</ele>
        <time>2016-05-31T21:52:25Z</time>
      </trkpt>
      <trkpt lat="48.8538" lon="-0.41099">
        <ele>122.011</ele>
        <time>2016-05-31T21:52:05Z</time>
      </trkpt>
      <trkpt lat="48.85508" lon="-0.41203">
        <ele>126.377</ele>
        <time>2016-05-31T21:51:45Z</time>
      </trkpt>
      <trkpt lat="48.85604" lon="-0.41222">
        <ele>119.038</ele>
        <time>2016-05-31T21:51:25Z</time>
      </trkpt>
      <trkpt lat="48.85668" lon="-0.41261">
        <ele>118.672</ele>
        <time>2016-05-31T21:51:05Z</time>
      </trkpt>
      <trkpt lat="48.85722" lon="-0.4128">
        <ele>117.18</ele>
        <time>2016-05-31T21:50:45Z</time>
      </trkpt>
      <trkpt lat="48.85787" lon="-0.41248">
        <ele>114.634</ele>
        <time>2016-05-31T21:50:25Z</time>
      </trkpt>
      <trkpt lat="48.85957" lon="-0.41204">
        <ele>108.711</ele>
        <time>2016-05-31T21:50:05Z</time>
      </trkpt>
      <trkpt lat="48.85978" lon="-0.41189">
        <ele>107.486</ele>
        <time>2016-05-31T21:49:45Z</time>
      </trkpt>
      <trkpt lat="48.86062" lon="-0.41231">
        <ele>100.42</ele>
        <time>2016-05-31T21:49:25Z</time>
      </trkpt>
      <trkpt lat="48.8613" lon="-0.4114">
        <ele>94.008</ele>
        <time>2016-05-31T21:49:05Z</time>
      </trkpt>
      <trkpt lat="48.86123" lon="-0.4124">
        <ele>94.222</ele>
        <time>2016-05-31T21:48:45Z</time>
      </trkpt>
      <trkpt lat="48.86151" lon="-0.41258">
        <ele>94.102</ele>
        <time>2016-05-31T21:48:25Z</time>
      </trkpt>
      <trkpt lat="48.86261" lon="-0.41379">
        <ele>98.549</ele>
        <time>2016-05-31T21:48:05Z</time>
      </trkpt>
      <trkpt lat="48.86319" lon="-0.41473">
        <ele>99.562</ele>
        <time>2016-05-31T21:47:45Z</time>
      </trkpt>
      <trkpt lat="48.86372" lon="-0.41407">
        <ele>95.733</ele>
        <time>2016-05-31T21:47:25Z</time>
      </trkpt>
      <trkpt lat="48.86443" lon="-0.41261">
        <ele>89.737</ele>
        <time>2016-05-31T21:47:05Z</time>
      </trkpt>
      <trkpt lat="48.86495" lon="-0.41228">
        <ele>88.935</ele>
        <time>2016-05-31T21:46:45Z</time>
      </trkpt>
      <trkpt lat="48.86532" lon="-0.41184">
        <ele>86.559</ele>
        <time>2016-05-31T21:46:25Z</time>
      </trkpt>
      <trkpt lat="48.86599" lon="-0.41148">
        <ele>84.596</ele>
        <time>2016-05-31T21:46:05Z</time>
      </trkpt>
      <trkpt lat="48.86664" lon="-0.41035">
        <ele>77.471</ele>
        <time>2016-05-31T21:45:45Z</time>
      </trkpt>
      <trkpt lat="48.86761" lon="-0.40829">
        <ele>65.495</ele>
        <time>2016-05-31T21:45:25Z</time>
      </trkpt>
      <trkpt lat="48.86983" lon="-0.40992">
        <ele>52.3</ele>
      </trkpt>
      <trkpt lat="48.86939" lon="-0.41108">
        <ele>53.9</ele>
      </trkpt>
      <trkpt lat="48.86939" lon="-0.41108">
        <ele>53.9</ele>
      </trkpt>
      <trkpt lat="48.86929" lon="-0.41146">
        <ele>52.5</ele>
      </trkpt>
      <trkpt lat="48.86904" lon="-0.41225">
        <ele>52.1</ele>
      </trkpt>
      <trkpt lat="48.86892" lon="-0.41242">
        <ele>53.8</ele>
      </trkpt>
      <trkpt lat="48.86828" lon="-0.41476">
        <ele>58.4</ele>
      </trkpt>
      <trkpt lat="48.86797" lon="-0.41581">
        <ele>61</ele>
      </trkpt>
      <trkpt lat="48.86705" lon="-0.41984">
        <ele>62.4</ele>
      </trkpt>
      <trkpt lat="48.8666" lon="-0.42227">
        <ele>57.5</ele>
      </trkpt>
      <trkpt lat="48.86655" lon="-0.42234">
        <ele>57.6</ele>
      </trkpt>
      <trkpt lat="48.86643" lon="-0.42241">
        <ele>59.1</ele>
      </trkpt>
      <trkpt lat="48.86633" lon="-0.42256">
        <ele>59.6</ele>
      </trkpt>
      <trkpt lat="48.866" lon="-0.42338">
        <ele>59.7</ele>
      </trkpt>
      <trkpt lat="48.8658" lon="-0.42391">
        <ele>58.8</ele>
      </trkpt>
      <trkpt lat="48.86569" lon="-0.42399">
        <ele>59.3</ele>
      </trkpt>
      <trkpt lat="48.86555" lon="-0.42399">
        <ele>60.5</ele>
      </trkpt>
      <trkpt lat="48.86535" lon="-0.42395">
        <ele>62.5</ele>
      </trkpt>
      <trkpt lat="48.86517" lon="-0.42382">
        <ele>65</ele>
      </trkpt>
      <trkpt lat="48.86492" lon="-0.42369">
        <ele>67.6</ele>
      </trkpt>
      <trkpt lat="48.86474" lon="-0.42362">
        <ele>68.8</ele>
      </trkpt>
      <trkpt lat="48.86462" lon="-0.4236">
        <ele>69.3</ele>
      </trkpt>
      <trkpt lat="48.8645" lon="-0.4236">
        <ele>69.7</ele>
      </trkpt>
      <trkpt lat="48.86432" lon="-0.42363">
        <ele>70</ele>
      </trkpt>
      <trkpt lat="48.86407" lon="-0.42371">
        <ele>70</ele>
      </trkpt>
      <trkpt lat="48.86399" lon="-0.42379">
        <ele>69.5</ele>
      </trkpt>
      <trkpt lat="48.86382" lon="-0.42422">
        <ele>67.5</ele>
      </trkpt>
      <trkpt lat="48.86413" lon="-0.42444">
        <ele>66.9</ele>
      </trkpt>
      <trkpt lat="48.86425" lon="-0.42456">
        <ele>66.6</ele>
      </trkpt>
      <trkpt lat="48.86423" lon="-0.42466">
        <ele>66.9</ele>
      </trkpt>
      <trkpt lat="48.86416" lon="-0.42478">
        <ele>67.5</ele>
      </trkpt>
      <trkpt lat="48.86397" lon="-0.42501">
        <ele>69.7</ele>
      </trkpt>
      <trkpt lat="48.86373" lon="-0.42522">
        <ele>71.7</ele>
      </trkpt>
      <trkpt lat="48.86343" lon="-0.42535">
        <ele>74.5</ele>
      </trkpt>
      <trkpt lat="48.86323" lon="-0.42546">
        <ele>75.9</ele>
      </trkpt>
      <trkpt lat="48.86294" lon="-0.42575">
        <ele>78.4</ele>
      </trkpt>
      <trkpt lat="48.86266" lon="-0.42611">
        <ele>80.5</ele>
      </trkpt>
      <trkpt lat="48.86254" lon="-0.42628">
        <ele>81.6</ele>
      </trkpt>
      <trkpt lat="48.8625" lon="-0.42645">
        <ele>82</ele>
      </trkpt>
      <trkpt lat="48.86228" lon="-0.42657">
        <ele>83.9</ele>
      </trkpt>
      <trkpt lat="48.86191" lon="-0.42685">
        <ele>87.8</ele>
      </trkpt>
      <trkpt lat="48.8616" lon="-0.42712">
        <ele>90.8</ele>
      </trkpt>
      <trkpt lat="48.86139" lon="-0.42733">
        <ele>92.6</ele>
      </trkpt>
      <trkpt lat="48.86127" lon="-0.42756">
        <ele>94.6</ele>
      </trkpt>
      <trkpt lat="48.86119" lon="-0.42775">
        <ele>96.1</ele>
      </trkpt>
      <trkpt lat="48.86085" lon="-0.42945">
        <ele>105.2</ele>
      </trkpt>
      <trkpt lat="48.86068" lon="-0.42995">
        <ele>109.3</ele>
      </trkpt>
      <trkpt lat="48.86036" lon="-0.43102">
        <ele>116.1</ele>
      </trkpt>
      <trkpt lat="48.86023" lon="-0.43145">
        <ele>119.1</ele>
      </trkpt>
      <trkpt lat="48.85987" lon="-0.43212">
        <ele>123.6</ele>
      </trkpt>
      <trkpt lat="48.85915" lon="-0.43327">
        <ele>130.5</ele>
      </trkpt>
      <trkpt lat="48.85894" lon="-0.43358">
        <ele>131.9</ele>
      </trkpt>
      <trkpt lat="48.85847" lon="-0.43419">
        <ele>137.5</ele>
      </trkpt>
      <trkpt lat="48.85822" lon="-0.43456">
        <ele>137.8</ele>
      </trkpt>
      <trkpt lat="48.85774" lon="-0.43538">
        <ele>143.5</ele>
      </trkpt>
      <trkpt lat="48.85752" lon="-0.43578">
        <ele>148.5</ele>
      </trkpt>
      <trkpt lat="48.85734" lon="-0.43615">
        <ele>151.8</ele>
      </trkpt>
      <trkpt lat="48.85718" lon="-0.43658">
        <ele>154.7</ele>
      </trkpt>
      <trkpt lat="48.85736" lon="-0.43745">
        <ele>157.2</ele>
      </trkpt>
      <trkpt lat="48.85771" lon="-0.4388">
        <ele>164.7</ele>
      </trkpt>
      <trkpt lat="48.85779" lon="-0.43922">
        <ele>166.8</ele>
      </trkpt>
      <trkpt lat="48.85796" lon="-0.44045">
        <ele>169.3</ele>
      </trkpt>
      <trkpt lat="48.85801" lon="-0.44117">
        <ele>169.3</ele>
      </trkpt>
      <trkpt lat="48.85798" lon="-0.4435">
        <ele>170.8</ele>
      </trkpt>
      <trkpt lat="48.85892" lon="-0.44353">
        <ele>166.9</ele>
      </trkpt>
      <trkpt lat="48.85896" lon="-0.44405">
        <ele>167</ele>
      </trkpt>
      <trkpt lat="48.85899" lon="-0.44458">
        <ele>166.2</ele>
      </trkpt>
      <trkpt lat="48.85897" lon="-0.44588">
        <ele>162.4</ele>
      </trkpt>
      <trkpt lat="48.85891" lon="-0.44685">
        <ele>159.8</ele>
      </trkpt>
      <trkpt lat="48.85884" lon="-0.44729">
        <ele>157.8</ele>
      </trkpt>
      <trkpt lat="48.85833" lon="-0.44903">
        <ele>151.6</ele>
      </trkpt>
      <trkpt lat="48.85781" lon="-0.45053">
        <ele>146.8</ele>
      </trkpt>
      <trkpt lat="48.85768" lon="-0.45072">
        <ele>145.9</ele>
      </trkpt>
      <trkpt lat="48.85706" lon="-0.45124">
        <ele>147</ele>
      </trkpt>
      <trkpt lat="48.85688" lon="-0.45143">
        <ele>146.5</ele>
      </trkpt>
      <trkpt lat="48.85672" lon="-0.45162">
        <ele>145.3</ele>
      </trkpt>
      <trkpt lat="48.8567" lon="-0.45195">
        <ele>147.3</ele>
      </trkpt>
      <trkpt lat="48.85675" lon="-0.45204">
        <ele>148</ele>
      </trkpt>
      <trkpt lat="48.85746" lon="-0.45221">
        <ele>149.5</ele>
      </trkpt>
      <trkpt lat="48.85775" lon="-0.45232">
        <ele>148.8</ele>
      </trkpt>
      <trkpt lat="48.8579" lon="-0.45268">
        <ele>151.5</ele>
      </trkpt>
      <trkpt lat="48.85789" lon="-0.45279">
        <ele>152.4</ele>
      </trkpt>
      <trkpt lat="48.85784" lon="-0.453">
        <ele>154.4</ele>
      </trkpt>
      <trkpt lat="48.85764" lon="-0.45347">
        <ele>159.2</ele>
      </trkpt>
      <trkpt lat="48.85715" lon="-0.45483">
        <ele>159.7</ele>
      </trkpt>
      <trkpt lat="48.8567" lon="-0.45563">
        <ele>166.4</ele>
      </trkpt>
      <trkpt lat="48.85659" lon="-0.4559">
        <ele>167.8</ele>
      </trkpt>
      <trkpt lat="48.85644" lon="-0.45632">
        <ele>170</ele>
      </trkpt>
      <trkpt lat="48.85622" lon="-0.457">
        <ele>174.7</ele>
      </trkpt>
      <trkpt lat="48.85622" lon="-0.45723">
        <ele>175.7</ele>
      </trkpt>
      <trkpt lat="48.85637" lon="-0.45828">
        <ele>176.4</ele>
      </trkpt>
      <trkpt lat="48.85639" lon="-0.45863">
        <ele>175.6</ele>
      </trkpt>
      <trkpt lat="48.85637" lon="-0.45921">
        <ele>174.4</ele>
      </trkpt>
      <trkpt lat="48.85632" lon="-0.45934">
        <ele>174.8</ele>
      </trkpt>
      <trkpt lat="48.85621" lon="-0.45952">
        <ele>175.8</ele>
      </trkpt>
      <trkpt lat="48.85554" lon="-0.46036">
        <ele>185.5</ele>
      </trkpt>
      <trkpt lat="48.85542" lon="-0.46074">
        <ele>188.4</ele>
      </trkpt>
      <trkpt lat="48.85555" lon="-0.46077">
        <ele>185.5</ele>
      </trkpt>
      <trkpt lat="48.85559" lon="-0.46081">
        <ele>184.5</ele>
      </trkpt>
      <trkpt lat="48.85589" lon="-0.4614">
        <ele>179.8</ele>
      </trkpt>
      <trkpt lat="48.85591" lon="-0.46154">
        <ele>179.9</ele>
      </trkpt>
      <trkpt lat="48.8559" lon="-0.46175">
        <ele>181.3</ele>
      </trkpt>
      <trkpt lat="48.85592" lon="-0.46198">
        <ele>183.8</ele>
      </trkpt>
      <trkpt lat="48.85601" lon="-0.46218">
        <ele>185.1</ele>
      </trkpt>
      <trkpt lat="48.85611" lon="-0.46223">
        <ele>184.5</ele>
      </trkpt>
      <trkpt lat="48.85627" lon="-0.46224">
        <ele>182.7</ele>
      </trkpt>
      <trkpt lat="48.85656" lon="-0.46243">
        <ele>180.9</ele>
      </trkpt>
      <trkpt lat="48.85664" lon="-0.46247">
        <ele>180.1</ele>
      </trkpt>
      <trkpt lat="48.85673" lon="-0.46248">
        <ele>179.3</ele>
      </trkpt>
      <trkpt lat="48.85685" lon="-0.46245">
        <ele>178.1</ele>
      </trkpt>
      <trkpt lat="48.85722" lon="-0.46226">
        <ele>174.3</ele>
      </trkpt>
      <trkpt lat="48.85751" lon="-0.46207">
        <ele>171.9</ele>
      </trkpt>
      <trkpt lat="48.85776" lon="-0.46186">
        <ele>170.3</ele>
      </trkpt>
      <trkpt lat="48.8582" lon="-0.46157">
        <ele>168.3</ele>
      </trkpt>
      <trkpt lat="48.85823" lon="-0.46177">
        <ele>168.3</ele>
      </trkpt>
      <trkpt lat="48.85842" lon="-0.46169">
        <ele>167.1</ele>
      </trkpt>
      <trkpt lat="48.85855" lon="-0.46142">
        <ele>165.8</ele>
      </trkpt>
      <trkpt lat="48.85915" lon="-0.46105">
        <ele>161.6</ele>
      </trkpt>
      <trkpt lat="48.85922" lon="-0.46104">
        <ele>161</ele>
      </trkpt>
      <trkpt lat="48.85941" lon="-0.46114">
        <ele>158.8</ele>
      </trkpt>
      <trkpt lat="48.85952" lon="-0.46123">
        <ele>157.5</ele>
      </trkpt>
      <trkpt lat="48.86013" lon="-0.46196">
        <ele>146.8</ele>
      </trkpt>
      <trkpt lat="48.86032" lon="-0.46201">
        <ele>142.7</ele>
      </trkpt>
      <trkpt lat="48.86053" lon="-0.46196">
        <ele>139.3</ele>
      </trkpt>
      <trkpt lat="48.86097" lon="-0.46174">
        <ele>133.2</ele>
      </trkpt>
      <trkpt lat="48.86112" lon="-0.46171">
        <ele>131</ele>
      </trkpt>
      <trkpt lat="48.86129" lon="-0.46177">
        <ele>127.7</ele>
      </trkpt>
      <trkpt lat="48.86151" lon="-0.46205">
        <ele>122.1</ele>
      </trkpt>
      <trkpt lat="48.86153" lon="-0.46216">
        <ele>121.1</ele>
      </trkpt>
      <trkpt lat="48.86142" lon="-0.46253">
        <ele>120.3</ele>
      </trkpt>
      <trkpt lat="48.8613" lon="-0.46284">
        <ele>119.1</ele>
      </trkpt>
      <trkpt lat="48.86162" lon="-0.46296">
        <ele>113.8</ele>
      </trkpt>
      <trkpt lat="48.86191" lon="-0.46325">
        <ele>108.6</ele>
      </trkpt>
      <trkpt lat="48.86186" lon="-0.46349">
        <ele>107</ele>
      </trkpt>
      <trkpt lat="48.86176" lon="-0.46374">
        <ele>105.3</ele>
      </trkpt>
      <trkpt lat="48.86164" lon="-0.46399">
        <ele>104</ele>
      </trkpt>
      <trkpt lat="48.86152" lon="-0.46421">
        <ele>103.2</ele>
      </trkpt>
      <trkpt lat="48.86139" lon="-0.46439">
        <ele>102.9</ele>
      </trkpt>
      <trkpt lat="48.86114" lon="-0.46469">
        <ele>102</ele>
      </trkpt>
      <trkpt lat="48.861" lon="-0.46491">
        <ele>100.3</ele>
      </trkpt>
      <trkpt lat="48.86097" lon="-0.46501">
        <ele>99.4</ele>
      </trkpt>
      <trkpt lat="48.86092" lon="-0.46525">
        <ele>99.2</ele>
      </trkpt>
      <trkpt lat="48.86091" lon="-0.46603">
        <ele>98.5</ele>
      </trkpt>
      <trkpt lat="48.86089" lon="-0.46659">
        <ele>98.5</ele>
      </trkpt>
      <trkpt lat="48.8608" lon="-0.46766">
        <ele>97.4</ele>
      </trkpt>
      <trkpt lat="48.8608" lon="-0.46766">
        <ele>97.4</ele>
      </trkpt>
      <trkpt lat="48.86024" lon="-0.46889">
        <ele>95.6</ele>
      </trkpt>
      <trkpt lat="48.85961" lon="-0.46987">
        <ele>98.7</ele>
      </trkpt>
      <trkpt lat="48.86011" lon="-0.47007">
        <ele>90.7</ele>
      </trkpt>
      <trkpt lat="48.86024" lon="-0.47017">
        <ele>89.1</ele>
      </trkpt>
      <trkpt lat="48.86029" lon="-0.47023">
        <ele>88.4</ele>
      </trkpt>
      <trkpt lat="48.86033" lon="-0.47032">
        <ele>87.7</ele>
      </trkpt>
      <trkpt lat="48.86036" lon="-0.47044">
        <ele>87.1</ele>
      </trkpt>
      <trkpt lat="48.86035" lon="-0.47065">
        <ele>86.7</ele>
      </trkpt>
      <trkpt lat="48.86025" lon="-0.47078">
        <ele>87.9</ele>
      </trkpt>
      <trkpt lat="48.85996" lon="-0.47099">
        <ele>90.8</ele>
      </trkpt>
      <trkpt lat="48.8592" lon="-0.47138">
        <ele>110.5</ele>
      </trkpt>
      <trkpt lat="48.85872" lon="-0.47167">
        <ele>121</ele>
      </trkpt>
      <trkpt lat="48.85843" lon="-0.47189">
        <ele>126.3</ele>
      </trkpt>
      <trkpt lat="48.8583" lon="-0.47195">
        <ele>128.9</ele>
      </trkpt>
      <trkpt lat="48.85729" lon="-0.47261">
        <ele>155.6</ele>
      </trkpt>
      <trkpt lat="48.85702" lon="-0.47287">
        <ele>164.8</ele>
      </trkpt>
      <trkpt lat="48.85665" lon="-0.47342">
        <ele>179.8</ele>
      </trkpt>
      <trkpt lat="48.85651" lon="-0.47368">
        <ele>185.3</ele>
      </trkpt>
      <trkpt lat="48.85623" lon="-0.47431">
        <ele>197</ele>
      </trkpt>
      <trkpt lat="48.85594" lon="-0.47478">
        <ele>207.9</ele>
      </trkpt>
      <trkpt lat="48.85576" lon="-0.47498">
        <ele>212.6</ele>
      </trkpt>
      <trkpt lat="48.85548" lon="-0.47522">
        <ele>215.4</ele>
      </trkpt>
      <trkpt lat="48.85531" lon="-0.47526">
        <ele>216.9</ele>
      </trkpt>
      <trkpt lat="48.8548" lon="-0.47551">
        <ele>220.7</ele>
      </trkpt>
      <trkpt lat="48.85416" lon="-0.47593">
        <ele>225</ele>
      </trkpt>
      <trkpt lat="48.85384" lon="-0.47617">
        <ele>224.9</ele>
      </trkpt>
      <trkpt lat="48.85357" lon="-0.47641">
        <ele>225.3</ele>
      </trkpt>
      <trkpt lat="48.85335" lon="-0.4766">
        <ele>225.8</ele>
      </trkpt>
      <trkpt lat="48.85318" lon="-0.47666">
        <ele>225.4</ele>
      </trkpt>
      <trkpt lat="48.85288" lon="-0.47666">
        <ele>224.3</ele>
      </trkpt>
      <trkpt lat="48.85247" lon="-0.47656">
        <ele>222.8</ele>
      </trkpt>
      <trkpt lat="48.85234" lon="-0.47648">
        <ele>222.1</ele>
      </trkpt>
      <trkpt lat="48.85208" lon="-0.47687">
        <ele>220.8</ele>
      </trkpt>
      <trkpt lat="48.85068" lon="-0.47882">
        <ele>215.1</ele>
      </trkpt>
      <trkpt lat="48.85056" lon="-0.47901">
        <ele>214.7</ele>
      </trkpt>
      <trkpt lat="48.85037" lon="-0.47939">
        <ele>214.2</ele>
      </trkpt>
      <trkpt lat="48.85011" lon="-0.48008">
        <ele>213.9</ele>
      </trkpt>
      <trkpt lat="48.85001" lon="-0.48041">
        <ele>213.6</ele>
      </trkpt>
      <trkpt lat="48.84982" lon="-0.48086">
        <ele>213</ele>
      </trkpt>
      <trkpt lat="48.84982" lon="-0.48132">
        <ele>214.4</ele>
      </trkpt>
      <trkpt lat="48.8498" lon="-0.48162">
        <ele>215.1</ele>
      </trkpt>
      <trkpt lat="48.84971" lon="-0.48201">
        <ele>215</ele>
      </trkpt>
      <trkpt lat="48.8495" lon="-0.48272">
        <ele>214.3</ele>
      </trkpt>
      <trkpt lat="48.84931" lon="-0.4834">
        <ele>214.3</ele>
      </trkpt>
      <trkpt lat="48.8492" lon="-0.4841">
        <ele>213.3</ele>
      </trkpt>
      <trkpt lat="48.84915" lon="-0.48523">
        <ele>211.6</ele>
      </trkpt>
      <trkpt lat="48.84915" lon="-0.48562">
        <ele>211.1</ele>
      </trkpt>
      <trkpt lat="48.84917" lon="-0.48598">
        <ele>210</ele>
      </trkpt>
      <trkpt lat="48.84957" lon="-0.48726">
        <ele>204.7</ele>
      </trkpt>
      <trkpt lat="48.84961" lon="-0.48747">
        <ele>203.9</ele>
      </trkpt>
      <trkpt lat="48.84966" lon="-0.48783">
        <ele>202.7</ele>
      </trkpt>
      <trkpt lat="48.84974" lon="-0.48913">
        <ele>200.1</ele>
      </trkpt>
      <trkpt lat="48.84993" lon="-0.49066">
        <ele>202.4</ele>
      </trkpt>
      <trkpt lat="48.84996" lon="-0.49107">
        <ele>203.2</ele>
      </trkpt>
      <trkpt lat="48.85002" lon="-0.4915">
        <ele>204.2</ele>
      </trkpt>
      <trkpt lat="48.85008" lon="-0.49174">
        <ele>204.5</ele>
      </trkpt>
      <trkpt lat="48.8501" lon="-0.49219">
        <ele>203.6</ele>
      </trkpt>
      <trkpt lat="48.85017" lon="-0.49255">
        <ele>203</ele>
      </trkpt>
      <trkpt lat="48.85023" lon="-0.49293">
        <ele>200.1</ele>
      </trkpt>
      <trkpt lat="48.85063" lon="-0.49401">
        <ele>197.4</ele>
      </trkpt>
      <trkpt lat="48.85067" lon="-0.49417">
        <ele>197</ele>
      </trkpt>
      <trkpt lat="48.85067" lon="-0.49472">
        <ele>195.9</ele>
      </trkpt>
      <trkpt lat="48.8506" lon="-0.4965">
        <ele>193.1</ele>
      </trkpt>
      <trkpt lat="48.85061" lon="-0.49716">
        <ele>190.9</ele>
      </trkpt>
      <trkpt lat="48.85063" lon="-0.49744">
        <ele>189.8</ele>
      </trkpt>
      <trkpt lat="48.8506" lon="-0.49765">
        <ele>188.7</ele>
      </trkpt>
      <trkpt lat="48.8506" lon="-0.49793">
        <ele>187.4</ele>
      </trkpt>
      <trkpt lat="48.85063" lon="-0.49886">
        <ele>184.4</ele>
      </trkpt>
      <trkpt lat="48.85061" lon="-0.49916">
        <ele>183.7</ele>
      </trkpt>
      <trkpt lat="48.85027" lon="-0.50037">
        <ele>183.6</ele>
      </trkpt>
      <trkpt lat="48.84996" lon="-0.5016">
        <ele>183.1</ele>
      </trkpt>
      <trkpt lat="48.84991" lon="-0.50201">
        <ele>181.4</ele>
      </trkpt>
      <trkpt lat="48.84973" lon="-0.50306">
        <ele>177.4</ele>
      </trkpt>
      <trkpt lat="48.84934" lon="-0.50488">
        <ele>166.9</ele>
      </trkpt>
      <trkpt lat="48.8492" lon="-0.50537">
        <ele>165.6</ele>
      </trkpt>
      <trkpt lat="48.84918" lon="-0.50537">
        <ele>165.9</ele>
      </trkpt>
      <trkpt lat="48.84896" lon="-0.50658">
        <ele>158.7</ele>
      </trkpt>
      <trkpt lat="48.84893" lon="-0.50706">
        <ele>155</ele>
      </trkpt>
      <trkpt lat="48.84898" lon="-0.50774">
        <ele>147.8</ele>
      </trkpt>
      <trkpt lat="48.84898" lon="-0.5082">
        <ele>144.1</ele>
      </trkpt>
      <trkpt lat="48.84895" lon="-0.50856">
        <ele>141.3</ele>
      </trkpt>
      <trkpt lat="48.84894" lon="-0.50922">
        <ele>134.1</ele>
      </trkpt>
      <trkpt lat="48.84897" lon="-0.50967">
        <ele>129</ele>
      </trkpt>
      <trkpt lat="48.84907" lon="-0.51014">
        <ele>124.1</ele>
      </trkpt>
      <trkpt lat="48.84981" lon="-0.51273">
        <ele>98.2</ele>
      </trkpt>
      <trkpt lat="48.85002" lon="-0.51342">
        <ele>93.2</ele>
      </trkpt>
      <trkpt lat="48.85017" lon="-0.51404">
        <ele>88.1</ele>
      </trkpt>
      <trkpt lat="48.85042" lon="-0.5146">
        <ele>84.7</ele>
      </trkpt>
      <trkpt lat="48.85048" lon="-0.51485">
        <ele>83.9</ele>
      </trkpt>
      <trkpt lat="48.85058" lon="-0.51549">
        <ele>81.1</ele>
      </trkpt>
      <trkpt lat="48.85065" lon="-0.51572">
        <ele>80.3</ele>
      </trkpt>
      <trkpt lat="48.85068" lon="-0.51604">
        <ele>79</ele>
      </trkpt>
      <trkpt lat="48.85085" lon="-0.51706">
        <ele>76.5</ele>
      </trkpt>
      <trkpt lat="48.8503" lon="-0.51809">
        <ele>74.9</ele>
      </trkpt>
      <trkpt lat="48.85023" lon="-0.51848">
        <ele>74.7</ele>
      </trkpt>
      <trkpt lat="48.85017" lon="-0.51919">
        <ele>74.8</ele>
      </trkpt>
      <trkpt lat="48.85008" lon="-0.51968">
        <ele>75.5</ele>
      </trkpt>
      <trkpt lat="48.85002" lon="-0.51991">
        <ele>75.8</ele>
      </trkpt>
      <trkpt lat="48.84982" lon="-0.52047">
        <ele>77.4</ele>
      </trkpt>
      <trkpt lat="48.84975" lon="-0.52074">
        <ele>77.9</ele>
      </trkpt>
      <trkpt lat="48.84974" lon="-0.52087">
        <ele>78.1</ele>
      </trkpt>
      <trkpt lat="48.84978" lon="-0.52112">
        <ele>78.4</ele>
      </trkpt>
      <trkpt lat="48.85003" lon="-0.5215">
        <ele>80.1</ele>
      </trkpt>
      <trkpt lat="48.85025" lon="-0.52189">
        <ele>82.3</ele>
      </trkpt>
      <trkpt lat="48.85098" lon="-0.52354">
        <ele>79.3</ele>
      </trkpt>
      <trkpt lat="48.85109" lon="-0.52354">
        <ele>80.4</ele>
      </trkpt>
      <trkpt lat="48.85127" lon="-0.52344">
        <ele>82</ele>
      </trkpt>
    </trkseg>
  </trk>
</gpx>